[[{"header":{"parameterUnit":"m.s-1","parameterCategory":1,"la1":30.6,"la2":29.2853,"lo1":-89.7004,"lo2":-87.6739,"dy":0.0162,"dx":0.0183,"nx":112,"ny":82,"refTime":"2023-05-19T12:00:00:Z","depth":0,"parameterNumber":2,"parameterNumberName":"U-component_of_WINDS"},"data":[0.0,0.0,0.0,0.0,0.0,0.0,0.0,0.0,0.0,0.0,0.0,0.0,0.0,0.0,0.0,0.0,0.0,0.0,0.0,0.0,0.0,0.0,0.0,0.0,0.0,0.0,0.0,0.0,0.0,0.0,0.0,0.0,0.0,0.0,0.0,0.0,0.0,0.0,0.0,0.0,0.0,0.0,0.0,0.0,0.0,0.0,0.0,0.0,0.0,0.0,0.0,0.0,0.0,0.0,0.0,0.0,0.0,0.0,0.0,0.0,0.0,0.0,0.0,0.0,0.0,0.0,0.0,0.0,0.0,0.0,0.0,0.0,0.0,0.0,0.0,0.0,0.0,0.0,0.0,0.0,0.0,0.0,0.0,0.0,0.0,0.0,0.0,0.0,0.0,0.0,2.4384,2.6388,2.7726,2.7917,2.6498,2.5186,2.3947,2.2804,0.0,0.0,0.0,0.0,0.0,0.0,0.0,0.0,0.0,0.0,0.0,0.0,0.0,0.0,0.0,0.0,0.0,0.0,0.0,0.0,0.0,0.0,0.0,0.0,0.0,0.0,0.0,0.0,0.0,0.0,0.0,0.0,0.0,0.0,0.0,0.0,0.0,0.0,0.0,0.0,0.0,0.0,0.0,0.0,0.0,0.0,0.0,0.0,0.0,0.0,0.0,0.0,0.0,0.0,0.0,0.0,0.0,0.0,0.0,0.0,0.0,0.0,0.0,0.0,0.0,0.0,0.0,0.0,0.0,0.0,0.0,0.0,0.0,0.0,0.0,0.0,0.0,0.0,0.0,0.0,0.0,0.0,0.0,0.0,0.0,0.0,0.0,0.0,0.0,0.0,0.0,0.0,0.0,0.0,0.0,0.0,0.0,0.0,0.0,0.0,0.0,0.0,0.0,0.0,2.2671,2.4657,2.5997,2.5848,2.3725,2.2789,2.1744,2.0348,0.0,0.0,0.0,0.0,0.0,0.0,0.0,0.0,0.0,0.0,0.0,0.0,0.0,0.0,0.0,0.0,0.0,0.0,0.0,0.0,0.0,0.0,0.0,0.0,0.0,0.0,0.0,0.0,0.0,0.0,0.0,0.0,0.0,0.0,0.0,0.0,0.0,0.0,0.0,0.0,0.0,0.0,0.0,0.0,0.0,0.0,0.0,0.0,0.0,0.0,0.0,0.0,0.0,0.0,0.0,0.0,0.0,0.0,0.0,0.0,0.0,0.0,0.0,0.0,0.0,0.0,0.0,0.0,0.0,0.0,0.0,0.0,0.0,0.0,0.0,0.0,0.0,0.0,0.0,0.0,0.0,0.0,0.0,0.0,0.0,0.0,0.0,0.0,0.0,0.0,0.0,0.0,0.0,0.0,0.0,0.0,0.0,0.0,0.0,0.0,0.0,0.0,0.0,2.1205,2.1756,2.1954,2.3094,2.3117,2.1342,2.0586,1.9829,1.9081,1.9373,0.0,0.0,0.0,0.0,0.0,0.0,0.0,0.0,0.0,0.0,0.0,0.0,0.0,0.0,0.0,0.0,0.0,0.0,0.0,0.0,0.0,0.0,0.0,0.0,0.0,0.0,0.0,0.0,0.0,0.0,0.0,0.0,0.0,0.0,0.0,0.0,0.0,0.0,0.0,0.0,0.0,0.0,0.0,0.0,0.0,0.0,0.0,0.0,0.0,0.0,0.0,0.0,0.0,0.0,0.0,0.0,0.0,0.0,0.0,0.0,0.0,0.0,0.0,0.0,0.0,0.0,0.0,0.0,0.0,0.0,0.0,0.0,0.0,0.0,0.0,0.0,0.0,0.0,0.0,0.0,0.0,0.0,0.0,0.0,0.0,0.0,0.0,0.0,0.0,0.0,0.0,0.0,0.0,0.0,0.0,0.0,0.0,0.0,0.0,0.0,0.0,0.0,2.0229,2.0662,1.9494,2.0363,2.0476,1.9166,1.8309,1.7831,1.7776,1.6824,0.0,0.0,0.0,0.0,0.0,0.0,0.0,0.0,0.0,0.0,0.0,0.0,0.0,0.0,0.0,0.0,0.0,0.0,0.0,0.0,0.0,0.0,0.0,0.0,0.0,0.0,0.0,0.0,0.0,0.0,0.0,0.0,0.0,0.0,0.0,0.0,0.0,0.0,0.0,0.0,0.0,0.0,0.0,0.0,0.0,0.0,0.0,0.0,0.0,0.0,0.0,0.0,0.0,0.0,0.0,0.0,0.0,0.0,0.0,0.0,0.0,0.0,0.0,0.0,0.0,0.0,0.0,0.0,0.0,0.0,0.0,0.0,0.0,0.0,0.0,0.0,0.0,0.0,0.0,0.0,0.0,0.0,0.0,0.0,0.0,0.0,0.0,0.0,0.0,0.0,0.0,0.0,0.0,0.0,0.0,0.0,0.0,0.0,0.0,0.0,0.0,0.0,1.866,1.8862,1.8222,1.8548,1.8278,1.6956,1.5998,1.5513,1.5594,1.4387,0.0,0.0,0.0,0.0,0.0,0.0,0.0,0.0,0.0,0.0,0.0,0.0,0.0,0.0,0.0,0.0,0.0,0.0,0.0,0.0,0.0,0.0,0.0,0.0,0.0,0.0,0.0,0.0,0.0,0.0,0.0,0.0,0.0,0.0,0.0,0.0,0.0,0.0,0.0,0.0,0.0,0.0,0.0,0.0,0.0,0.0,0.0,0.0,0.0,0.0,0.0,0.0,0.0,0.0,0.0,0.0,0.0,0.0,0.0,0.0,0.0,0.0,0.0,0.0,0.0,0.0,0.0,0.0,0.0,0.0,0.0,0.0,0.0,0.0,0.0,0.0,0.0,0.0,0.0,0.0,0.0,0.0,0.0,0.0,0.0,0.0,0.0,0.0,0.0,0.0,0.0,0.0,0.0,0.0,0.0,0.0,0.0,0.0,0.0,0.0,0.0,0.0,1.6565,1.6734,1.5836,1.5727,1.5377,1.4807,1.3979,1.3536,1.3733,0.0,0.0,0.0,0.0,0.0,0.0,0.0,0.0,0.0,0.0,0.0,0.0,0.0,0.0,0.0,0.0,0.0,0.0,0.0,0.0,0.0,0.0,0.0,0.0,0.0,0.0,0.0,0.0,0.0,0.0,0.0,0.0,0.0,0.0,0.0,0.0,0.0,0.0,0.0,0.0,0.0,0.0,0.0,0.0,0.0,0.0,0.0,0.0,0.0,0.0,0.0,0.0,0.0,0.0,0.0,0.0,0.0,0.0,0.0,0.0,0.0,0.0,0.0,0.0,0.0,0.0,0.0,0.0,0.0,0.0,0.0,0.0,0.0,0.0,0.0,0.0,0.0,0.0,0.0,0.0,0.0,0.0,0.0,0.0,0.0,0.0,0.0,0.0,0.0,0.0,0.0,0.0,0.0,0.0,0.0,0.0,0.0,0.0,0.0,0.0,0.0,0.0,1.397,1.4439,1.4529,1.3596,1.3214,1.2877,1.2484,1.1637,1.125,1.1483,0.0,0.0,0.0,0.0,0.0,0.0,0.0,0.0,0.0,0.0,0.0,0.0,0.0,0.0,0.0,0.0,0.0,0.0,0.0,0.0,0.0,0.0,0.0,0.0,0.0,0.0,0.0,0.0,0.0,0.0,0.0,0.0,0.0,0.0,0.0,0.0,0.0,0.0,0.0,0.0,0.0,0.0,0.0,0.0,0.0,0.0,0.0,0.0,0.0,0.0,0.0,0.0,0.0,0.0,0.0,0.0,0.0,0.0,0.0,0.0,0.0,0.0,0.0,0.0,0.0,0.0,0.0,0.0,0.0,0.0,0.0,0.0,0.0,0.0,0.0,0.0,0.0,0.0,0.0,0.0,0.0,0.0,0.0,0.0,0.0,0.0,0.0,0.0,0.0,0.0,0.0,0.0,0.0,0.0,0.0,0.0,0.0,0.0,0.0,0.0,0.0,0.0,1.258,1.2389,1.2135,1.1571,1.1301,1.0843,1.0021,0.9041,0.8597,0.0,0.0,0.0,0.0,0.0,0.0,0.0,0.0,0.0,0.0,0.0,0.0,0.0,0.0,0.0,0.0,0.0,0.0,0.0,0.0,0.0,0.0,0.0,0.0,0.0,0.0,0.0,0.0,0.0,0.0,0.0,0.0,0.0,0.0,0.0,0.0,0.0,0.0,0.0,0.0,0.0,0.0,0.0,0.0,0.0,0.0,0.0,0.0,0.0,0.0,0.0,0.0,0.0,0.0,0.0,0.0,0.0,0.0,0.0,0.0,0.0,0.0,0.0,0.0,0.0,0.0,0.0,0.0,0.0,0.0,0.0,0.0,0.0,0.0,0.0,0.0,0.0,0.0,0.0,0.0,0.0,0.0,0.0,0.0,0.0,0.0,0.0,0.0,0.0,0.0,0.0,0.0,0.0,0.0,0.0,0.0,0.0,0.0,0.0,0.0,0.0,0.0,0.0,1.1368,1.0756,1.0216,0.9806,0.8907,0.8259,0.8071,0.7722,0.7466,0.7358,0.0,0.0,0.0,0.0,0.0,0.0,0.0,0.0,0.0,0.0,0.0,0.0,0.0,0.0,0.0,0.0,0.0,0.0,0.0,0.0,0.0,0.0,0.0,0.0,0.0,0.0,0.0,0.0,0.0,0.0,0.0,0.0,0.0,0.0,0.0,0.0,0.0,0.0,0.0,0.0,0.0,0.0,0.0,0.0,0.0,0.0,0.0,0.0,0.0,0.0,0.0,0.0,0.0,0.0,0.0,0.0,0.0,0.0,0.0,0.0,0.0,0.0,0.0,0.0,0.0,0.0,0.0,0.0,0.0,0.0,0.0,0.0,0.0,0.0,0.0,0.0,0.0,0.0,0.0,0.0,0.0,0.0,0.0,0.0,0.0,0.0,0.0,0.0,0.0,0.0,0.0,0.0,0.0,0.0,0.0,0.0,0.0,0.0,0.0,0.0,0.0,0.0,0.9497,0.8769,0.8195,0.7952,0.7451,0.7003,0.6605,0.6705,0.6238,0.4932,0.0,0.0,0.0,0.0,0.0,0.0,0.0,0.0,0.0,0.0,0.0,0.0,0.0,0.0,0.0,0.0,0.0,0.0,0.0,0.0,0.0,0.0,0.0,0.0,0.0,0.0,0.0,0.0,0.0,0.0,0.0,0.0,0.0,0.0,0.0,0.0,0.0,0.0,0.0,0.0,0.0,0.0,0.0,0.0,0.0,0.0,0.0,0.0,0.0,0.0,0.0,0.0,0.0,0.0,0.0,0.0,0.0,0.0,0.0,0.0,0.0,0.0,0.0,0.0,0.0,0.0,0.0,0.0,0.0,0.0,0.0,0.0,0.0,0.0,0.0,0.0,0.0,0.0,0.0,0.0,0.0,0.0,0.0,0.0,0.0,0.0,0.0,0.0,0.0,0.0,0.0,0.0,0.0,0.0,0.0,0.0,0.0,0.0,0.0,0.0,0.0,0.0,0.7413,0.6746,0.6338,0.6408,0.6692,0.644,0.5432,0.5859,0.4979,0.2146,0.0,0.0,0.0,0.0,0.0,0.0,0.0,0.0,0.0,0.0,0.0,0.0,0.0,0.0,0.0,0.0,0.0,0.0,0.0,0.0,0.0,0.0,0.0,0.0,0.0,0.0,0.0,0.0,0.0,0.0,0.0,0.0,0.0,0.0,0.0,0.0,0.0,0.0,0.0,0.0,0.0,0.0,0.0,0.0,0.0,0.0,0.0,0.0,0.0,0.0,0.0,0.0,0.0,0.0,0.0,0.0,0.0,0.0,0.0,0.0,1.383,0.0,0.0,0.0,0.0,0.0,0.0,0.0,0.0,0.0,0.0,0.0,0.0,0.0,0.0,0.0,0.0,0.0,0.0,0.0,0.0,0.0,0.0,0.0,0.0,0.0,0.0,0.0,0.0,0.0,0.0,0.0,0.0,0.0,0.0,0.0,0.0,0.0,0.0,0.0,0.0,0.0,0.7086,0.6324,0.5969,0.6394,0.5519,0.4367,0.3017,0.4041,0.3706,0.1139,-0.0132,0.0,0.0,0.0,0.0,0.0,0.0,0.0,0.0,0.0,0.0,0.0,0.0,0.0,0.0,0.0,0.0,0.0,0.0,0.0,0.0,0.0,0.0,0.0,0.0,0.0,0.0,0.0,0.0,0.0,0.0,0.0,0.0,0.0,0.0,0.0,0.0,0.0,0.0,0.0,0.0,0.0,0.0,0.0,0.0,0.0,0.0,0.0,0.0,0.0,0.0,0.0,0.0,0.0,0.0,0.0,0.0,0.0,0.0,0.0,0.0,1.2444,0.0,0.0,0.0,0.0,0.0,0.0,0.0,0.0,0.0,0.0,0.0,0.0,0.0,0.0,0.0,0.0,0.0,0.0,0.0,0.0,0.0,0.0,0.0,0.0,0.0,0.0,0.0,0.0,0.0,0.0,0.0,0.0,0.0,0.0,0.0,0.0,0.0,0.0,0.0,0.0,0.5236,0.4625,0.4228,0.4503,0.4381,0.3435,0.1273,0.0537,-0.0067,-0.0603,-0.1592,0.0,0.0,0.0,0.0,0.0,0.0,0.0,0.0,0.0,0.0,0.0,0.0,0.0,0.0,0.0,0.0,0.0,0.0,0.0,0.0,0.0,0.0,0.0,0.0,0.0,0.0,0.0,0.0,0.0,0.0,0.0,0.0,0.0,0.0,0.0,0.0,0.0,0.0,0.0,0.0,0.0,0.0,0.0,0.0,0.0,0.0,0.0,0.0,0.0,0.0,0.0,0.0,0.0,1.0168,0.9777,0.9812,0.9119,0.8045,0.697,0.891,0.9603,0.9374,1.0133,0.0,0.0,0.0,0.0,0.0,0.0,0.0,0.0,0.0,0.0,0.0,0.0,0.0,0.0,0.0,0.0,0.0,0.0,0.0,0.0,0.0,0.0,0.0,0.0,0.8639,0.8775,0.0,0.0,0.0,0.0,0.0,0.0,0.0,0.0,0.0,0.0,0.0,0.0,0.3257,0.2701,0.208,0.1408,0.2218,0.195,-0.0201,-0.2758,-0.3708,-0.235,-0.2287,-0.2199,0.0,0.0,0.0,0.0,0.0,0.0,0.0,0.0,0.0,0.0,0.0,0.0,0.0,0.0,0.0,0.0,0.0,0.0,0.0,0.0,0.0,0.0,0.0,0.0,0.0,0.0,0.0,0.0,0.0,0.0,0.0,0.0,2.1636,2.1297,0.0,0.0,0.0,0.0,0.0,0.0,0.0,0.0,0.0,0.0,0.0,0.0,0.0,0.9533,0.9473,0.8265,0.772,0.7834,0.6092,0.522,0.5274,0.4517,0.4098,0.4045,0.4395,0.0,0.6054,0.6218,0.0,0.0,0.0,0.0,0.0,0.0,0.0,0.0,0.0,0.0,0.0,0.0,0.0,0.0,0.0,0.0,0.0,0.0,0.0,0.0,0.0,0.0,0.7832,0.7892,0.7702,0.7567,0.0,0.8462,0.8748,0.7794,0.7291,0.0,0.0,0.0,0.0,0.0,0.0,0.0,0.2834,0.218,0.0403,-0.3032,-0.3236,-0.2827,-0.1878,-0.3364,-0.3842,-0.2829,-0.2829,-0.2622,-0.2142,-0.2083,0.0,0.0,0.0,0.0,0.0,0.0,0.0,0.0,0.0,0.0,0.0,0.0,0.0,0.0,0.0,0.0,0.0,0.0,0.0,0.0,0.0,0.0,0.0,0.0,0.0,0.0,0.0,0.0,0.0,2.0673,2.0069,1.8747,1.7573,1.6264,0.0,0.0,0.0,0.0,0.0,0.0,0.0,0.0,0.0,0.8608,0.8205,0.7536,0.6764,0.6136,0.5559,0.5017,0.4151,0.3684,0.353,0.324,0.2994,0.2932,0.2543,0.2502,0.2659,0.386,0.4734,0.5291,0.0,0.0,0.0,0.0,0.5149,0.4882,0.4743,0.4533,0.0,0.4663,0.0,0.0,0.0,0.0,0.0,0.0,0.0,0.0,0.0,0.0,0.5866,0.6338,0.6342,0.628,0.6218,0.6129,0.6294,0.0,0.654,0.5935,0.6067,0.0,0.0,0.0,0.0,0.2006,0.1845,0.0267,-0.148,-0.3238,-0.3914,-0.4043,-0.3424,-0.3899,-0.4105,-0.3701,-0.3297,-0.296,-0.2757,-0.2423,-0.2221,0.0,0.0,0.0,0.0,0.0,0.0,0.0,0.0,0.0,0.0,0.0,0.0,0.0,0.0,0.0,0.0,0.0,0.0,0.0,0.0,0.0,0.0,0.0,0.0,0.0,0.0,0.0,0.0,1.8845,1.7755,1.5585,1.4571,1.3378,0.0,0.0,0.0,0.0,0.0,0.0,0.8532,0.7539,0.6652,0.5798,0.5306,0.456,0.3502,0.3358,0.2911,0.2196,0.2041,0.1884,0.1649,0.1644,0.1637,0.1553,0.1092,0.0618,0.0303,0.1812,0.2454,0.2616,0.2542,0.2761,0.3051,0.2833,0.2907,0.2978,0.2887,0.2808,0.2798,0.2956,0.0,0.3336,0.3313,0.0,0.0,0.0,0.0,0.3616,0.4535,0.4408,0.4154,0.4688,0.4824,0.4824,0.4824,0.4359,0.4498,0.0,0.5679,0.4816,0.5216,0.0,0.0,0.0,0.0,0.0262,-0.0201,-0.1546,-0.2624,-0.3096,-0.3837,-0.4308,-0.43,-0.43,-0.4233,-0.403,-0.3496,-0.3092,-0.2958,-0.2488,-0.2221,-0.2221,0.0,0.0,0.0,0.0,0.0,0.0,0.0,0.0,0.0,0.0,0.0,0.0,0.0,0.0,0.0,0.0,0.0,0.0,0.0,0.0,0.0,0.0,0.0,0.0,0.0,0.0,0.0,0.0,0.0,1.2337,1.2332,0.0,0.0,0.0,0.0,0.9034,0.8372,0.7087,0.5158,0.2827,0.1158,0.0217,0.0076,-0.0078,-0.0156,-0.0544,-0.0854,-0.0857,-0.1406,-0.1641,-0.1641,-0.1641,-0.139,-0.0985,-0.1086,-0.0851,-0.0454,-0.0454,-0.0074,0.0654,0.0581,0.1307,0.2395,0.1671,0.1745,0.2175,0.1912,0.1544,0.1333,0.2034,0.2589,0.2988,0.2776,0.3086,0.0,0.0,0.3215,0.3215,0.3282,0.3282,0.3282,0.3282,0.3282,0.3282,0.3282,0.3491,0.3902,0.0,0.4164,0.3084,0.241,0.0,0.4311,0.4182,0.0671,-0.242,-0.3849,-0.2757,-0.2482,-0.403,-0.43,-0.43,-0.43,-0.43,-0.4033,-0.3293,-0.3226,-0.2891,-0.2288,-0.2221,-0.2221,-0.2221,-0.2221,0.0,0.0,0.0,0.0,0.0,0.0,0.0,0.0,0.0,0.0,0.0,0.0,0.0,0.0,0.0,0.0,0.0,0.0,0.0,0.0,0.0,0.0,0.0,0.0,0.0,0.0,0.0,0.0,1.1494,1.0037,0.0,0.7113,0.6332,0.5612,0.464,0.4066,0.3052,0.1558,-0.0216,-0.1844,-0.3275,-0.3333,-0.3365,-0.337,-0.3522,-0.3597,-0.3595,-0.3839,-0.3446,-0.2504,-0.2192,-0.1701,-0.1209,-0.1374,-0.1274,-0.1084,-0.1567,-0.1139,-0.0229,-0.0148,0.0368,0.1042,0.0806,0.1092,0.1528,0.1442,0.1294,0.1219,0.1409,0.1592,0.1768,0.1684,0.1813,0.1947,0.1879,0.1879,0.1946,0.2348,0.248,0.2614,0.3082,0.3215,0.3215,0.3215,0.2883,0.2753,0.3088,0.3567,0.3236,0.1144,0.1212,0.0875,-0.0941,-0.2559,-0.371,-0.4252,-0.3768,-0.3625,-0.4233,-0.43,-0.43,-0.43,-0.4097,-0.3894,-0.3625,-0.3157,-0.2755,-0.2554,-0.2287,-0.2221,-0.2221,-0.2087,-0.2018,0.0,0.0,0.0,0.0,0.0,0.0,0.0,0.0,0.0,0.0,0.0,0.0,0.0,0.0,0.0,0.0,0.0,0.0,0.0,0.0,0.0,0.0,0.0,0.0,0.0,1.1601,1.0798,0.9167,0.661,0.4476,0.332,0.2581,0.1633,0.0409,0.0211,-0.0288,-0.1234,-0.2567,-0.3806,-0.4896,-0.4977,-0.5018,-0.4937,-0.494,-0.5018,-0.5018,-0.4982,-0.4416,-0.3555,-0.3146,-0.2563,-0.1916,-0.2083,-0.197,-0.1616,-0.2109,-0.1873,-0.1147,-0.1118,-0.0742,-0.0224,-0.0,0.0437,0.0947,0.1083,0.1151,0.1146,0.1115,0.1099,0.1089,0.1079,0.1076,0.1076,0.1076,0.1076,0.121,0.1679,0.1745,0.1879,0.2348,0.248,0.248,0.248,0.2082,0.1747,0.1747,0.2424,0.236,0.0337,-0.0809,-0.2089,-0.3989,-0.4322,-0.4317,-0.4311,-0.4306,-0.43,-0.43,-0.4231,-0.4164,-0.4164,-0.3828,-0.3558,-0.3422,-0.2954,-0.2619,-0.2554,-0.2287,-0.2221,-0.2221,-0.1951,-0.1817,-0.1884,0.0,0.0,0.0,0.0,0.0,0.0,0.0,0.0,0.0,0.0,0.0,0.0,0.0,0.0,0.0,0.0,0.0,0.0,0.0,0.0,0.0,0.0,0.0,0.8316,0.8283,0.7279,0.5086,0.2033,-0.0,-0.014,-0.1409,-0.247,-0.3079,-0.2802,-0.2765,-0.3123,-0.4333,-0.4952,-0.4829,-0.4896,-0.4935,-0.4779,-0.4932,-0.5007,-0.501,-0.4887,-0.4828,-0.4825,-0.4708,-0.4232,-0.3438,-0.345,-0.3008,-0.2171,-0.2174,-0.2207,-0.2335,-0.239,-0.2006,-0.131,-0.08,-0.0145,0.0507,0.0918,0.1119,0.1114,0.1085,0.1095,0.1114,0.1152,0.1143,0.1143,0.1076,0.1076,0.1076,0.1076,0.1076,0.1076,0.1076,0.1076,0.1076,0.1076,0.1077,0.1079,0.1079,0.0742,0.0404,-0.0,-0.236,-0.4193,-0.426,-0.4244,0.0,-0.4233,-0.4233,-0.4233,-0.4233,-0.3961,-0.3758,-0.3758,-0.3424,-0.3025,-0.2753,-0.2686,-0.2554,-0.2221,-0.2221,-0.2221,-0.2154,-0.1817,-0.148,-0.1277,0.0,0.0,0.0,0.0,0.0,0.0,0.0,0.0,0.0,0.0,0.0,0.0,0.0,0.0,0.0,0.0,0.0,0.0,0.0,0.0,0.0,0.537,0.4733,0.6336,0.5586,0.406,0.1784,-0.1512,-0.3621,-0.3608,-0.4121,-0.4411,-0.4262,-0.396,-0.3939,-0.4417,-0.4365,-0.4563,-0.4923,-0.4898,-0.4849,-0.4937,-0.4841,-0.4798,-0.4882,-0.476,-0.4703,-0.4703,-0.4377,-0.3875,-0.3365,-0.3104,-0.2719,-0.2183,-0.2226,-0.2229,-0.2206,-0.2221,-0.1893,-0.1343,-0.0762,0.0069,0.0893,0.1022,0.1293,0.1495,0.1483,0.169,0.1835,0.1551,0.148,0.1412,0.1143,0.1076,0.1076,0.1076,0.1076,0.1076,0.1076,0.1076,0.1008,0.0605,0.0538,0.0404,-0.0,0.0067,-0.0067,-0.0673,-0.148,-0.2288,-0.3169,-0.3301,0.0,-0.3496,-0.3496,-0.3496,-0.3496,-0.3426,-0.336,-0.336,-0.3023,-0.282,-0.2686,-0.2487,-0.2287,-0.2221,-0.2221,-0.2085,-0.1749,-0.1681,-0.148,0.0,0.0,0.0,0.0,0.0,0.0,0.0,0.0,0.0,0.0,0.0,0.0,0.0,0.0,0.0,0.0,0.0,0.0,0.0,0.0,0.0,0.0,0.3158,0.2104,0.2867,0.2163,0.1088,-0.0294,-0.3135,-0.4963,-0.4907,-0.5114,-0.5258,-0.5261,-0.5098,-0.5159,-0.5521,-0.5126,-0.4884,-0.4868,-0.5066,-0.5041,-0.479,-0.4919,-0.4907,-0.4757,-0.4635,-0.4649,-0.4575,-0.4247,-0.3841,0.0,-0.3097,-0.2662,-0.2224,-0.2192,-0.2185,0.0,0.0,0.0,0.0,0.0,0.0269,0.1008,0.1412,0.1681,0.1884,0.1884,0.2018,0.2154,0.1951,0.1884,0.1749,0.1412,0.1277,0.1277,0.1143,0.1076,0.1076,0.0807,0.0739,0.0605,0.0067,-0.0067,-0.0134,-0.047,-0.0336,0.0,-0.1076,-0.1547,-0.2087,-0.2762,-0.2963,-0.3096,-0.3161,-0.3226,-0.3226,-0.3226,-0.3092,-0.3023,-0.3023,-0.2688,0.0,0.0,0.0,-0.2154,-0.2087,-0.2087,0.0,0.0,0.0,-0.1344,-0.1076,0.0,0.0,0.0,-0.1251,-0.0987,0.0,0.0,0.0,0.0,0.0,0.0,0.0,0.0,0.0,0.0,0.0,0.0,0.0,0.0,0.0,0.0,0.0986,-0.0647,-0.0979,-0.1364,-0.159,-0.174,-0.3631,-0.4977,-0.4949,-0.5153,-0.5526,-0.6132,-0.6282,-0.6252,-0.621,0.0,0.0,0.0,0.0,-0.527,-0.4633,-0.5068,-0.5048,-0.4701,-0.451,-0.445,-0.4447,-0.4279,-0.383,-0.3159,-0.3159,-0.2757,-0.2221,-0.2221,-0.2221,-0.2227,-0.2213,-0.2133,-0.1884,-0.0605,0.0269,0.0941,0.1817,0.0,0.0,0.2288,0.2288,0.2288,0.2288,0.2288,0.2153,0.1749,0.1681,0.1614,0.1277,0.1143,0.0941,0.0403,0.0269,0.0067,-0.047,-0.0605,-0.0605,-0.0672,-0.0672,-0.0874,-0.1344,-0.2154,-0.2762,-0.2831,-0.2969,-0.3107,-0.3107,-0.3115,-0.3121,-0.3121,0.0,0.0,-0.2644,-0.2369,-0.2232,-0.2232,-0.2157,-0.2087,-0.1884,-0.1884,-0.1684,-0.1351,-0.1284,-0.1218,-0.1086,-0.1113,-0.1128,-0.1131,-0.1131,-0.0787,0.0,0.0,0.0,0.0,0.0,0.0,0.0,0.0,0.0,0.0,0.0,0.0,0.0,0.0,0.0,0.11,-0.0223,-0.1355,-0.186,-0.2564,-0.3337,-0.4199,-0.4688,-0.5162,-0.5674,-0.6207,-0.6587,-0.674,-0.7198,-0.7227,-0.6525,-0.6521,-0.6286,-0.5946,-0.557,-0.5345,-0.5263,-0.4729,-0.4551,-0.4504,0.0,0.0,-0.3922,-0.3569,-0.3159,-0.282,-0.282,-0.2554,-0.2221,-0.2221,-0.2221,-0.2223,-0.2168,-0.1825,-0.1277,-0.1008,-0.0067,0.1076,0.1277,0.1882,0.2621,0.2621,0.2755,0.2958,0.2688,0.2621,0.0,0.2153,0.2087,0.2018,0.1614,0.121,0.0739,0.0403,-0.0,-0.047,-0.1008,-0.1143,-0.1277,-0.1749,-0.1884,-0.1884,-0.2018,-0.1817,-0.1749,-0.2288,-0.2402,-0.2365,-0.2365,-0.2411,-0.2443,-0.2443,-0.2443,-0.2372,-0.2372,-0.2255,-0.2228,-0.2228,-0.2044,-0.1951,-0.1884,-0.1614,-0.1427,-0.139,-0.1251,-0.1124,-0.1149,-0.1155,-0.117,-0.1194,-0.1194,-0.1123,0.0,0.0,0.0,0.0,0.0,0.0,0.0,0.0,0.0,0.0,0.0,0.5979,0.3442,0.0,0.1557,0.0075,-0.1069,-0.1932,-0.2425,-0.3321,-0.4124,-0.4628,-0.5168,-0.5553,-0.5864,-0.6637,-0.7065,-0.7203,-0.7572,-0.7567,-0.6944,-0.6937,-0.6637,-0.618,-0.5891,-0.5576,-0.5234,-0.4895,-0.4593,-0.4384,-0.3986,-0.3825,-0.3758,-0.336,-0.3023,-0.2686,-0.2686,-0.2487,-0.2221,-0.2221,-0.2154,-0.2018,-0.2018,-0.1817,-0.1412,-0.0941,-0.0067,0.1008,0.1478,0.2216,0.2956,0.2956,0.3092,0.3159,0.3023,0.2956,0.2889,0.2554,0.242,0.2354,0.2018,0.1681,0.1277,0.047,0.0336,-0.0,-0.1277,-0.1277,-0.1277,-0.2018,-0.2221,-0.2221,-0.2221,-0.1975,-0.1855,-0.213,-0.2225,-0.2186,-0.2215,-0.2244,-0.2335,-0.2335,-0.2335,-0.2335,-0.2335,-0.2163,-0.2075,-0.2075,-0.1908,-0.1753,-0.1683,-0.1471,-0.134,-0.1287,-0.1215,-0.1151,-0.1166,-0.1182,-0.1197,-0.1212,-0.1228,-0.1234,0.0,0.0,0.0,0.0,0.0,0.0,0.0,1.1017,0.9125,0.7691,0.6644,0.5154,0.2398,0.1681,0.0959,-0.0759,-0.1859,-0.251,-0.2741,-0.3805,-0.4528,-0.4441,-0.5303,-0.6015,-0.6247,-0.6942,-0.7499,-0.7729,-0.7934,-0.7906,-0.738,-0.7367,-0.7053,-0.6423,-0.6279,-0.5947,-0.5355,-0.5219,-0.4891,-0.4298,-0.3959,-0.3758,-0.3556,-0.3159,-0.2891,-0.2621,-0.2621,-0.242,-0.2221,-0.2221,-0.2087,-0.1884,-0.1884,-0.1884,-0.1681,-0.0941,-0.0,0.0941,0.1745,0.2552,0.3226,0.3226,0.3226,0.3226,0.3226,0.3226,0.3159,0.2889,0.282,0.2688,0.2354,0.222,0.1883,0.0739,0.0806,0.0604,-0.121,-0.121,-0.1076,-0.1951,-0.2154,-0.2225,-0.2169,-0.2211,-0.2174,-0.2174,-0.2194,-0.2224,-0.2345,-0.2362,-0.2369,-0.2369,-0.2369,-0.2291,-0.2281,-0.2131,-0.198,-0.197,-0.175,-0.1604,-0.1386,-0.1386,-0.1315,-0.1175,-0.1175,-0.1179,-0.1184,-0.1209,-0.1221,-0.1221,-0.1245,-0.1335,2.0614,1.8955,1.7213,1.6023,1.4137,1.2297,0.0,0.9446,0.7632,0.6718,0.5266,0.3425,0.1122,0.0451,-0.0303,-0.2023,-0.2663,-0.2904,-0.2588,-0.3927,-0.4785,-0.4473,-0.5325,-0.6325,-0.7476,-0.8003,-0.8376,-0.8519,-0.8903,-0.8802,-0.8028,-0.8009,-0.7826,-0.7372,-0.6898,-0.6498,-0.6284,-0.5749,-0.515,-0.4289,-0.3956,-0.3489,-0.282,-0.2488,-0.2288,-0.2288,-0.2288,-0.2221,-0.2221,-0.2221,-0.2087,-0.1884,-0.1884,-0.1681,-0.1344,-0.1277,-0.0269,0.1076,0.121,0.2083,0.3226,0.3226,0.3226,0.3226,0.3226,0.3226,0.3159,0.3159,0.3159,0.3092,0.2755,0.2283,0.1812,0.1277,0.0872,0.0335,-0.047,-0.0739,-0.1008,-0.1817,-0.2087,-0.2172,-0.2225,-0.217,-0.2174,-0.2174,-0.2334,-0.2402,-0.2409,-0.2458,-0.2491,-0.2491,-0.2491,-0.2393,-0.2118,-0.2113,-0.2018,-0.1753,-0.1531,-0.1459,-0.1386,-0.1312,-0.1179,-0.1206,-0.1206,-0.122,-0.1325,-0.1251,-0.1252,-0.1252,-0.1334,-0.1335,1.9876,1.8347,1.7059,1.5995,1.4246,1.2553,1.1776,1.0342,0.8677,0.6824,0.5698,0.4331,0.1917,0.0848,-0.0077,-0.133,-0.2302,-0.2777,-0.2777,-0.3465,-0.4194,-0.5099,-0.5571,-0.6275,-0.731,-0.7892,-0.8215,-0.8174,-0.8312,-0.8248,-0.7803,-0.7721,-0.7702,-0.7526,-0.6872,-0.628,-0.5745,-0.515,-0.442,-0.3625,-0.3288,-0.3021,-0.2686,-0.2354,-0.2154,-0.2018,-0.2018,-0.1951,-0.1884,-0.1884,-0.1748,-0.1547,-0.1547,-0.1412,-0.121,-0.1277,-0.0269,0.1076,0.1076,0.2016,0.3226,0.3226,0.3226,0.3226,0.3226,0.3226,0.3226,0.3226,0.3226,0.3159,0.3023,0.282,0.2485,0.1947,0.1946,0.161,-0.0,-0.0134,-0.0269,-0.148,-0.1841,-0.1936,-0.1889,-0.1942,-0.1982,-0.1982,-0.2241,-0.2432,-0.2467,-0.2495,-0.2511,-0.2511,-0.2431,-0.2266,-0.2167,-0.1935,-0.1773,-0.1678,-0.1448,-0.1372,-0.1372,-0.1296,-0.1225,-0.1238,-0.1239,-0.1245,-0.1335,-0.1335,-0.1335,-0.1335,-0.1335,-0.1021,1.931,1.7986,1.6928,1.5964,1.4441,1.2949,1.2282,1.0961,0.9275,0.7441,0.6313,0.5012,0.2898,0.1456,0.0308,-0.0775,-0.1812,-0.2601,-0.2814,-0.3054,-0.3776,-0.5042,-0.537,-0.5811,-0.6652,-0.7556,-0.8018,-0.7872,-0.7862,-0.7773,-0.7494,-0.7485,-0.7456,-0.733,-0.6811,-0.6148,-0.5411,-0.4885,-0.4154,-0.3224,-0.2887,-0.2686,-0.2485,-0.2153,-0.1951,-0.1817,-0.1817,-0.1748,-0.1614,-0.1614,-0.148,-0.1277,-0.1277,-0.121,-0.1143,-0.121,-0.0269,0.1076,0.1076,0.2016,0.3226,0.3226,0.3226,0.3226,0.3226,0.3226,0.3226,0.3226,0.3226,0.3226,0.3226,0.3226,0.3023,0.2348,0.2551,0.235,0.0269,0.0134,0.0067,-0.1277,-0.1582,-0.1687,-0.1699,-0.1766,-0.1823,-0.1835,-0.2065,-0.2308,-0.2349,-0.2354,-0.2354,-0.2354,-0.2198,-0.2119,-0.2041,-0.1728,-0.1572,-0.1493,-0.1415,-0.1335,-0.1335,-0.1335,-0.1335,-0.1335,-0.1335,-0.1335,-0.1335,-0.1335,-0.1335,-0.1257,-0.0864,-0.0392,1.9531,1.841,1.7148,1.6147,1.4611,1.3202,1.2402,1.0337,0.8602,0.8364,0.6497,0.4496,0.3403,0.1888,0.0441,-0.0903,-0.1744,-0.2276,-0.2421,-0.3178,-0.3672,-0.365,-0.4328,-0.4951,-0.5594,-0.7111,-0.8075,-0.807,-0.807,-0.7915,-0.7514,-0.7505,-0.7346,-0.6951,-0.6881,-0.6482,-0.5617,-0.5547,-0.4749,-0.3215,-0.3088,-0.2621,-0.1884,-0.1681,-0.1614,-0.1614,-0.1614,-0.1614,-0.1614,-0.1614,-0.148,-0.1277,-0.1277,-0.121,-0.1076,-0.1076,-0.0202,0.1076,0.1076,0.2016,0.3226,0.3226,0.3226,0.3226,0.3226,0.3226,0.3226,0.3226,0.3226,0.3226,0.3226,0.3226,0.3023,0.2348,0.2214,0.1812,0.0336,-0.0134,-0.047,-0.1143,-0.1513,-0.1697,-0.1668,-0.1788,-0.1834,-0.1878,-0.1885,-0.1885,-0.1886,-0.1887,-0.1887,-0.1887,-0.1887,-0.1808,-0.165,-0.1572,-0.1493,-0.1335,-0.1335,-0.1335,-0.1335,-0.1335,-0.1335,-0.1335,-0.1335,-0.1335,-0.1335,-0.1335,-0.1335,-0.1257,0.0078,0.0783,1.8983,1.835,1.7668,1.6597,1.5257,1.4091,1.3388,1.202,1.0504,0.9002,0.7785,0.6521,0.4856,0.3313,0.1851,0.0658,-0.0523,-0.1512,-0.212,-0.2478,-0.2866,-0.3513,-0.3846,-0.4215,-0.4951,-0.5811,-0.6604,-0.7125,-0.7204,-0.717,-0.7109,-0.7109,-0.7017,-0.6885,-0.6811,-0.6408,-0.5617,-0.5017,-0.4217,-0.3215,-0.2552,-0.2153,-0.1884,-0.1681,-0.1547,-0.1412,-0.1412,-0.1344,-0.1277,-0.1277,-0.121,-0.1143,-0.1143,-0.1143,-0.1076,-0.1078,-0.0134,0.1208,0.1142,0.2016,0.3226,0.3226,0.3226,0.3226,0.3226,0.3226,0.3226,0.3226,0.3226,0.3226,0.3226,0.3226,0.3159,0.2889,0.2551,0.1946,0.0941,0.0269,-0.0338,-0.1033,-0.1272,-0.1378,-0.134,-0.1451,-0.1479,-0.1492,-0.1729,-0.1887,-0.1887,-0.1887,-0.1887,-0.1887,-0.1807,-0.165,-0.1572,-0.1493,-0.1336,-0.1335,-0.1335,-0.1335,-0.1335,-0.1335,-0.1335,-0.1335,-0.1335,-0.1178,-0.0864,-0.0864,-0.0392,0.047,0.094,0.1567,1.9481,1.8955,1.8465,1.7501,1.6496,1.5441,1.4418,1.3332,1.2043,1.0311,0.897,0.7761,0.6386,0.4448,0.2719,0.18,0.0569,-0.0583,-0.1472,-0.1609,-0.1951,-0.2915,-0.3,-0.326,-0.3988,-0.4394,-0.4938,-0.5906,-0.597,-0.6,-0.6047,-0.6044,-0.6013,-0.5947,-0.5877,-0.5481,-0.4686,-0.4087,-0.342,-0.2482,-0.1949,-0.1681,-0.1614,-0.148,-0.1344,-0.121,-0.121,-0.121,-0.1076,-0.1077,-0.1077,-0.1077,-0.1077,-0.1077,-0.1077,-0.1078,-0.0134,0.1274,0.141,0.2283,0.3424,0.3424,0.3424,0.3424,0.3424,0.3424,0.3424,0.3424,0.3424,0.3424,0.3424,0.3424,0.3291,0.2684,0.2417,0.2018,0.0953,0.0341,-0.0138,-0.0565,-0.0944,-0.1189,-0.1209,-0.1237,-0.1335,-0.1335,-0.1493,-0.165,-0.165,-0.165,-0.165,-0.165,-0.1572,-0.1493,-0.1493,-0.1336,-0.1335,-0.1335,-0.1335,-0.11,-0.0549,-0.0864,-0.0864,-0.0549,-0.0314,-0.0,0.0314,0.047,0.094,0.1722,0.2349,0.3054,2.0806,2.024,1.9495,1.8858,1.8158,1.7166,1.5378,1.4178,1.3116,1.2104,1.0036,0.8304,0.7803,0.5373,0.3185,0.2367,0.1382,0.034,-0.063,-0.0756,-0.1104,-0.1889,-0.1958,-0.2162,-0.2891,-0.2881,-0.3272,-0.4348,0.0,-0.4677,-0.4495,-0.4478,-0.4411,-0.4287,-0.4287,-0.3887,-0.3023,-0.3023,-0.2418,-0.1344,-0.1277,-0.121,-0.1143,-0.1076,-0.1076,-0.1076,-0.1076,-0.1076,-0.1076,-0.1078,-0.1079,-0.1079,-0.1079,-0.1079,-0.1079,-0.1079,-0.0134,0.1206,0.1945,0.2885,0.3825,0.3825,0.3825,0.3825,0.3825,0.3825,0.3825,0.3825,0.3825,0.3825,0.3825,0.3825,0.342,0.181,0.1947,0.2032,0.0557,0.014,0.0141,0.0145,-0.0597,-0.1214,-0.1214,-0.1238,-0.1335,-0.1335,-0.1335,-0.1335,-0.1335,-0.1335,-0.1335,-0.1335,-0.1335,-0.1335,-0.1335,-0.1335,-0.1257,-0.1178,-0.1178,-0.0549,0.0784,-0.0,-0.0,0.0862,0.1567,0.1959,0.2038,0.2427,0.266,0.266,0.4229,0.5018,2.0603,2.0478,2.039,1.9925,1.8815,1.7775,1.7267,1.5555,1.374,1.2915,1.1414,0.9795,0.8425,0.6629,0.4942,0.3484,0.2364,0.1168,-0.0294,-0.0516,-0.0812,-0.1723,-0.1855,-0.187,-0.1962,-0.1961,-0.205,-0.2228,-0.343,-0.4212,-0.4364,-0.4199,-0.4082,-0.4082,-0.3949,-0.3747,-0.3549,-0.3019,-0.2351,-0.1547,-0.1345,-0.1277,-0.1277,-0.1145,-0.1078,-0.1078,-0.1078,-0.1078,-0.1078,-0.1079,-0.0944,-0.0674,-0.0674,-0.0674,-0.0674,-0.1012,-0.0134,0.1341,0.3098,0.377,0.3825,0.3825,0.3825,0.3825,0.3825,0.3825,0.3825,0.3825,0.3825,0.3825,0.3825,0.3825,0.3689,0.3286,0.2997,0.2631,0.23,0.1846,0.1307,0.0819,-0.0382,-0.1245,-0.1245,-0.1252,-0.1335,-0.1335,-0.1335,-0.1335,-0.1335,-0.1335,-0.1335,-0.1335,-0.1335,-0.1335,-0.1335,-0.1335,-0.0864,0.0235,0.047,0.0784,0.1173,0.1721,0.2035,0.2035,0.227,0.2978,0.424,0.4318,0.4392,0.4387,0.4781,0.5018,2.1439,2.1409,2.1286,2.0832,1.9825,1.8701,1.7873,1.6382,1.4791,1.3588,1.2308,1.0895,0.9218,0.7482,0.5821,0.4314,0.3197,0.2047,0.077,0.0357,-0.0145,-0.1114,-0.149,-0.1677,-0.1654,-0.1649,-0.1621,-0.1481,-0.237,-0.2966,-0.3091,-0.2996,-0.2948,-0.2948,-0.2815,-0.2748,-0.2679,-0.2217,-0.1817,-0.1347,-0.1279,-0.1212,-0.1212,-0.1146,-0.1012,-0.0809,0.0,-0.0809,-0.0877,-0.1012,-0.0944,-0.0742,-0.0404,-0.0067,0.0337,0.1346,0.1949,0.2417,0.4043,0.4442,0.4225,0.4095,0.4028,0.4028,0.4028,0.4028,0.4028,0.4028,0.4028,0.4028,0.4028,0.4028,0.3894,0.3553,0.3391,0.3316,0.3039,0.266,0.213,0.1446,0.0698,0.0078,0.0078,0.0078,0.0078,0.0078,0.0078,0.0078,0.0078,-0.0706,-0.1099,-0.0471,-0.0392,-0.0235,0.0078,0.0078,0.0392,0.1017,0.1644,0.227,0.2893,0.3524,0.3761,0.36,0.36,0.4075,0.5026,0.5026,0.5023,0.5018,0.5018,0.5018,2.2661,2.2488,2.2222,2.1684,2.0966,1.9901,1.8056,1.7001,1.5871,1.4174,1.2927,1.1642,1.0095,0.8171,0.6407,0.5104,0.4074,0.3051,0.2064,0.139,0.0755,-0.0217,-0.0874,-0.1371,-0.1616,-0.1572,-0.1545,-0.1539,-0.1533,-0.1515,-0.1483,-0.1584,-0.1539,-0.1539,-0.1544,-0.148,-0.1278,-0.1146,-0.1079,-0.1012,-0.1012,-0.1012,-0.1012,-0.1079,-0.0877,-0.0607,-0.0472,0.0,-0.0337,-0.0674,-0.0809,-0.0809,-0.0,0.0741,0.1617,0.4182,0.4517,0.3904,0.4782,0.4909,0.4764,0.4434,0.4367,0.4367,0.4367,0.4367,0.4367,0.4367,0.4367,0.4367,0.4367,0.4367,0.4167,0.3433,0.3652,0.3991,0.3397,0.3147,0.2972,0.2404,0.2345,0.2347,0.2347,0.2347,0.2347,0.2347,0.2347,0.2347,0.2347,0.047,-0.0392,0.0783,0.1018,0.133,0.1955,0.2189,0.2189,0.1798,0.266,0.3759,0.5015,0.5023,0.5026,0.5015,0.5015,0.5015,0.5018,0.5018,0.5018,0.5018,0.5018,0.5018,2.2872,2.3001,2.315,2.2544,2.1766,2.0952,2.0072,1.8044,1.6037,1.5126,1.3781,1.2319,1.0756,0.9361,0.7961,0.6314,0.5185,0.4001,0.2579,0.2142,0.1506,0.0217,-0.0146,-0.0577,-0.1124,-0.1162,-0.1199,-0.1173,-0.1145,-0.1264,-0.1545,-0.1492,-0.1367,-0.1171,-0.1198,-0.1146,-0.1146,-0.1079,-0.0944,-0.0607,-0.0607,-0.0607,-0.0607,-0.0944,-0.1079,-0.0944,-0.0337,0.0,0.0809,0.0742,0.0539,0.0337,0.168,0.2284,0.2487,0.3288,0.41,0.4782,0.5189,0.5113,0.4764,0.4764,0.4697,0.4697,0.4697,0.4697,0.4697,0.4697,0.4697,0.4697,0.4697,0.4697,0.4657,0.4486,0.4588,0.4704,0.4548,0.4576,0.4578,0.4457,0.447,0.4474,0.4474,0.4474,0.4474,0.4474,0.4474,0.4474,0.4474,0.2662,0.1408,0.172,0.219,0.2582,0.2738,0.3763,0.4472,0.4384,0.4545,0.4857,0.5243,0.5246,0.5246,0.5243,0.5243,0.5168,0.5018,0.5018,0.5018,0.5018,0.5018,0.5018,2.3436,2.3362,2.3296,2.2841,2.2041,2.107,2.0257,1.8388,1.6468,1.5242,1.411,1.28,1.12,0.9777,0.8422,0.7242,0.5698,0.4411,0.3616,0.2805,0.2089,0.15,0.0771,0.0212,-0.0137,-0.0736,-0.0983,-0.0776,-0.0628,-0.0745,-0.1323,-0.1073,-0.089,-0.0775,-0.0786,-0.0797,-0.0809,-0.1012,-0.1012,-0.0809,-0.0404,-0.0067,0.0337,0.0135,-0.0067,-0.027,0.0135,0.0,0.0876,0.1818,0.2087,0.1951,0.2684,0.3086,0.3422,0.4092,0.4498,0.47,0.5243,0.5302,0.5096,0.5096,0.4964,0.4831,0.4831,0.4831,0.4831,0.4831,0.4831,0.4846,0.4913,0.4928,0.4965,0.5029,0.5093,0.5208,0.5196,0.5237,0.5326,0.5326,0.5329,0.5335,0.5335,0.5335,0.5335,0.5335,0.5335,0.5335,0.5335,0.4462,0.3752,0.3521,0.3915,0.4151,0.4146,0.4859,0.5332,0.5326,0.5326,0.5326,0.5479,0.5479,0.5479,0.5479,0.5479,0.5404,0.5326,0.5326,0.5556,0.6018,0.5867,0.5786,2.3694,2.3666,2.3526,2.3112,2.2189,2.1193,2.0285,1.8675,1.691,1.5445,1.4378,1.3273,1.1855,1.032,0.9093,0.8298,0.6703,0.5335,0.4847,0.382,0.3008,0.2704,0.1806,0.1091,0.0801,-0.0065,-0.0574,-0.038,-0.0062,-0.0182,-0.0917,-0.0738,-0.0499,-0.0383,-0.0389,-0.033,-0.0135,-0.0472,-0.0674,-0.0742,-0.0202,0.0404,0.0944,0.1079,0.0944,0.0674,0.0943,0.0,0.0,0.2688,0.3293,0.3224,0.3351,0.3687,0.4092,0.5036,0.5033,0.4622,0.5226,0.5428,0.5428,0.5428,0.5163,0.4897,0.4897,0.4897,0.4897,0.4897,0.4897,0.4986,0.5092,0.5211,0.5205,0.5375,0.5451,0.5554,0.5554,0.5564,0.5637,0.5637,0.5637,0.5637,0.5637,0.5637,0.5637,0.5637,0.5637,0.5637,0.5637,0.5637,0.5482,0.5171,0.5332,0.541,0.5398,0.5479,0.5637,0.5637,0.5637,0.5637,0.5637,0.5637,0.5637,0.5637,0.5637,0.5637,0.5637,0.5792,0.6251,0.6865,0.6942,0.6861,2.3157,2.3822,2.452,2.3496,2.2673,2.1915,2.1135,1.9183,1.7269,1.6439,1.5083,1.3805,1.3006,1.201,1.0975,0.9879,0.9,0.7901,0.6208,0.5518,0.4726,0.3391,0.2966,0.2326,0.1096,0.0943,0.0611,-0.006,0.0461,0.0401,-0.0532,-0.073,-0.0618,-0.0062,-0.0065,0.0269,0.0944,0.0944,0.0742,0.0337,0.0404,0.0472,0.0539,0.0944,0.1079,0.1146,0.2421,0.0,0.0,0.3422,0.3556,0.3284,0.3954,0.422,0.4353,0.5093,0.5362,0.5296,0.5362,0.5428,0.5428,0.5428,0.5362,0.5362,0.5362,0.5362,0.5362,0.5362,0.5362,0.5365,0.5379,0.5484,0.5587,0.5641,0.5591,0.5619,0.5619,0.5628,0.5637,0.5637,0.5637,0.5637,0.5637,0.5637,0.5637,0.5637,0.5637,0.5637,0.5637,0.5637,0.5559,0.5559,0.5559,0.5559,0.5559,0.5559,0.5637,0.5637,0.5637,0.5712,0.5864,0.5864,0.5864,0.5864,0.5864,0.5789,0.5637,0.6405,0.6788,0.6942,0.7625,0.7927,2.3465,2.4022,2.4519,2.2929,2.2355,2.1929,2.0917,1.9358,1.792,1.7014,1.5985,1.4858,1.3606,1.2577,1.1725,1.0906,0.9436,0.8209,0.7546,0.6643,0.5659,0.46,0.425,0.3802,0.3252,0.2497,0.1949,0.1604,0.1409,0.1125,0.0742,0.0236,0.0061,0.0308,0.0321,0.0464,0.0741,0.1012,0.1012,0.0877,0.0877,0.1145,0.168,0.1883,0.2084,0.2418,0.3088,0.0,0.0,0.4084,0.435,0.4215,0.4954,0.5219,0.515,0.5418,0.5488,0.5488,0.5428,0.5561,0.569,0.5554,0.5624,0.5693,0.5428,0.5428,0.5425,0.5488,0.5488,0.5509,0.5606,0.5744,0.5908,0.6039,0.606,0.6028,0.6028,0.6028,0.6028,0.6028,0.6028,0.6028,0.6028,0.6028,0.6028,0.6028,0.6028,0.6028,0.6028,0.6028,0.6028,0.6028,0.5867,0.5789,0.5789,0.5948,0.6028,0.6028,0.6028,0.6025,0.6103,0.618,0.618,0.618,0.6637,0.6788,0.6714,0.7557,0.8241,0.8699,0.8917,0.8988,2.3489,2.3858,2.4163,2.2607,2.2086,2.1712,2.082,1.9599,1.8444,1.7545,1.6693,1.5692,1.4261,1.3205,1.2434,1.1922,1.0265,0.899,0.8776,0.7784,0.6781,0.5993,0.5518,0.5184,0.4906,0.365,0.2807,0.2802,0.2287,0.1895,0.1788,0.1327,0.0952,0.0669,0.0886,0.0978,0.0865,0.1275,0.155,0.1615,0.1615,0.2083,0.2883,0.2883,0.3015,0.3349,0.3751,0.0,0.0,0.4752,0.515,0.515,0.569,0.5822,0.5683,0.5683,0.5683,0.5686,0.5557,0.5693,0.5888,0.5752,0.5752,0.5826,0.5627,0.5561,0.5557,0.5686,0.5719,0.5794,0.5953,0.6053,0.6218,0.6451,0.649,0.649,0.6412,0.6412,0.6338,0.6338,0.6338,0.6338,0.6338,0.6338,0.6338,0.6412,0.6412,0.6412,0.649,0.6412,0.6412,0.6412,0.6177,0.6022,0.6022,0.618,0.6338,0.6338,0.6338,0.6412,0.6644,0.6644,0.6795,0.7026,0.7557,0.7863,0.7863,0.8627,0.9311,0.9922,0.9981,1.0051,2.3036,2.3258,2.3482,2.2929,2.2034,2.1281,2.1146,1.9961,1.8741,1.8108,1.712,1.6089,1.5073,1.419,1.3447,1.2968,1.1988,1.0926,0.9902,0.9099,0.8261,0.7357,0.6852,0.6221,0.535,0.3966,0.3121,0.3118,0.3063,0.0,0.2512,0.2477,0.1997,0.1002,0.1752,0.1998,0.1675,0.219,0.2621,0.288,0.288,0.3147,0.3678,0.3678,0.3678,0.3744,0.0,0.0,0.0,0.5554,0.5888,0.5888,0.5888,0.5888,0.5888,0.5888,0.5888,0.5888,0.5888,0.5888,0.5888,0.5888,0.5888,0.5888,0.5888,0.5888,0.5888,0.5888,0.6011,0.6248,0.6335,0.6499,0.6667,0.6824,0.6865,0.6865,0.6641,0.6563,0.6563,0.6338,0.6338,0.6338,0.6338,0.6338,0.6338,0.6563,0.6563,0.6637,0.6865,0.6714,0.6563,0.6563,0.6412,0.6261,0.6261,0.6261,0.6338,0.6338,0.6338,0.6644,0.7484,0.7484,0.7863,0.8627,0.8699,0.8699,0.8699,0.9463,0.9916,0.9916,1.0738,1.1111,2.2579,2.3114,2.367,2.2264,2.1888,2.1613,2.0763,2.001,1.9258,1.8383,1.7921,1.7286,1.592,1.5152,1.4538,1.405,1.2665,1.1556,1.1358,0.9918,0.8577,0.7811,0.6733,0.5972,0.569,0.5305,0.4944,0.4611,0.4718,0.4611,0.4174,0.3934,0.312,0.1699,0.1957,0.221,0.2513,0.2671,0.3015,0.3478,0.3478,0.3813,0.448,0.448,0.4749,0.0,0.0,0.0,0.0,0.6086,0.6218,0.6218,0.6218,0.6218,0.6083,0.6083,0.6083,0.6083,0.5954,0.6009,0.6121,0.611,0.6136,0.6125,0.6183,0.6086,0.5954,0.6083,0.621,0.6383,0.6481,0.6576,0.6667,0.6827,0.6865,0.6865,0.6788,0.6788,0.6788,0.6714,0.7173,0.7553,0.7553,0.7553,0.7553,0.7625,0.7169,0.6865,0.6861,0.6865,0.6788,0.6788,0.7246,0.7173,0.6338,0.6795,0.7099,0.7099,0.7787,0.8241,0.8546,0.8694,0.877,0.8927,0.9458,0.969,0.9539,1.0363,1.0738,1.0738,1.0962,1.1111,2.2511,2.2878,2.3187,2.1966,2.1695,2.1502,2.0675,2.017,1.9617,1.8717,1.85,1.8014,1.6527,1.5776,1.5242,1.4744,1.3358,1.2297,1.2267,1.0897,0.9526,0.8429,0.7272,0.648,0.6317,0.6268,0.6105,0.5823,0.5878,0.5714,0.5281,0.4995,0.4326,0.3191,0.3107,0.3244,0.3623,0.3769,0.4119,0.4662,0.4537,0.4838,0.5567,0.5625,0.5849,0.0,0.0,0.0,0.0,0.6548,0.6637,0.6638,0.6638,0.6634,0.6569,0.6569,0.6612,0.6671,0.6544,0.6488,0.6552,0.6677,0.666,0.6715,0.6772,0.6482,0.6086,0.6214,0.6459,0.667,0.671,0.6842,0.7044,0.7452,0.7553,0.7629,0.7851,0.7927,0.7927,0.7855,0.8232,0.8537,0.8537,0.8537,0.8613,0.8689,0.8232,0.7927,0.7999,0.8003,0.7927,0.7927,0.8309,0.8237,0.748,0.7859,0.8165,0.8165,0.877,0.9226,0.9523,0.9669,0.982,1.0051,1.0513,1.0663,1.0588,1.1111,1.1335,1.1335,1.126,1.1186,0.0,2.2515,2.2237,2.1986,2.1521,2.1086,2.0877,2.0426,0.0,1.9058,1.8869,1.8408,1.6954,1.6256,1.57,1.513,1.4029,1.313,1.2706,1.1864,1.0704,0.9183,0.8243,0.7563,0.7192,0.6858,0.6696,0.6696,0.6593,0.6322,0.5937,0.5823,0.5567,0.522,0.5148,0.5054,0.5005,0.5233,0.5693,0.6362,0.5998,0.6166,0.6801,0.6983,0.688,0.0,0.0,0.0,0.0,0.6924,0.7012,0.7091,0.7091,0.7082,0.7072,0.7086,0.7272,0.7502,0.7517,0.7324,0.7119,0.7357,0.7488,0.7497,0.7483,0.7046,0.6482,0.6482,0.6744,0.7095,0.7095,0.7364,0.7863,0.8623,0.8775,0.8927,0.9523,0.9593,0.9593,0.9372,0.9372,0.9448,0.9448,0.9448,0.9523,0.9674,0.9669,0.9669,0.9895,0.9744,0.9593,0.9593,0.9523,0.9448,0.9448,0.9372,0.9372,0.9372,0.9448,0.982,1.0565,1.064,1.0944,1.1706,1.1706,1.1706,1.1706,1.1706,1.1706,1.1706,1.1484,1.1409,2.2935,0.0,2.2432,2.236,2.184,2.1291,0.0,2.0681,2.0065,1.9236,1.9072,1.8831,1.7854,1.7063,1.6484,1.6312,1.4949,1.3758,1.3426,1.1499,0.9902,0.9079,0.8349,0.7883,0.7949,0.7717,0.7605,0.7605,0.745,0.7348,0.7235,0.7133,0.6998,0.6937,0.71,0.6716,0.5743,0.5831,0.61,0.6675,0.6619,0.6657,0.6796,0.6843,0.6801,0.0,0.0,0.0,0.7039,0.7039,0.707,0.7091,0.7091,0.6997,0.688,0.7035,0.7119,0.7248,0.7404,0.7388,0.7135,0.7017,0.7273,0.7621,0.7451,0.7322,0.7265,0.7265,0.7555,0.7938,0.8212,0.8602,0.8993,0.9523,0.9593,0.9669,0.982,0.982,0.982,0.9744,1.0276,1.0657,1.0657,1.0657,1.0657,1.0732,1.0196,0.982,0.9895,0.9895,0.982,0.982,1.0351,1.0657,1.0657,1.0421,1.019,1.019,1.0944,1.1477,1.1626,1.1774,1.1922,1.1929,1.1781,1.1706,1.1706,1.1706,1.1706,1.1706,1.1632,1.1632,2.3003,2.2651,2.2343,2.2388,2.1886,2.1355,2.1337,2.0942,2.0429,1.9874,1.9609,1.9281,1.8679,1.7774,1.7089,1.7047,1.572,1.4376,1.3637,1.1756,1.0261,0.9799,0.8922,0.8415,0.8374,0.8209,0.8143,0.8143,0.7996,0.7943,0.7943,0.7783,0.767,0.767,0.7749,0.7493,0.6861,0.6726,0.6909,0.7285,0.6998,0.689,0.7027,0.7075,0.7003,0.0,0.0,0.0,0.7191,0.7191,0.7194,0.724,0.74,0.737,0.7295,0.7511,0.7656,0.7761,0.7882,0.8035,0.8143,0.7843,0.8225,0.8686,0.8503,0.8432,0.8397,0.8069,0.841,0.8915,0.912,0.9467,0.997,1.0571,1.0726,1.0801,1.1168,1.1242,1.1242,1.1242,1.1626,1.1929,1.1929,1.1929,1.1929,1.1929,1.1552,1.1242,1.1242,1.1242,1.1242,1.1168,1.1552,1.1781,1.1632,1.1471,1.1316,1.1316,1.1848,1.215,1.215,1.2224,1.2231,1.215,1.2365,1.2365,1.2003,1.2365,1.2365,1.2003,1.1855,1.1855,2.3102,2.266,2.2254,2.2371,2.1928,2.1493,2.1584,2.1245,2.0828,2.0514,2.0139,1.9717,1.9207,1.8291,1.7598,1.7475,1.617,1.4755,1.3505,1.212,1.1074,1.0669,0.9718,0.9001,0.8732,0.8573,0.8527,0.8527,0.848,0.8427,0.8427,0.8302,0.8237,0.8237,0.8037,0.7991,0.8108,0.7701,0.7591,0.7835,0.7274,0.7118,0.7322,0.7417,0.7279,0.7002,0.0,0.0,0.7382,0.7323,0.7333,0.7415,0.7672,0.7725,0.7725,0.8116,0.8351,0.8542,0.8678,0.9081,0.9418,0.916,0.9587,1.0095,0.9829,0.9752,0.9624,0.8986,0.9297,0.9835,0.9904,1.0306,1.0944,1.17,1.1855,1.2077,1.2746,1.29,1.29,1.29,1.29,1.29,1.29,1.29,1.29,1.29,1.29,1.29,1.29,1.2973,1.2966,1.2673,1.2746,1.2673,1.2452,1.2519,1.2592,1.2592,1.2372,1.2378,1.2445,1.2586,1.2666,1.2666,1.3317,1.331,1.2666,1.3317,1.3317,1.2666,1.2512,1.2365,2.3518,2.3105,2.2712,2.2799,2.2563,2.2258,2.2051,2.179,2.1321,2.0431,2.0227,1.9899,1.8869,1.8422,1.7948,1.7352,1.5864,1.4376,1.3198,1.208,1.12,1.0761,0.9984,0.9458,0.9309,0.9159,0.9054,0.9054,0.9256,0.9406,0.9406,0.9547,0.9703,0.9703,0.9197,0.8969,0.901,0.7991,0.7509,0.7572,0.7469,0.7447,0.7467,0.7507,0.7469,0.7415,0.0,0.7427,0.7613,0.7448,0.7369,0.7399,0.7437,0.7375,0.7301,0.8201,0.8575,0.8675,0.9487,1.0021,1.0286,1.0065,1.0309,1.0657,1.0457,1.043,1.043,1.0307,1.0299,1.0384,1.0724,1.139,1.215,1.2599,1.2746,1.2746,1.29,1.29,1.29,1.29,1.29,1.29,1.29,1.29,1.29,1.29,1.29,1.29,1.29,1.347,1.3615,1.2893,1.3397,1.3542,1.2893,1.3397,1.3753,1.3753,1.2813,1.2592,1.3317,1.3882,1.4243,1.4243,1.4386,1.4386,1.4243,1.4386,1.4386,1.4243,1.4243,1.4171,2.3307,2.323,2.3102,2.2977,2.2581,2.2248,2.2354,2.2027,2.1584,2.1213,2.0781,2.0348,1.9879,1.9043,1.7974,1.6655,1.5656,1.4709,1.3884,1.3016,1.2335,1.199,1.1091,1.0328,0.9969,0.9614,0.9458,0.9614,0.9762,0.9969,1.021,1.0312,1.0312,1.0312,0.9969,0.9762,0.9762,0.8883,0.8262,0.7895,0.7949,0.8049,0.8096,0.8302,0.8402,0.8402,0.0,0.7961,0.8021,0.7643,0.7472,0.7489,0.7946,0.8179,0.8432,0.949,0.9871,0.9971,1.0358,1.0829,1.1183,1.1102,1.138,1.1692,1.1417,1.1245,1.1053,1.0869,1.09,1.1111,1.1472,1.2074,1.2834,1.344,1.355,1.355,1.355,1.355,1.3477,1.3266,1.3193,1.3193,1.3193,1.3542,1.3825,1.3825,1.4178,1.4394,1.4394,1.4681,1.4752,1.4322,1.4609,1.4609,1.4178,1.4458,1.4673,1.4673,1.4171,1.4019,1.4378,1.4736,1.4887,1.4752,1.518,1.5108,1.4601,1.5037,1.5037,1.4601,1.4601,1.4601,2.2988,2.307,2.3064,2.2706,2.2513,2.2456,2.2552,2.2271,2.1969,2.1853,2.1244,2.0665,2.0548,1.9251,1.772,1.6299,1.5656,1.5085,1.4419,1.3847,1.3351,1.2909,1.203,1.1283,1.072,1.0261,1.0115,1.0312,1.0423,1.0626,1.1032,1.1032,1.1032,1.0981,1.0677,1.0474,1.0482,0.9769,0.9152,0.8633,0.858,0.8685,0.8883,0.919,0.9287,0.9287,0.8837,0.8633,0.858,0.8096,0.7883,0.7955,0.8584,0.9171,0.9778,1.0639,1.1145,1.1329,1.1329,1.1648,1.2089,1.2089,1.2343,1.2565,1.2354,1.2075,1.172,1.1501,1.1731,1.2066,1.2086,1.2662,1.3434,1.4053,1.4201,1.4201,1.4201,1.4346,1.4338,1.4065,1.4057,1.4129,1.4129,1.4617,1.5029,1.5029,1.5455,1.5737,1.5737,1.5877,1.5886,1.5604,1.5745,1.5745,1.5587,1.5587,1.5658,1.5869,1.5587,1.5446,1.5446,1.5666,1.5675,1.5542,1.6044,1.5965,1.5242,1.5824,1.5824,1.5108,1.5108,1.5108,2.2818,2.2557,2.2314,2.1682,2.2599,2.3481,2.2685,2.2695,2.2652,2.1803,2.1118,2.0503,1.9893,1.8416,1.7227,1.6951,1.5996,1.504,1.4316,1.3967,1.3437,1.256,1.2365,1.211,1.1566,1.1366,1.1266,1.1316,1.1601,1.1769,1.1819,1.2175,1.2323,1.2175,1.1669,1.1368,1.1217,1.0482,1.0064,0.9858,0.9256,0.9204,0.971,0.9614,0.9562,0.9562,0.9406,0.9309,0.9309,0.9131,0.9072,0.9072,0.9152,0.9807,1.0766,1.0875,1.1516,1.2421,1.2421,1.2605,1.292,1.292,1.292,1.2981,1.2956,1.2855,1.2721,1.2696,1.3027,1.3223,1.261,1.3215,1.4134,1.4482,1.4569,1.4569,1.4569,1.4982,1.5392,1.5392,1.5745,1.6097,1.6097,1.6167,1.6167,1.6167,1.6079,1.6,1.6,1.6437,1.6515,1.5745,1.6376,1.6793,1.6793,1.6793,1.7079,1.7794,1.6802,1.6237,1.6237,1.6959,1.7323,1.7323,1.7392,1.7254,1.7019,1.7097,1.6959,1.676,1.676,1.676,2.2518,2.207,2.1542,2.1281,2.2136,2.2901,2.2334,2.2501,2.2746,2.2468,2.1915,2.1258,2.0473,1.8442,1.7081,1.7612,1.628,1.5142,1.5085,1.4892,1.4514,1.392,1.3351,1.2861,1.2511,1.2061,1.1864,1.2012,1.2039,1.2264,1.2627,1.2627,1.2578,1.2529,1.2274,1.2076,1.1927,1.1351,1.1141,1.1301,1.049,1.0241,1.0438,1.0744,1.0897,1.0897,1.0395,1.0138,1.0138,0.9658,0.9451,0.9524,1.0091,1.0762,1.1483,1.175,1.2266,1.283,1.283,1.3032,1.3338,1.3338,1.3519,1.3769,1.3769,1.3785,1.3752,1.3441,1.3718,1.4002,1.3865,1.4269,1.4916,1.5809,1.6026,1.6026,1.6026,1.6237,1.6306,1.6026,1.6167,1.6306,1.6306,1.6645,1.6991,1.6991,1.7345,1.756,1.756,1.7706,1.7638,1.7354,1.7569,1.7716,1.7579,1.7706,1.7852,1.8008,1.7588,1.7373,1.7373,1.7657,1.7735,1.7647,1.7657,1.752,1.7392,1.7245,1.7166,1.7107,1.6968,1.6908,2.2184,2.1811,2.1369,2.0902,2.1685,2.2335,2.1505,2.215,2.283,2.2574,2.2096,2.1348,2.0156,1.8475,1.7343,1.7598,1.6151,1.5142,1.5603,1.5412,1.5142,1.4926,1.4305,1.3742,1.3362,1.2957,1.2745,1.2948,1.2822,1.2929,1.3296,1.3017,1.2871,1.291,1.2676,1.2569,1.2559,1.2107,1.1968,1.2175,1.1569,1.1209,1.1158,1.1519,1.1728,1.1669,1.1167,1.0956,1.0905,1.0438,1.0233,1.0257,1.0858,1.1353,1.1822,1.2124,1.2543,1.298,1.298,1.3388,1.3855,1.3863,1.4231,1.4706,1.4706,1.4849,1.5015,1.4655,1.4903,1.5355,1.5581,1.5529,1.5696,1.6659,1.6995,1.7079,1.7079,1.7217,1.7285,1.7001,1.707,1.7198,1.7198,1.7619,1.7959,1.7959,1.8327,1.8617,1.8617,1.8472,1.8337,1.8337,1.8337,1.8279,1.8144,1.8269,1.8279,1.8144,1.8144,1.8076,1.8008,1.8008,1.794,1.7784,1.7784,1.7716,1.7529,1.7442,1.7304,1.7166,1.7038,1.6968,2.1732,2.1838,2.1919,2.0435,2.1256,2.1963,2.0183,2.1644,2.3076,2.1943,2.1362,2.0492,1.8674,1.8341,1.8026,1.6883,1.5599,1.4983,1.5691,1.5379,1.5142,1.5311,1.5085,1.4686,1.4067,1.414,1.4222,1.4222,1.4071,1.3967,1.3815,1.3392,1.321,1.342,1.2958,1.2852,1.3218,1.2754,1.2431,1.2274,1.2332,1.2175,1.1877,1.1778,1.1728,1.1728,1.1728,1.1728,1.1728,1.1728,1.1628,1.1477,1.1377,1.1507,1.1788,1.1788,1.2321,1.3029,1.3038,1.3781,1.4737,1.4697,1.5225,1.5796,1.5796,1.614,1.6482,1.6482,1.6832,1.7298,1.7777,1.7033,1.6296,1.6732,1.7148,1.7442,1.7442,1.792,1.8337,1.8337,1.8741,1.9075,1.9075,1.9075,1.9075,1.9075,1.8942,1.8808,1.8808,1.8617,1.8482,1.8482,1.8482,1.8482,1.8482,1.8482,1.8482,1.8482,1.8405,1.8202,1.8008,1.8008,1.8008,1.8008,1.8008,1.793,1.7706,1.7706,1.7501,1.7166,1.7166,1.7107,2.1685,2.0125,1.8423,1.8696,1.8483,1.8158,1.789,2.0874,2.3415,2.2458,2.0146,1.8654,1.9917,1.81,1.6788,1.7928,1.6834,1.5852,1.5944,1.5932,1.592,1.5864,1.5656,1.5522,1.5499,1.5197,1.5028,1.4994,1.4846,1.456,1.4118,1.4165,1.4071,1.3668,1.3873,1.3779,1.3314,1.3276,1.2997,1.2431,1.2803,1.2598,1.2026,1.1977,1.1977,1.1977,1.1877,1.1828,1.1828,1.1728,1.1678,1.1628,1.1628,1.1648,1.178,1.207,1.2744,1.358,1.3885,1.4639,1.5497,1.5439,1.5853,1.6312,1.6312,1.6606,1.6946,1.6678,1.6873,1.7146,1.7016,1.7162,1.7591,1.8449,1.8742,1.8931,1.9236,1.9253,1.9208,1.9208,1.9142,1.9075,1.9075,1.9075,1.9075,1.9075,1.9065,1.8942,1.8808,1.8741,1.8684,1.8549,1.8617,1.8684,1.8482,1.8607,1.8684,1.8482,1.8482,1.8347,1.8212,1.8076,1.8008,1.8008,1.8008,1.794,1.793,1.7784,1.7638,1.7569,1.7451,1.7323,2.0188,1.7976,1.5698,1.608,1.5206,1.404,1.3192,1.7214,2.0983,2.0394,1.8469,1.717,1.8205,1.7263,1.6571,1.7357,1.6905,1.6421,1.6398,1.6471,1.6502,1.6343,1.6213,1.6157,1.6305,1.594,1.572,1.5808,1.5599,1.5254,1.4801,1.4755,1.4663,1.4444,1.4468,1.4365,1.4154,1.38,1.3478,1.319,1.3266,1.3122,1.2832,1.2501,1.2403,1.2403,1.2501,1.2598,1.2559,1.2206,1.2049,1.2049,1.1999,1.1999,1.2036,1.2494,1.3138,1.3854,1.4291,1.5109,1.5997,1.6193,1.6662,1.7112,1.7112,1.7346,1.7523,1.7288,1.7356,1.7467,1.7042,1.7445,1.8165,1.8956,1.9277,1.9539,2.0009,2.0107,2.0042,1.9857,1.9781,1.977,1.9518,1.9518,1.9518,1.9518,1.9649,1.9835,1.9835,1.9584,1.9441,1.9518,1.9131,1.9008,1.9131,1.9264,1.9264,1.9131,1.9309,1.9243,1.8921,1.8405,1.8144,1.8144,1.8008,1.8008,1.8008,1.7862,1.792,1.8172,1.8046,1.8046,1.7562,1.5338,1.327,1.2764,1.1358,0.9386,0.6602,1.0793,1.5389,1.5815,1.5844,1.5532,1.4553,1.586,1.6769,1.5979,1.6273,1.6764,1.705,1.7053,1.6957,1.6824,1.6811,1.6815,1.6873,1.6519,1.6403,1.6676,1.6373,1.6008,1.5676,1.5299,1.5209,1.5389,1.4915,1.488,1.5311,1.4258,1.3894,1.4222,1.3742,1.3695,1.3978,1.3246,1.2909,1.2909,1.3409,1.3621,1.3563,1.2967,1.2706,1.2667,1.256,1.2511,1.257,1.3113,1.3569,1.3973,1.4427,1.531,1.6331,1.684,1.7512,1.8027,1.8073,1.8084,1.8084,1.8084,1.8084,1.7981,1.7565,1.776,1.8212,1.8689,1.9116,1.9599,2.0061,2.0632,2.0858,2.0355,2.0666,2.0794,2.0355,2.0226,2.0226,2.0226,2.0666,2.1049,2.1388,2.0858,2.059,2.106,2.0042,1.9528,2.0161,2.0161,2.0161,2.0161,2.0579,2.0579,1.9966,1.8988,1.8462,1.8269,1.8269,1.8134,1.8076,1.8134,1.8452,1.89,1.89,1.9156,1.481,1.1778,0.8877,0.9136,0.6275,0.2625,-0.0358,0.0104,0.2535,0.7351,0.9573,1.1052,1.2454,1.3544,1.4808,1.6504,1.6523,1.6671,1.7705,1.8034,1.7997,1.7612,1.8025,1.8271,1.8145,1.7908,1.7666,1.7489,1.7585,1.712,1.5976,1.6411,1.6367,1.5579,1.5844,1.5756,1.5311,1.5085,1.4709,0.0,1.449,1.4444,1.4129,1.3873,1.3684,1.3579,1.361,1.3621,1.3573,1.342,1.3362,1.3362,1.3362,1.3314,1.3402,1.3857,1.4338,1.4881,1.5324,1.591,1.6599,1.7149,1.7425,1.7611,1.7958,1.8084,1.8084,1.8084,1.8084,1.8061,1.8001,1.7972,1.8154,1.913,1.9784,2.0299,2.0789,2.1396,2.1791,2.1667,2.1542,2.1416,2.133,2.129,2.1302,2.1302,2.1365,2.1491,2.1565,2.1428,2.1302,2.1325,2.1071,2.088,2.0869,2.0869,2.0869,2.0869,2.0996,2.0985,2.0805,2.0344,1.9562,1.8337,1.9299,1.9497,1.8787,1.9375,1.9704,1.9835,1.9835,1.9814,1.1773,0.8172,0.4237,0.2374,-0.2085,-0.6437,-0.8014,-0.8612,-0.7851,-0.4302,0.27,0.8522,0.9574,1.3585,1.6788,1.6918,1.7985,1.8511,1.7724,1.8782,1.94,1.8777,1.925,1.9587,1.9513,1.8991,1.8688,1.8797,1.8569,1.809,1.7287,1.745,1.7175,1.6429,1.6423,1.6293,1.6126,1.5599,1.5389,1.5466,1.5209,1.504,1.496,1.4525,1.4294,1.4236,1.4444,1.449,1.449,1.4212,1.4071,1.4035,1.4035,1.3988,1.4031,1.4493,1.4818,1.518,1.5635,1.6169,1.6704,1.7209,1.7542,1.7794,1.8004,1.8084,1.8084,1.8084,1.8084,1.8081,1.8042,1.8172,1.8441,1.8927,1.9721,2.0532,2.1246,2.2127,2.2555,2.2043,2.2201,2.2299,2.1777,2.1933,2.2175,2.2445,2.2445,2.2506,2.2689,2.2421,2.2237,2.2445,2.1877,2.1565,2.1803,2.1741,2.1753,2.1753,2.1939,2.1939,2.1616,2.1741,2.1089,1.9552,2.0009,2.0074,1.9617,1.9966,2.0291,2.0549,2.0549,2.0741,0.8333,0.4679,0.0143,-0.4632,-0.9517,-1.343,-1.4413,-1.5148,-1.5114,-1.3243,-0.2511,0.6589,0.6724,1.3955,1.9379,1.7807,1.9719,2.0619,1.8353,1.986,2.0911,2.0045,2.0461,2.0767,2.0701,1.9913,1.9596,2.0028,1.9468,1.8979,1.8664,1.831,1.7906,1.7435,1.6921,1.6808,1.7118,1.6256,1.6083,1.671,1.5832,1.5591,1.5925,1.5311,1.4983,1.4892,1.5322,1.5513,1.5468,1.504,1.4801,1.4766,1.4766,1.472,1.4743,1.5096,1.5198,1.5165,1.5625,1.6051,1.655,1.7201,1.7728,1.8165,1.8352,1.8398,1.8398,1.8356,1.8302,1.8305,1.8279,1.8538,1.8875,1.8844,1.9639,2.0655,2.1601,2.2686,2.3225,2.2234,2.2745,2.3098,2.2209,2.2499,2.2992,2.345,2.3522,2.3641,2.3891,2.3412,2.322,2.3628,2.2689,2.2175,2.2725,2.2677,2.2567,2.2567,2.2884,2.2871,2.2298,2.2823,2.2494,2.1204,2.0899,2.0655,2.0462,2.0473,2.0752,2.1262,2.1262,2.16,0.4264,0.1521,-0.1983,-0.826,-0.9838,-1.1131,-1.6079,-1.7731,-1.6338,-0.9654,-0.2011,0.3874,0.5129,1.2179,1.8427,2.0297,2.0526,2.0794,2.1732,2.215,2.2013,2.1126,2.1524,2.1661,2.1098,2.0847,2.0605,2.0286,2.0333,1.9904,1.8829,1.897,1.875,1.7948,1.7828,1.7747,1.7585,1.7462,1.7201,1.6795,1.6207,1.6076,1.6392,1.6293,1.6001,1.557,1.5513,1.5513,1.5513,1.5412,1.5567,1.5896,1.5896,1.5876,1.5812,1.5856,1.5546,1.5119,1.5188,1.5428,1.5958,1.7195,1.786,1.8362,1.9306,1.9592,1.95,1.9303,1.921,1.9239,1.923,1.9168,1.9258,1.9687,2.0591,2.1417,2.1678,2.293,2.3826,2.3158,2.3106,2.3189,2.3067,2.3534,2.3923,2.3995,2.3995,2.3995,2.4054,2.3995,2.3936,2.3891,2.37,2.3569,2.3497,2.333,2.3271,2.3271,2.3138,2.3078,2.2944,2.3065,2.3005,2.2811,2.2641,2.2137,2.125,2.1839,2.2099,2.2061,2.2061,2.2123,0.0726,-0.1572,-0.4217,-0.9057,-1.0805,-1.2345,-1.6258,-1.5951,-1.3785,-1.0058,-0.1573,0.6229,0.9627,1.6681,2.1943,2.1746,2.2331,2.2518,2.1723,2.2597,2.3088,2.2461,2.2675,2.271,2.2331,2.1814,2.1483,2.1439,2.1134,2.078,2.0234,2.0066,1.9718,1.9133,1.8584,1.8366,1.8493,1.8001,1.7585,1.7297,1.6909,1.6824,1.6951,1.6892,1.6479,1.5748,1.5957,1.6076,1.6076,1.6076,1.6281,1.66,1.66,1.6557,1.6429,1.6429,1.6299,1.6027,1.6027,1.6335,1.6814,1.7422,1.8056,1.8706,1.927,1.9636,1.9798,1.985,1.9759,1.9708,2.0118,2.0028,2.0025,2.0644,2.18,2.2782,2.2882,2.353,2.4034,2.3772,2.3184,2.2949,2.3602,2.3942,2.4112,2.4112,2.4112,2.4112,2.4112,2.4112,2.4054,2.4008,2.4008,2.3995,2.3878,2.376,2.3713,2.3713,2.3509,2.333,2.3271,2.3271,2.321,2.3078,2.2969,2.2665,2.2099,2.2285,2.2297,2.2197,2.2197,2.2197,-0.134,-0.3497,-0.5577,-0.8445,-1.1106,-1.3242,-1.4099,-1.2883,-1.0593,-0.7212,0.0859,0.9003,1.4624,2.0699,2.4365,2.2847,2.3975,2.43,2.2209,2.3265,2.4106,2.3681,2.3741,2.3684,2.3365,2.2726,2.2346,2.2341,2.1907,2.1554,2.1309,2.0975,2.0603,2.0162,1.9411,1.9082,1.928,1.8419,1.8028,1.8133,1.7639,1.7435,1.7504,1.7449,1.6964,1.6207,1.6423,1.6565,1.6693,1.6565,1.6795,1.7201,1.7201,1.7146,1.705,1.705,1.6925,1.6786,1.6786,1.7123,1.7565,1.7808,1.8338,1.9037,1.9473,1.9827,2.0115,2.0395,2.0346,2.0308,2.0809,2.0809,2.0772,2.1277,2.2641,2.3886,2.4207,2.4137,2.4036,2.4081,2.3373,2.3097,2.4093,2.45,2.4593,2.4593,2.4593,2.4549,2.4332,2.4345,2.4287,2.4112,2.4112,2.4112,2.4112,2.4008,2.3891,2.3891,2.37,2.3509,2.3403,2.3403,2.333,2.3078,2.3017,2.2848,2.2739,2.2604,2.242,2.2247,2.2247,2.2247,-0.1005,-0.3241,-0.5381,-0.6571,-0.9961,-1.2084,-0.8594,-0.9392,-0.7823,0.2914,0.6745,1.0432,1.8029,2.1288,2.3106,2.387,2.4929,2.5488,2.5032,2.5125,2.5056,2.4579,2.4596,2.4393,2.3728,2.3637,2.3263,2.2459,2.2538,2.2241,2.134,2.1491,2.1321,2.0581,2.0481,2.0193,1.9788,1.8907,1.8769,1.9406,1.8185,1.7747,1.8066,1.8066,1.7747,1.7188,1.671,1.6765,1.7115,1.668,1.7018,1.776,1.776,1.772,1.7625,1.7625,1.7271,1.6786,1.6786,1.7021,1.7444,1.828,1.8777,1.9319,2.046,2.0818,2.0923,2.1247,2.1313,2.1326,2.1361,2.1375,2.1375,2.1375,2.2641,2.4124,2.527,2.459,2.3875,2.4055,2.3912,2.3975,2.4643,2.5483,2.6079,2.5903,2.5903,2.5645,2.5048,2.4948,2.4734,2.4171,2.4112,2.4112,2.4112,2.4008,2.3891,2.3891,2.37,2.3509,2.3403,2.3403,2.333,2.3078,2.3078,2.3017,2.2909,2.2848,2.2726,2.242,2.242,2.2309,0.0048,-0.1182,-0.3401,-0.7587,-0.9603,-1.0317,-0.9386,-0.8041,-0.4723,0.3322,0.8492,1.2946,1.7359,2.0894,2.3296,2.3714,2.4649,2.5204,2.4863,2.5055,2.5155,2.4955,2.479,2.4662,2.4544,2.4161,2.3744,2.339,0.0,2.272,2.2334,2.213,2.189,2.1655,2.1118,2.0649,2.0108,1.9773,1.9702,1.9929,1.9434,1.9251,1.9376,1.931,1.9133,1.8896,1.8143,1.7706,1.7557,1.738,1.772,1.8254,1.8254,1.8214,1.8214,1.8214,1.8095,1.7908,1.7908,1.7962,1.8123,1.8423,1.8755,1.9224,2.0269,2.0859,2.1355,2.202,2.2296,2.2342,2.2249,2.2296,2.258,2.3397,2.4326,2.5301,2.6132,2.5553,2.4949,2.5359,2.5085,2.5015,2.5586,2.5991,2.6187,2.6119,2.6065,2.5903,2.5659,2.5577,2.5425,2.5189,2.5189,2.5189,2.5189,2.5147,2.5147,2.5147,2.5077,2.4894,2.4681,2.4292,2.4015,2.378,2.3305,2.3017,2.2909,2.2909,2.2787,2.2616,2.2616,2.2494,0.0655,0.0344,-0.1055,-0.538,-0.7238,-0.7377,-0.5059,-0.2672,0.0819,0.7008,1.2162,1.6053,1.7612,2.0576,2.2905,2.3272,2.405,2.4638,2.4757,2.5055,2.5264,2.5232,2.51,2.4992,2.5005,2.4617,2.4234,2.3915,0.0,0.0,2.2923,2.2695,2.2502,2.233,2.1592,2.1101,2.0862,2.0416,2.0277,2.0447,2.0224,2.012,2.012,2.0019,1.9984,1.9914,1.9222,1.8674,1.8252,1.8068,1.8175,1.8517,1.8581,1.8581,1.8517,1.8517,1.8556,1.862,1.8517,1.8556,1.862,1.8517,1.8691,1.9111,1.995,2.077,2.1514,2.2323,2.276,2.3038,2.2934,2.2979,2.3319,2.4522,2.5153,2.5727,2.6713,2.6381,2.601,2.6442,2.6155,2.6025,2.6628,2.6834,2.6938,2.6886,2.6782,2.6611,2.6347,2.6201,2.6054,2.5837,2.5783,2.5783,2.5783,2.5783,2.5783,2.5783,2.5783,2.5673,2.5398,2.5007,2.4681,2.4408,2.3767,2.3365,2.3318,2.3078,2.2909,2.28,2.2739,2.2555,0.0,0.0,0.0,0.0261,-0.2772,-0.3357,0.479,0.6738,0.8546,1.4675,1.7778,1.9345,1.9102,2.036,2.1693,2.2513,2.316,2.3912,2.4901,2.5254,2.5449,2.5522,2.5615,2.5521,2.512,2.5126,2.4815,0.0,2.419,2.3912,2.2979,2.3165,2.3045,2.2512,2.1795,2.1622,2.1998,2.0846,2.0481,2.0893,2.0447,2.0243,2.0243,2.0243,2.0189,2.0135,1.9909,1.9609,1.9207,1.8577,1.8411,1.8556,1.8798,1.876,1.8517,1.8517,1.8697,1.8874,1.862,1.8697,1.8874,1.862,1.8697,1.9027,1.9728,2.056,2.1403,2.2024,2.273,2.329,2.3304,2.3319,2.3555,2.4551,2.4806,2.5273,2.6995,2.7037,2.6898,2.7107,2.6956,2.7025,2.772,2.8137,2.8332,2.8235,2.8186,2.791,2.7056,2.6953,2.664,2.5946,2.5837,2.5837,2.5837,2.5837,2.5837,2.5837,2.5837,2.5728,2.5453,2.5453,2.5287,2.5063,2.4452,2.4118,2.4118,2.3424,2.3017,2.2909,2.2739,2.2494,0.1314,0.0,0.0,0.0,0.0,0.0,0.4117,0.5018,0.7046,1.5217,1.5651,1.5269,1.7716,1.7754,1.7796,1.9048,2.1046,2.2783,2.38,2.4913,2.585,2.6504,2.712,2.7437,2.7331,2.6632,0.0,0.0,2.4911,2.4281,2.3735,2.3353,2.2993,2.266,2.2147,2.1965,2.2068,2.1493,2.123,2.1261,2.1119,2.1055,2.1007,2.1007,2.0974,2.0942,2.0563,2.0243,2.0015,1.9347,1.9101,1.9153,1.9228,1.9228,1.9153,1.9153,1.9191,1.9265,1.9191,1.9191,1.9265,1.9191,1.9191,1.9382,1.9996,2.0537,2.118,2.2293,2.2964,2.3401,2.3888,2.3839,2.3784,2.4322,2.482,2.528,2.5766,2.6581,2.7376,2.7951,2.7588,2.7454,2.8143,2.7948,2.7842,2.8271,2.8235,2.8122,2.786,2.7775,2.7575,2.7306,2.7255,2.7188,2.7086,2.7086,2.7086,2.7086,2.7086,2.7034,2.6841,2.6336,2.596,2.5783,2.5119,2.4738,2.4738,2.3649,2.3078,2.3017,2.28,2.2555,0.1572,0.2135,0.2334,0.1632,0.0,0.0,0.6935,0.8364,1.0539,1.6159,1.5986,1.5178,1.6272,1.5568,1.5436,1.7225,1.8655,2.0374,2.2754,2.4215,2.5388,2.6308,2.7133,2.7621,2.7608,2.7024,2.637,2.5749,2.5115,2.4535,2.4036,2.3598,2.3253,2.3035,2.2669,2.2429,2.2347,2.194,2.1751,2.1705,2.1493,2.1448,2.154,2.1371,2.1309,2.1277,2.0942,2.0745,2.0646,2.017,1.9762,1.9413,1.9508,1.9508,1.9413,1.9413,1.9472,1.953,1.945,1.9472,1.9545,1.945,1.9487,1.9641,1.9998,2.073,2.1599,2.2367,2.3127,2.381,2.421,2.4177,2.4051,2.4261,2.461,2.4979,2.5256,2.5949,2.6811,2.7796,2.7888,2.7934,2.8334,2.8088,2.795,2.835,2.8348,2.8235,2.8186,2.8137,2.8054,2.7905,2.784,2.779,2.7675,2.7625,2.7625,2.7625,2.7625,2.7524,2.7401,2.6945,2.663,2.6472,2.5756,2.5245,2.5007,2.4279,2.3872,2.3741,2.3305,2.2944,0.1625,0.3039,0.4435,0.4266,0.6195,0.0,1.1288,1.3902,1.6099,1.7262,1.7563,1.7058,1.5184,1.4239,1.4437,1.6619,1.687,1.8114,2.1972,2.3531,2.4672,2.5769,2.6598,2.7097,2.7097,2.6857,2.6265,2.5234,2.5019,2.4678,2.4037,2.3816,2.3646,2.3522,2.3182,2.2935,2.2756,2.2265,2.2068,2.2136,2.1675,2.1615,2.1899,2.1509,2.1325,2.1277,2.1151,2.1135,2.1119,2.0958,2.0342,1.9596,1.9803,1.9747,1.956,1.9523,1.9639,1.9839,1.9581,1.9639,1.9839,1.9581,1.9639,1.9874,1.9874,2.0904,2.2101,2.2255,2.3271,2.4302,2.4302,2.4302,2.4302,2.4302,2.4302,2.4471,2.5072,2.5318,2.5795,2.7042,2.7765,2.8227,2.8381,2.835,2.8319,2.8396,2.8411,2.8348,2.8235,2.8186,2.8137,2.8005,2.7905,2.779,2.779,2.7675,2.7625,2.7625,2.7625,2.7524,2.7452,2.7284,2.713,2.7003,2.634,2.5715,2.5189,2.5077,2.4881,2.4684,2.4021,2.3564,0.183,0.3139,0.4552,0.5406,0.7109,0.0,1.1595,1.334,1.5282,1.815,1.6887,1.5467,1.6155,1.5692,1.5532,1.658,1.9145,2.1398,2.2511,2.4194,2.5908,2.7503,2.8399,2.8896,2.8896,2.7561,2.6563,2.6236,2.5168,2.4403,2.4173,2.3878,2.3692,2.3667,2.3277,2.3052,2.3028,2.2456,2.2248,2.2422,2.201,2.184,2.1882,2.1708,2.1495,2.1309,2.1277,2.1277,2.1324,2.1293,2.0974,2.0512,2.041,2.0444,2.0478,2.022,2.022,2.0342,2.0185,2.015,2.0185,2.0131,2.015,2.0185,2.0185,2.0419,2.0936,2.1993,2.3271,2.4302,2.4302,2.4302,2.4302,2.4302,2.4302,2.4348,2.4471,2.5379,2.6257,2.6534,2.6688,2.7134,2.8211,2.795,2.778,2.8319,2.8411,2.8411,2.8348,2.8284,2.8137,2.8005,2.7905,2.774,2.7625,2.7625,2.7625,2.7625,2.7625,2.7575,2.7575,2.7321,2.7181,2.7181,2.6817,2.6568,2.6447,2.5467,2.4881,2.4684,2.4439,2.3975,0.1387,0.2765,0.4357,0.5408,0.7144,0.0,0.0,1.2676,1.3997,1.5554,1.4494,1.3365,1.3534,1.3241,1.3539,1.535,1.777,1.9929,2.1447,2.2288,2.3882,2.6941,2.6178,2.6082,2.7788,2.7044,2.6217,2.5653,2.4953,2.4441,2.421,2.4039,2.3919,2.3837,2.3646,2.344,2.3194,2.289,2.2764,2.2798,2.2303,2.2181,2.2337,2.1998,2.1781,2.1661,2.1661,2.1675,2.1705,2.1705,2.1584,2.137,2.0942,2.0795,2.0761,2.0494,2.0426,2.0494,2.0339,2.0304,2.0304,2.0304,2.0304,2.0304,2.0304,2.0782,2.1486,2.2501,2.3517,2.4302,2.4302,2.4302,2.4302,2.4302,2.4302,2.4302,2.4302,2.4856,2.5441,2.5795,2.5857,2.6395,2.8119,2.8119,2.8011,2.835,2.8411,2.8411,2.8411,2.8299,2.8186,2.8103,2.794,2.779,2.7725,2.7625,2.7625,2.7625,2.7625,2.7625,2.7625,2.7321,2.713,2.6974,2.6884,2.6779,2.6779,2.6204,2.5865,2.5728,2.5175,2.4711,0.0839,0.2347,0.4049,0.4931,0.6832,0.8927,0.0,0.0,0.0,1.2787,1.2627,1.2291,1.176,1.1629,1.2488,1.5076,1.6648,1.8334,2.0633,2.0085,0.0,2.5603,2.3313,2.27,2.611,2.6185,2.5646,2.4783,2.4716,2.461,2.4266,2.421,2.4154,2.4056,2.4016,2.3816,2.3437,2.3346,2.3271,2.3206,2.2669,2.2563,2.2764,2.232,2.2084,2.1998,2.1998,2.2027,2.2084,2.2084,2.2084,2.2027,2.1399,2.1071,2.0958,2.0662,2.0595,2.0628,2.0494,2.046,2.0494,2.0441,2.0407,2.0407,2.0407,2.1388,2.2605,2.3165,2.3832,2.4426,2.4426,2.4343,2.4302,2.4302,2.4302,2.4302,2.4385,2.4451,2.4671,2.5296,2.5469,2.6103,2.7904,2.8211,2.8258,2.8381,2.8288,2.8258,2.8381,2.8128,2.8,2.8137,2.794,2.774,2.774,2.7675,2.7625,2.7625,2.7625,2.7575,2.7575,2.7284,2.7041,2.6779,2.6779,2.6779,2.6779,2.6779,2.6779,2.6779,2.5974,2.5578,0.0785,0.2225,0.3811,0.4416,0.6455,0.8436,0.8736,0.0,1.231,1.323,0.0,1.4541,1.5918,0.0,0.0,1.8495,1.9996,2.1269,2.2157,1.972,1.9683,2.4581,2.2887,2.2611,2.5895,2.5681,2.5144,2.4727,2.4809,2.4756,2.4481,2.4303,2.4192,2.4173,2.4057,2.3958,2.3917,2.3522,2.3414,2.3628,2.3091,2.2807,2.279,2.2607,2.2337,2.1998,2.1998,2.213,2.2349,2.2349,2.2349,2.2293,2.1631,2.1448,2.1526,2.099,2.0958,2.1183,2.0991,2.1039,2.115,2.0844,2.0728,2.0728,2.0728,2.1929,2.3275,2.3372,2.4095,2.4823,2.4823,2.4574,2.4302,2.4302,2.4302,2.4385,2.4759,2.5015,2.5296,2.5764,2.6072,2.6534,2.7365,2.7503,2.7719,2.8319,2.7888,2.7734,2.8319,2.7634,2.7352,2.7944,2.779,2.7625,2.7625,2.7625,2.7625,2.7625,2.7625,2.7524,2.7452,2.7159,2.6951,2.6779,2.6779,2.6779,2.6779,2.6779,2.6779,2.6779,2.6394,2.6215,0.0672,0.2065,0.3453,0.4223,0.5964,0.7635,0.8456,0.9754,1.1215,1.2618,0.0,0.0,0.0,0.0,0.0,0.0,1.8646,1.9903,1.978,1.7963,1.8469,2.3382,0.0,0.0,2.5344,0.0,0.0,0.0,2.47,2.4704,2.4517,2.4411,2.4357,2.4357,2.4321,2.4229,2.4115,2.384,2.3774,2.3876,2.345,2.3224,2.32,2.2982,2.2773,2.2517,2.2436,2.248,2.2579,2.2579,2.2579,2.2525,2.2147,2.1945,2.184,2.1509,2.1401,2.1462,2.1276,2.1276,2.1276,2.115,2.1087,2.1087,2.1087,2.2181,2.3414,2.3414,2.4273,2.5237,2.5237,2.4942,2.4719,2.4942,2.4823,2.4759,2.516,2.536,2.5409,2.5345,2.5434,2.5748,2.6392,2.686,2.7279,2.7531,2.7373,2.7279,2.7531,2.6965,2.6778,2.7367,2.7267,2.727,2.7595,2.7625,2.7625,2.7625,2.7625,2.7473,2.7284,2.7196,2.7041,2.6779,2.6779,2.6779,2.6779,2.6779,2.6712,2.6645,2.682,2.6901,0.0503,0.1788,0.307,0.4012,0.5265,0.6563,0.7764,0.8678,0.9732,1.1472,1.1737,0.0,0.0,0.0,1.4762,1.5325,0.0,1.8184,1.7749,1.7104,1.821,2.2376,0.0,0.0,0.0,0.0,0.0,0.0,0.0,2.4645,2.4517,2.45,2.45,2.45,2.45,2.4429,2.4284,2.4115,2.4037,2.4056,2.3756,2.3628,2.3566,2.33,2.308,2.296,2.2773,2.2712,2.2712,2.2712,2.2712,2.2685,2.2542,2.2371,2.2169,2.1928,2.1794,2.1702,2.1615,2.1493,2.1432,2.1432,2.1432,2.1464,2.1691,2.2654,2.3752,2.3949,2.483,2.5652,2.5652,2.5351,2.5121,2.5427,2.5275,2.516,2.5577,2.5577,2.5465,2.5275,2.5121,2.5218,2.5727,2.6303,2.6799,2.7132,2.6904,2.6772,2.6961,2.6357,2.6138,2.6927,2.6859,2.6969,2.7565,2.7625,2.7625,2.7625,2.7575,2.7423,2.7233,2.7181,2.7041,2.6779,2.6779,2.6779,2.6779,2.6779,2.6712,2.6592,2.7078,2.7369,0.0,0.0,0.0,0.3697,0.0,0.0,0.0,0.0,0.7919,0.9695,1.0305,1.0998,1.289,1.3674,1.4394,1.5501,1.6574,0.0,0.0,1.7919,1.924,2.1742,2.34,0.0,0.0,2.4247,0.0,0.0,0.0,0.0,2.4517,2.45,2.45,2.45,2.45,2.45,2.45,2.4303,2.4192,2.4192,2.4037,2.3917,2.3774,2.3455,2.3212,2.3069,2.2807,2.2712,2.2712,2.2712,2.2712,2.2712,2.2685,2.2685,2.2615,2.2101,2.1969,2.2068,2.201,2.1882,2.1781,2.1781,2.1781,2.1913,2.264,2.3606,2.4596,2.5323,2.5782,2.6087,2.6087,2.5799,2.5503,2.5503,2.5503,2.5577,2.598,2.5762,2.5615,2.598,2.5762,2.5503,2.5497,2.5743,2.6297,2.7412,2.6627,2.6188,2.6898,2.5836,2.553,2.6881,2.6748,2.6856,2.7565,2.7625,2.7625,2.7625,2.7488,2.7335,2.7233,2.7107,2.6951,2.6779,2.6779,2.6779,2.6779,2.6779,2.6779,2.6794,2.7147,2.7555,0.0,0.0,0.2681,0.3527,0.0,0.0,0.0,0.0,0.0,0.0,0.939,1.0385,1.1436,1.2473,1.3283,1.3721,1.497,1.5967,0.0,1.7946,1.9492,2.0313,2.19,2.3406,0.0,0.0,0.0,0.0,2.4302,0.0,0.0,2.45,2.4532,2.4629,2.4551,2.4532,2.4629,2.4338,2.4284,2.4393,2.4229,2.4115,2.4039,2.3674,2.3392,2.323,2.306,2.285,2.2712,2.2893,2.2868,2.2712,2.2712,2.2816,2.2902,2.2561,2.2426,2.2426,2.2287,2.2248,2.2192,2.2152,2.2123,2.2185,2.2437,2.3452,2.4557,2.478,2.5679,2.6505,2.6505,2.621,2.5944,2.6245,2.6087,2.6016,2.6385,2.6385,2.6245,2.6139,2.598,2.5908,2.5908,2.5959,2.6167,2.6541,2.6243,2.595,2.5958,2.5628,2.5584,2.6151,2.654,2.6969,2.7565,2.7625,2.7625,2.7625,2.7575,2.7423,2.7233,2.7144,2.7041,2.6779,2.6779,2.6779,2.6779,2.6779,2.6712,2.6592,2.7078,2.7611,0.0894,0.1843,0.0,0.3302,0.3796,0.0,0.4567,0.0,0.6574,0.0,0.0,0.976,1.0721,1.1473,1.2121,1.2559,1.3893,1.5161,0.0,1.7922,1.9348,1.9832,2.1228,2.2693,2.4145,2.3762,0.0,0.0,0.0,0.0,0.0,0.0,2.4481,2.4613,2.4599,2.4599,2.4631,2.4461,2.4428,2.45,2.4375,2.4303,2.4303,2.3921,2.3674,2.3544,2.3312,2.3116,2.296,2.3052,2.2995,2.2842,2.2842,2.2944,2.3052,2.2764,2.2605,2.2569,2.246,2.2405,2.2377,2.2366,2.231,2.2361,2.2615,2.3528,2.4557,2.4814,2.5761,2.6691,2.6691,2.6505,2.6385,2.6657,2.6505,2.6385,2.6657,2.6691,2.6607,2.635,2.6315,2.6332,2.6262,2.6279,2.6279,2.6279,2.5994,2.5663,2.5384,2.5331,2.5463,2.5787,2.6356,2.6969,2.7565,2.7625,2.7575,2.7524,2.7539,2.7386,2.713,2.7144,2.7143,2.7113,2.6895,2.6895,2.7128,2.6895,2.6712,2.6606,2.7147,2.7668]},{"header":{"parameterUnit":"m.s-1","parameterCategory":1,"la1":30.6,"la2":29.2853,"lo1":-89.7004,"lo2":-87.6739,"dy":0.0162,"dx":0.0183,"nx":112,"ny":82,"refTime":"2023-05-19T12:00:00:Z","depth":0,"parameterNumber":3,"parameterNumberName":"V-component_of_WINDS"},"data":[0.0,0.0,0.0,0.0,0.0,0.0,0.0,0.0,0.0,0.0,0.0,0.0,0.0,0.0,0.0,0.0,0.0,0.0,0.0,0.0,0.0,0.0,0.0,0.0,0.0,0.0,0.0,0.0,0.0,0.0,0.0,0.0,0.0,0.0,0.0,0.0,0.0,0.0,0.0,0.0,0.0,0.0,0.0,0.0,0.0,0.0,0.0,0.0,0.0,0.0,0.0,0.0,0.0,0.0,0.0,0.0,0.0,0.0,0.0,0.0,0.0,0.0,0.0,0.0,0.0,0.0,0.0,0.0,0.0,0.0,0.0,0.0,0.0,0.0,0.0,0.0,0.0,0.0,0.0,0.0,0.0,0.0,0.0,0.0,0.0,0.0,0.0,0.0,0.0,0.0,-2.0101,-2.3141,-2.5855,-2.6959,-2.5813,-2.5854,-2.4906,-2.241,0.0,0.0,0.0,0.0,0.0,0.0,0.0,0.0,0.0,0.0,0.0,0.0,0.0,0.0,0.0,0.0,0.0,0.0,0.0,0.0,0.0,0.0,0.0,0.0,0.0,0.0,0.0,0.0,0.0,0.0,0.0,0.0,0.0,0.0,0.0,0.0,0.0,0.0,0.0,0.0,0.0,0.0,0.0,0.0,0.0,0.0,0.0,0.0,0.0,0.0,0.0,0.0,0.0,0.0,0.0,0.0,0.0,0.0,0.0,0.0,0.0,0.0,0.0,0.0,0.0,0.0,0.0,0.0,0.0,0.0,0.0,0.0,0.0,0.0,0.0,0.0,0.0,0.0,0.0,0.0,0.0,0.0,0.0,0.0,0.0,0.0,0.0,0.0,0.0,0.0,0.0,0.0,0.0,0.0,0.0,0.0,0.0,0.0,0.0,0.0,0.0,0.0,0.0,0.0,-1.9707,-2.3811,-2.6454,-2.7357,-2.5891,-2.6332,-2.5685,-2.3408,0.0,0.0,0.0,0.0,0.0,0.0,0.0,0.0,0.0,0.0,0.0,0.0,0.0,0.0,0.0,0.0,0.0,0.0,0.0,0.0,0.0,0.0,0.0,0.0,0.0,0.0,0.0,0.0,0.0,0.0,0.0,0.0,0.0,0.0,0.0,0.0,0.0,0.0,0.0,0.0,0.0,0.0,0.0,0.0,0.0,0.0,0.0,0.0,0.0,0.0,0.0,0.0,0.0,0.0,0.0,0.0,0.0,0.0,0.0,0.0,0.0,0.0,0.0,0.0,0.0,0.0,0.0,0.0,0.0,0.0,0.0,0.0,0.0,0.0,0.0,0.0,0.0,0.0,0.0,0.0,0.0,0.0,0.0,0.0,0.0,0.0,0.0,0.0,0.0,0.0,0.0,0.0,0.0,0.0,0.0,0.0,0.0,0.0,0.0,0.0,0.0,0.0,0.0,-2.1579,-2.3536,-2.5479,-2.728,-2.7795,-2.6473,-2.6349,-2.5725,-2.4204,-2.4246,0.0,0.0,0.0,0.0,0.0,0.0,0.0,0.0,0.0,0.0,0.0,0.0,0.0,0.0,0.0,0.0,0.0,0.0,0.0,0.0,0.0,0.0,0.0,0.0,0.0,0.0,0.0,0.0,0.0,0.0,0.0,0.0,0.0,0.0,0.0,0.0,0.0,0.0,0.0,0.0,0.0,0.0,0.0,0.0,0.0,0.0,0.0,0.0,0.0,0.0,0.0,0.0,0.0,0.0,0.0,0.0,0.0,0.0,0.0,0.0,0.0,0.0,0.0,0.0,0.0,0.0,0.0,0.0,0.0,0.0,0.0,0.0,0.0,0.0,0.0,0.0,0.0,0.0,0.0,0.0,0.0,0.0,0.0,0.0,0.0,0.0,0.0,0.0,0.0,0.0,0.0,0.0,0.0,0.0,0.0,0.0,0.0,0.0,0.0,0.0,0.0,0.0,-2.4759,-2.6686,-2.6709,-2.7646,-2.7926,-2.6993,-2.6639,-2.6066,-2.5153,-2.566,0.0,0.0,0.0,0.0,0.0,0.0,0.0,0.0,0.0,0.0,0.0,0.0,0.0,0.0,0.0,0.0,0.0,0.0,0.0,0.0,0.0,0.0,0.0,0.0,0.0,0.0,0.0,0.0,0.0,0.0,0.0,0.0,0.0,0.0,0.0,0.0,0.0,0.0,0.0,0.0,0.0,0.0,0.0,0.0,0.0,0.0,0.0,0.0,0.0,0.0,0.0,0.0,0.0,0.0,0.0,0.0,0.0,0.0,0.0,0.0,0.0,0.0,0.0,0.0,0.0,0.0,0.0,0.0,0.0,0.0,0.0,0.0,0.0,0.0,0.0,0.0,0.0,0.0,0.0,0.0,0.0,0.0,0.0,0.0,0.0,0.0,0.0,0.0,0.0,0.0,0.0,0.0,0.0,0.0,0.0,0.0,0.0,0.0,0.0,0.0,0.0,0.0,-2.4209,-2.6081,-2.639,-2.7114,-2.7485,-2.7267,-2.757,-2.742,-2.6607,-2.7057,0.0,0.0,0.0,0.0,0.0,0.0,0.0,0.0,0.0,0.0,0.0,0.0,0.0,0.0,0.0,0.0,0.0,0.0,0.0,0.0,0.0,0.0,0.0,0.0,0.0,0.0,0.0,0.0,0.0,0.0,0.0,0.0,0.0,0.0,0.0,0.0,0.0,0.0,0.0,0.0,0.0,0.0,0.0,0.0,0.0,0.0,0.0,0.0,0.0,0.0,0.0,0.0,0.0,0.0,0.0,0.0,0.0,0.0,0.0,0.0,0.0,0.0,0.0,0.0,0.0,0.0,0.0,0.0,0.0,0.0,0.0,0.0,0.0,0.0,0.0,0.0,0.0,0.0,0.0,0.0,0.0,0.0,0.0,0.0,0.0,0.0,0.0,0.0,0.0,0.0,0.0,0.0,0.0,0.0,0.0,0.0,0.0,0.0,0.0,0.0,0.0,0.0,-2.5386,-2.7175,-2.7708,-2.8083,-2.8321,-2.8293,-2.8037,-2.7754,-2.7395,0.0,0.0,0.0,0.0,0.0,0.0,0.0,0.0,0.0,0.0,0.0,0.0,0.0,0.0,0.0,0.0,0.0,0.0,0.0,0.0,0.0,0.0,0.0,0.0,0.0,0.0,0.0,0.0,0.0,0.0,0.0,0.0,0.0,0.0,0.0,0.0,0.0,0.0,0.0,0.0,0.0,0.0,0.0,0.0,0.0,0.0,0.0,0.0,0.0,0.0,0.0,0.0,0.0,0.0,0.0,0.0,0.0,0.0,0.0,0.0,0.0,0.0,0.0,0.0,0.0,0.0,0.0,0.0,0.0,0.0,0.0,0.0,0.0,0.0,0.0,0.0,0.0,0.0,0.0,0.0,0.0,0.0,0.0,0.0,0.0,0.0,0.0,0.0,0.0,0.0,0.0,0.0,0.0,0.0,0.0,0.0,0.0,0.0,0.0,0.0,0.0,0.0,-2.432,-2.6319,-2.791,-2.8505,-2.8663,-2.8752,-2.8882,-2.8623,-2.8379,-2.8243,0.0,0.0,0.0,0.0,0.0,0.0,0.0,0.0,0.0,0.0,0.0,0.0,0.0,0.0,0.0,0.0,0.0,0.0,0.0,0.0,0.0,0.0,0.0,0.0,0.0,0.0,0.0,0.0,0.0,0.0,0.0,0.0,0.0,0.0,0.0,0.0,0.0,0.0,0.0,0.0,0.0,0.0,0.0,0.0,0.0,0.0,0.0,0.0,0.0,0.0,0.0,0.0,0.0,0.0,0.0,0.0,0.0,0.0,0.0,0.0,0.0,0.0,0.0,0.0,0.0,0.0,0.0,0.0,0.0,0.0,0.0,0.0,0.0,0.0,0.0,0.0,0.0,0.0,0.0,0.0,0.0,0.0,0.0,0.0,0.0,0.0,0.0,0.0,0.0,0.0,0.0,0.0,0.0,0.0,0.0,0.0,0.0,0.0,0.0,0.0,0.0,0.0,-2.4958,-2.6721,-2.8076,-2.846,-2.8506,-2.862,-2.8898,-2.9342,-2.9495,0.0,0.0,0.0,0.0,0.0,0.0,0.0,0.0,0.0,0.0,0.0,0.0,0.0,0.0,0.0,0.0,0.0,0.0,0.0,0.0,0.0,0.0,0.0,0.0,0.0,0.0,0.0,0.0,0.0,0.0,0.0,0.0,0.0,0.0,0.0,0.0,0.0,0.0,0.0,0.0,0.0,0.0,0.0,0.0,0.0,0.0,0.0,0.0,0.0,0.0,0.0,0.0,0.0,0.0,0.0,0.0,0.0,0.0,0.0,0.0,0.0,0.0,0.0,0.0,0.0,0.0,0.0,0.0,0.0,0.0,0.0,0.0,0.0,0.0,0.0,0.0,0.0,0.0,0.0,0.0,0.0,0.0,0.0,0.0,0.0,0.0,0.0,0.0,0.0,0.0,0.0,0.0,0.0,0.0,0.0,0.0,0.0,0.0,0.0,0.0,0.0,0.0,0.0,-2.5683,-2.7482,-2.885,-2.9095,-2.9362,-2.9531,-2.9603,-2.9857,-2.9943,-2.9788,0.0,0.0,0.0,0.0,0.0,0.0,0.0,0.0,0.0,0.0,0.0,0.0,0.0,0.0,0.0,0.0,0.0,0.0,0.0,0.0,0.0,0.0,0.0,0.0,0.0,0.0,0.0,0.0,0.0,0.0,0.0,0.0,0.0,0.0,0.0,0.0,0.0,0.0,0.0,0.0,0.0,0.0,0.0,0.0,0.0,0.0,0.0,0.0,0.0,0.0,0.0,0.0,0.0,0.0,0.0,0.0,0.0,0.0,0.0,0.0,0.0,0.0,0.0,0.0,0.0,0.0,0.0,0.0,0.0,0.0,0.0,0.0,0.0,0.0,0.0,0.0,0.0,0.0,0.0,0.0,0.0,0.0,0.0,0.0,0.0,0.0,0.0,0.0,0.0,0.0,0.0,0.0,0.0,0.0,0.0,0.0,0.0,0.0,0.0,0.0,0.0,0.0,-2.6452,-2.824,-2.9549,-2.9676,-2.9886,-3.0034,-3.0104,-3.0242,-3.0322,-3.0285,0.0,0.0,0.0,0.0,0.0,0.0,0.0,0.0,0.0,0.0,0.0,0.0,0.0,0.0,0.0,0.0,0.0,0.0,0.0,0.0,0.0,0.0,0.0,0.0,0.0,0.0,0.0,0.0,0.0,0.0,0.0,0.0,0.0,0.0,0.0,0.0,0.0,0.0,0.0,0.0,0.0,0.0,0.0,0.0,0.0,0.0,0.0,0.0,0.0,0.0,0.0,0.0,0.0,0.0,0.0,0.0,0.0,0.0,0.0,0.0,0.0,0.0,0.0,0.0,0.0,0.0,0.0,0.0,0.0,0.0,0.0,0.0,0.0,0.0,0.0,0.0,0.0,0.0,0.0,0.0,0.0,0.0,0.0,0.0,0.0,0.0,0.0,0.0,0.0,0.0,0.0,0.0,0.0,0.0,0.0,0.0,0.0,0.0,0.0,0.0,0.0,0.0,-2.7191,-2.8931,-3.0142,-3.0147,-3.0185,-3.03,-3.0417,-3.0497,-3.0574,-3.0687,0.0,0.0,0.0,0.0,0.0,0.0,0.0,0.0,0.0,0.0,0.0,0.0,0.0,0.0,0.0,0.0,0.0,0.0,0.0,0.0,0.0,0.0,0.0,0.0,0.0,0.0,0.0,0.0,0.0,0.0,0.0,0.0,0.0,0.0,0.0,0.0,0.0,0.0,0.0,0.0,0.0,0.0,0.0,0.0,0.0,0.0,0.0,0.0,0.0,0.0,0.0,0.0,0.0,0.0,0.0,0.0,0.0,0.0,0.0,0.0,-2.671,0.0,0.0,0.0,0.0,0.0,0.0,0.0,0.0,0.0,0.0,0.0,0.0,0.0,0.0,0.0,0.0,0.0,0.0,0.0,0.0,0.0,0.0,0.0,0.0,0.0,0.0,0.0,0.0,0.0,0.0,0.0,0.0,0.0,0.0,0.0,0.0,0.0,0.0,0.0,0.0,0.0,-2.7399,-2.9126,-3.0356,-3.0409,-3.0521,-3.0588,-3.0633,-3.0692,-3.0734,-3.0701,-3.0156,0.0,0.0,0.0,0.0,0.0,0.0,0.0,0.0,0.0,0.0,0.0,0.0,0.0,0.0,0.0,0.0,0.0,0.0,0.0,0.0,0.0,0.0,0.0,0.0,0.0,0.0,0.0,0.0,0.0,0.0,0.0,0.0,0.0,0.0,0.0,0.0,0.0,0.0,0.0,0.0,0.0,0.0,0.0,0.0,0.0,0.0,0.0,0.0,0.0,0.0,0.0,0.0,0.0,0.0,0.0,0.0,0.0,0.0,0.0,0.0,-2.8282,0.0,0.0,0.0,0.0,0.0,0.0,0.0,0.0,0.0,0.0,0.0,0.0,0.0,0.0,0.0,0.0,0.0,0.0,0.0,0.0,0.0,0.0,0.0,0.0,0.0,0.0,0.0,0.0,0.0,0.0,0.0,0.0,0.0,0.0,0.0,0.0,0.0,0.0,0.0,0.0,-2.8249,-2.9621,-3.0568,-3.0588,-3.0685,-3.0746,-3.0696,-3.0757,-3.0762,-3.0697,-3.0368,0.0,0.0,0.0,0.0,0.0,0.0,0.0,0.0,0.0,0.0,0.0,0.0,0.0,0.0,0.0,0.0,0.0,0.0,0.0,0.0,0.0,0.0,0.0,0.0,0.0,0.0,0.0,0.0,0.0,0.0,0.0,0.0,0.0,0.0,0.0,0.0,0.0,0.0,0.0,0.0,0.0,0.0,0.0,0.0,0.0,0.0,0.0,0.0,0.0,0.0,0.0,0.0,0.0,-3.0169,-3.1486,-3.3393,-3.3164,-3.2878,-3.2443,-3.1072,-3.0456,-3.0424,-2.985,0.0,0.0,0.0,0.0,0.0,0.0,0.0,0.0,0.0,0.0,0.0,0.0,0.0,0.0,0.0,0.0,0.0,0.0,0.0,0.0,0.0,0.0,0.0,0.0,-2.9401,-2.9157,0.0,0.0,0.0,0.0,0.0,0.0,0.0,0.0,0.0,0.0,0.0,0.0,-2.9154,-3.0113,-3.0711,-3.071,-3.076,-3.0778,-3.0702,-3.0755,-3.0754,-3.0711,-3.0774,-3.0487,0.0,0.0,0.0,0.0,0.0,0.0,0.0,0.0,0.0,0.0,0.0,0.0,0.0,0.0,0.0,0.0,0.0,0.0,0.0,0.0,0.0,0.0,0.0,0.0,0.0,0.0,0.0,0.0,0.0,0.0,0.0,0.0,-2.2899,-2.3241,0.0,0.0,0.0,0.0,0.0,0.0,0.0,0.0,0.0,0.0,0.0,0.0,0.0,-3.0006,-3.0046,-3.0056,-3.012,-3.0292,-3.3275,-3.4925,-3.5292,-3.4313,-3.3992,-3.4175,-3.3955,0.0,-3.2269,-3.1262,0.0,0.0,0.0,0.0,0.0,0.0,0.0,0.0,0.0,0.0,0.0,0.0,0.0,0.0,0.0,0.0,0.0,0.0,0.0,0.0,0.0,0.0,-2.9748,-2.9712,-2.9782,-2.9796,0.0,-2.927,-2.8839,-2.8342,-2.8193,0.0,0.0,0.0,0.0,0.0,0.0,0.0,-2.9434,-3.0234,-3.0798,-3.0788,-3.0787,-3.0769,-3.0704,-3.0715,-3.0737,-3.0788,-3.0788,-3.0748,-3.0628,-3.075,0.0,0.0,0.0,0.0,0.0,0.0,0.0,0.0,0.0,0.0,0.0,0.0,0.0,0.0,0.0,0.0,0.0,0.0,0.0,0.0,0.0,0.0,0.0,0.0,0.0,0.0,0.0,0.0,0.0,-2.2169,-2.4563,-2.5803,-2.4411,-2.2802,0.0,0.0,0.0,0.0,0.0,0.0,0.0,0.0,0.0,-3.0021,-3.0356,-3.0509,-3.0509,-3.0502,-3.1525,-3.3572,-3.5068,-3.5807,-3.5842,-3.5262,-3.5107,-3.5288,-3.526,-3.4695,-3.3782,-3.3234,-3.2647,-3.2047,0.0,0.0,0.0,0.0,-3.1615,-3.1716,-3.1737,-3.1748,0.0,-3.0742,0.0,0.0,0.0,0.0,0.0,0.0,0.0,0.0,0.0,0.0,-3.0177,-3.0142,-3.0161,-3.0194,-3.0226,-3.0125,-2.9931,0.0,-2.9198,-2.8849,-2.8542,0.0,0.0,0.0,0.0,-2.962,-3.0158,-3.0565,-3.0804,-3.0807,-3.0768,-3.0711,-3.0649,-3.0651,-3.0664,-3.0696,-3.0722,-3.0737,-3.0736,-3.0784,-3.0799,0.0,0.0,0.0,0.0,0.0,0.0,0.0,0.0,0.0,0.0,0.0,0.0,0.0,0.0,0.0,0.0,0.0,0.0,0.0,0.0,0.0,0.0,0.0,0.0,0.0,0.0,0.0,0.0,-2.3065,-2.524,-2.7131,-2.6559,-2.5293,0.0,0.0,0.0,0.0,0.0,0.0,-3.0002,-3.081,-3.1293,-3.1284,-3.1707,-3.1942,-3.1977,-3.1953,-3.3271,-3.5909,-3.5938,-3.5947,-3.5958,-3.5861,-3.5705,-3.5571,-3.5745,-3.5405,-3.4686,-3.4581,-3.4033,-3.3237,-3.3223,-3.3225,-3.32,-3.3219,-3.3232,-3.3206,-3.2999,-3.2927,-3.281,-3.2169,0.0,-3.1739,-3.0877,0.0,0.0,0.0,0.0,-3.0548,-3.0346,-3.0405,-3.0519,-3.0462,-3.046,-3.046,-3.046,-3.053,-3.055,0.0,-2.9915,-2.9571,-2.9583,0.0,0.0,0.0,0.0,-3.0077,-3.0722,-3.0781,-3.0767,-3.0743,-3.0699,-3.0656,-3.0598,-3.0598,-3.0607,-3.0615,-3.068,-3.0704,-3.0717,-3.0759,-3.0799,-3.0799,0.0,0.0,0.0,0.0,0.0,0.0,0.0,0.0,0.0,0.0,0.0,0.0,0.0,0.0,0.0,0.0,0.0,0.0,0.0,0.0,0.0,0.0,0.0,0.0,0.0,0.0,0.0,0.0,0.0,-2.771,-2.6597,0.0,0.0,0.0,0.0,-2.7397,-2.9438,-3.0696,-3.0821,-3.2318,-3.3163,-3.3163,-3.4707,-3.5605,-3.5722,-3.5601,-3.5595,-3.5712,-3.5773,-3.5802,-3.5802,-3.5802,-3.5383,-3.4713,-3.555,-3.5439,-3.4704,-3.4684,-3.414,-3.3294,-3.3296,-3.3256,-3.3214,-3.3278,-3.3294,-3.319,-3.2424,-3.215,-3.214,-3.2104,-3.2005,-3.1754,-3.095,-3.0646,0.0,0.0,-3.0593,-3.0593,-3.0586,-3.0586,-3.0586,-3.0586,-3.0586,-3.0586,-3.0586,-3.0642,-3.0671,0.0,-3.0597,-3.0626,-3.0628,0.0,-3.0675,-3.0732,-3.0735,-3.0745,-3.0795,-3.0736,-3.0681,-3.0615,-3.0598,-3.0598,-3.0598,-3.0598,-3.0634,-3.0683,-3.069,-3.0724,-3.0794,-3.0799,-3.0799,-3.0799,-3.0799,0.0,0.0,0.0,0.0,0.0,0.0,0.0,0.0,0.0,0.0,0.0,0.0,0.0,0.0,0.0,0.0,0.0,0.0,0.0,0.0,0.0,0.0,0.0,0.0,0.0,0.0,0.0,0.0,-2.8449,-2.854,0.0,-2.9345,-2.9164,-2.9212,-2.9718,-3.1418,-3.2435,-3.2443,-3.2987,-3.3778,-3.4807,-3.5429,-3.576,-3.5818,-3.5764,-3.5718,-3.5698,-3.5771,-3.5791,-3.5811,-3.5831,-3.5408,-3.4627,-3.4973,-3.4332,-3.3107,-3.4183,-3.4786,-3.4921,-3.3808,-3.3689,-3.4105,-3.3564,-3.3361,-3.3324,-3.3035,-3.2943,-3.2848,-3.2274,-3.1698,-3.1141,-3.0852,-3.0747,-3.0739,-3.0724,-3.0724,-3.072,-3.0691,-3.0661,-3.065,-3.0607,-3.0593,-3.0593,-3.0593,-3.0646,-3.0697,-3.0665,-3.0711,-3.0787,-3.0819,-3.0855,-3.0847,-3.0806,-3.0792,-3.0773,-3.0742,-3.0687,-3.0626,-3.0607,-3.0598,-3.0598,-3.0598,-3.0606,-3.0613,-3.0626,-3.0678,-3.0716,-3.0734,-3.0774,-3.0799,-3.0799,-3.0808,-3.0793,0.0,0.0,0.0,0.0,0.0,0.0,0.0,0.0,0.0,0.0,0.0,0.0,0.0,0.0,0.0,0.0,0.0,0.0,0.0,0.0,0.0,0.0,0.0,0.0,0.0,-2.7835,-2.9075,-2.9752,-3.0443,-3.0869,-3.0936,-3.1065,-3.1168,-3.1228,-3.2284,-3.3026,-3.3258,-3.3554,-3.4065,-3.4833,-3.5414,-3.5704,-3.5695,-3.5715,-3.5704,-3.5704,-3.5452,-3.533,-3.531,-3.5074,-3.4495,-3.3735,-3.4057,-3.3399,-3.2186,-3.3293,-3.4304,-3.504,-3.4142,-3.3996,-3.4198,-3.3613,-3.3395,-3.3365,-3.3068,-3.2968,-3.2812,-3.1934,-3.1465,-3.1172,-3.0899,-3.0801,-3.0801,-3.0801,-3.0801,-3.0796,-3.0755,-3.0732,-3.0724,-3.0691,-3.0661,-3.0661,-3.0661,-3.073,-3.0771,-3.0771,-3.0803,-3.0847,-3.0897,-3.0888,-3.0847,-3.0817,-3.0752,-3.0714,-3.0675,-3.0636,-3.0598,-3.0598,-3.0588,-3.0597,-3.0597,-3.0621,-3.0634,-3.063,-3.0678,-3.0709,-3.0734,-3.0774,-3.0799,-3.0799,-3.0798,-3.0806,-3.0802,0.0,0.0,0.0,0.0,0.0,0.0,0.0,0.0,0.0,0.0,0.0,0.0,0.0,0.0,0.0,0.0,0.0,0.0,0.0,0.0,0.0,0.0,0.0,-2.8763,-2.9869,-3.0912,-3.1664,-3.2084,-3.2266,-3.205,-3.2274,-3.2288,-3.1981,-3.2026,-3.2421,-3.3193,-3.4061,-3.4154,-3.3304,-3.4833,-3.5676,-3.5697,-3.5657,-3.5626,-3.5646,-3.4775,-3.435,-3.4331,-3.3499,-3.2696,-3.2043,-3.2827,-3.2733,-3.2055,-3.2094,-3.2582,-3.3395,-3.4174,-3.4023,-3.3353,-3.333,-3.332,-3.3199,-3.235,-3.2051,-3.1914,-3.1075,-3.1368,-3.1895,-3.1053,-3.0799,-3.0799,-3.0801,-3.0801,-3.0801,-3.0801,-3.0801,-3.0801,-3.0801,-3.0801,-3.0801,-3.0801,-3.0841,-3.0899,-3.0899,-3.0909,-3.0896,-3.0898,-3.0847,-3.081,-3.08,-3.0684,0.0,-3.0607,-3.0607,-3.0607,-3.0607,-3.0604,-3.061,-3.061,-3.0649,-3.0711,-3.0697,-3.0703,-3.0734,-3.0799,-3.0799,-3.0799,-3.0804,-3.0806,-3.0804,-3.0794,0.0,0.0,0.0,0.0,0.0,0.0,0.0,0.0,0.0,0.0,0.0,0.0,0.0,0.0,0.0,0.0,0.0,0.0,0.0,0.0,0.0,-3.0071,-3.0751,-3.08,-3.1282,-3.1911,-3.2686,-3.2973,-3.3064,-3.2947,-3.2966,-3.2948,-3.2928,-3.3458,-3.3913,-3.4129,-3.4923,-3.5253,-3.5027,-3.4853,-3.5057,-3.5695,-3.4447,-3.4137,-3.4737,-3.3866,-3.346,-3.346,-3.3248,-3.274,-3.2011,-3.2234,-3.1876,-3.1213,-3.1836,-3.1875,-3.1544,-3.1758,-3.2093,-3.2374,-3.1749,-3.1504,-3.1472,-3.1233,-3.1165,-3.1116,-3.0882,-3.095,-3.1118,-3.0879,-3.0804,-3.0807,-3.0799,-3.0801,-3.0801,-3.0801,-3.0801,-3.0801,-3.0801,-3.0801,-3.0804,-3.0795,-3.0816,-3.0837,-3.082,-3.082,-3.082,-3.0832,-3.0804,-3.0794,-3.0794,-3.0761,0.0,-3.068,-3.068,-3.068,-3.068,-3.0668,-3.0676,-3.0676,-3.0691,-3.0691,-3.0703,-3.0739,-3.0774,-3.0799,-3.0799,-3.0789,-3.081,-3.0794,-3.0804,0.0,0.0,0.0,0.0,0.0,0.0,0.0,0.0,0.0,0.0,0.0,0.0,0.0,0.0,0.0,0.0,0.0,0.0,0.0,0.0,0.0,0.0,-3.1365,-3.2099,-3.2765,-3.2996,-3.3244,-3.369,-3.4114,-3.4232,-3.3845,-3.3716,-3.3674,-3.3693,-3.4113,-3.4519,-3.4858,-3.5353,-3.5308,-3.464,-3.4414,-3.424,-3.4079,-3.3409,-3.3332,-3.3847,-3.2977,-3.256,-3.2551,-3.2261,-3.1859,0.0,-3.1449,-3.1215,-3.0838,-3.1349,-3.1252,0.0,0.0,0.0,0.0,0.0,-3.08,-3.0804,-3.0807,-3.0794,-3.0802,-3.0802,-3.0793,-3.0804,-3.0798,-3.0802,-3.081,-3.0807,-3.0794,-3.0794,-3.0799,-3.0801,-3.0801,-3.081,-3.0792,-3.0795,-3.0801,-3.0801,-3.08,-3.0797,-3.0799,0.0,-3.0801,-3.0801,-3.0808,-3.0794,-3.0776,-3.0743,-3.0717,-3.069,-3.069,-3.069,-3.0704,-3.0691,-3.0691,-3.0722,0.0,0.0,0.0,-3.0804,-3.0808,-3.0808,0.0,0.0,0.0,-3.0791,-3.0801,0.0,0.0,0.0,-3.185,-3.2309,0.0,0.0,0.0,0.0,0.0,0.0,0.0,0.0,0.0,0.0,0.0,0.0,0.0,0.0,0.0,0.0,-3.227,-3.2943,-3.4517,-3.4719,-3.469,-3.4644,-3.5282,-3.5414,-3.4668,-3.448,-3.4403,-3.4339,-3.4312,-3.4576,-3.5218,0.0,0.0,0.0,0.0,-3.3277,-3.1951,-3.2458,-3.2797,-3.2928,-3.2087,-3.1661,-3.1642,-3.0936,-3.064,-3.0697,-3.0697,-3.0736,-3.0799,-3.0799,-3.0799,-3.0877,-3.1641,-3.149,-3.0802,-3.0795,-3.08,-3.0806,-3.0806,0.0,0.0,-3.0794,-3.0794,-3.0794,-3.0794,-3.0794,-3.0784,-3.081,-3.0794,-3.0798,-3.0794,-3.0799,-3.0806,-3.0798,-3.08,-3.0801,-3.0797,-3.0795,-3.0795,-3.0793,-3.0793,-3.0808,-3.0791,-3.0804,-3.0794,-3.0808,-3.0834,-3.0859,-3.0859,-3.0937,-3.0996,-3.0996,0.0,0.0,-3.1001,-3.0964,-3.0955,-3.0955,-3.0843,-3.0808,-3.0802,-3.0802,-3.0852,-3.0947,-3.095,-3.0992,-3.1094,-3.1875,-3.2304,-3.2383,-3.2383,-3.2803,0.0,0.0,0.0,0.0,0.0,0.0,0.0,0.0,0.0,0.0,0.0,0.0,0.0,0.0,0.0,-3.3615,-3.4081,-3.4485,-3.5498,-3.5552,-3.5468,-3.5475,-3.5611,-3.5604,-3.5328,-3.5199,-3.511,-3.5081,-3.499,-3.4745,-3.4366,-3.4347,-3.3915,-3.2885,-3.2415,-3.2374,-3.2764,-3.1641,-3.139,-3.2048,0.0,0.0,-3.0826,-3.0731,-3.0697,-3.0691,-3.0691,-3.0734,-3.0799,-3.0799,-3.0799,-3.0818,-3.0998,-3.0942,-3.0794,-3.0804,-3.0801,-3.0801,-3.0794,-3.0763,-3.0728,-3.0728,-3.0716,-3.0717,-3.0722,-3.0728,0.0,-3.0784,-3.0808,-3.0793,-3.0798,-3.0796,-3.0792,-3.0798,-3.0801,-3.0797,-3.0804,-3.0799,-3.0794,-3.081,-3.0802,-3.0802,-3.0793,-3.0806,-3.081,-3.0794,-3.1393,-3.1826,-3.1826,-3.245,-3.2878,-3.2878,-3.2878,-3.2883,-3.2883,-3.2245,-3.1856,-3.1856,-3.1183,-3.0798,-3.0802,-3.0798,-3.112,-3.1825,-3.185,-3.2187,-3.291,-3.3066,-3.3515,-3.4198,-3.4198,-3.4298,0.0,0.0,0.0,0.0,0.0,0.0,0.0,0.0,0.0,0.0,0.0,-2.9717,-3.1433,0.0,-3.2423,-3.4336,-3.4984,-3.5396,-3.5797,-3.6137,-3.6192,-3.5756,-3.5643,-3.5565,-3.5515,-3.5379,-3.5117,-3.463,-3.4511,-3.4132,-3.3387,-3.3349,-3.2991,-3.2166,-3.1783,-3.1621,-3.17,-3.0904,-3.0733,-3.1197,-3.0798,-3.0602,-3.061,-3.0676,-3.0691,-3.0703,-3.0703,-3.0739,-3.0799,-3.0799,-3.0804,-3.0793,-3.0793,-3.0806,-3.0807,-3.0806,-3.0801,-3.0804,-3.0765,-3.0721,-3.0698,-3.0698,-3.0704,-3.0697,-3.0691,-3.0698,-3.0704,-3.0734,-3.0745,-3.0769,-3.0793,-3.0794,-3.0794,-3.0797,-3.0799,-3.0801,-3.0794,-3.0794,-3.0794,-3.0793,-3.0799,-3.0799,-3.0799,-3.1168,-3.1449,-3.1451,-3.1817,-3.227,-3.2698,-3.3127,-3.3395,-3.3395,-3.3395,-3.3395,-3.3395,-3.2996,-3.2747,-3.2747,-3.2346,-3.2101,-3.2104,-3.2095,-3.2316,-3.2748,-3.2751,-3.2968,-3.3398,-3.3846,-3.4276,-3.4705,-3.5154,-3.5349,0.0,0.0,0.0,0.0,0.0,0.0,0.0,-2.8888,-2.9847,-3.1134,-3.1594,-3.2089,-3.3253,-3.3473,-3.3795,-3.4777,-3.5479,-3.5889,-3.5833,-3.6207,-3.6222,-3.5524,-3.5485,-3.547,-3.543,-3.53,-3.4907,-3.4156,-3.4029,-3.3574,-3.2613,-3.2556,-3.2145,-3.1221,-3.1211,-3.0957,-3.0371,-3.0375,-3.0449,-3.0578,-3.0585,-3.061,-3.0614,-3.0697,-3.0724,-3.0728,-3.0728,-3.0745,-3.0799,-3.0799,-3.0808,-3.0802,-3.0802,-3.0802,-3.0794,-3.0806,-3.0801,-3.0786,-3.0732,-3.0714,-3.069,-3.069,-3.069,-3.069,-3.069,-3.069,-3.0697,-3.0704,-3.0691,-3.0722,-3.0769,-3.0779,-3.0782,-3.0792,-3.079,-3.0775,-3.0796,-3.0796,-3.0801,-3.0798,-3.0804,-3.0857,-3.1018,-3.1622,-3.2094,-3.2094,-3.2387,-3.2835,-3.3531,-3.3785,-3.3882,-3.3882,-3.3882,-3.3829,-3.3673,-3.3643,-3.3574,-3.3399,-3.3392,-3.3399,-3.3409,-3.3409,-3.347,-3.3651,-3.3651,-3.3749,-3.3905,-3.4608,-3.4959,-3.4979,-3.5662,-3.5991,-2.2595,-2.383,-2.5046,-2.5893,-2.7013,-2.8282,0.0,-3.0423,-3.1189,-3.2297,-3.2783,-3.3281,-3.4259,-3.4431,-3.4725,-3.5626,-3.5839,-3.5898,-3.5883,-3.5152,-3.4592,-3.4555,-3.5106,-3.5416,-3.5171,-3.5015,-3.4887,-3.4813,-3.4737,-3.4036,-3.25,-3.2424,-3.1684,-3.0127,-3.0179,-3.0247,-3.0213,-3.0279,-3.0367,-3.052,-3.0565,-3.0622,-3.0691,-3.0759,-3.0794,-3.0794,-3.0794,-3.0799,-3.0799,-3.0799,-3.0808,-3.0802,-3.0802,-3.0794,-3.0791,-3.0794,-3.08,-3.0801,-3.0796,-3.075,-3.069,-3.069,-3.069,-3.069,-3.069,-3.069,-3.0697,-3.0697,-3.0697,-3.0704,-3.0716,-3.0716,-3.0728,-3.0794,-3.0749,-3.0721,-3.0797,-3.0792,-3.0804,-3.0806,-3.0808,-3.1057,-3.1817,-3.2036,-3.2094,-3.2094,-3.3375,-3.435,-3.4447,-3.5148,-3.5616,-3.5616,-3.5616,-3.5329,-3.4623,-3.4545,-3.4218,-3.345,-3.3402,-3.3406,-3.3409,-3.3392,-3.3768,-3.4549,-3.4549,-3.494,-3.5718,-3.5818,-3.5857,-3.5857,-3.5952,-3.5991,-2.3478,-2.457,-2.541,-2.623,-2.766,-2.9044,-2.9704,-3.0687,-3.1827,-3.3172,-3.3602,-3.4042,-3.5104,-3.5322,-3.5488,-3.5835,-3.6333,-3.63,-3.5281,-3.5181,-3.4787,-3.3619,-3.3742,-3.3857,-3.3669,-3.3517,-3.3258,-3.2785,-3.273,-3.2182,-3.1006,-3.0966,-3.0608,-2.9907,-3.0064,-3.0194,-3.026,-3.0367,-3.0482,-3.0626,-3.0644,-3.0672,-3.0703,-3.0769,-3.0804,-3.0793,-3.0793,-3.0798,-3.0802,-3.0802,-3.079,-3.0801,-3.0801,-3.0807,-3.0796,-3.0794,-3.08,-3.0801,-3.0801,-3.0754,-3.069,-3.069,-3.069,-3.069,-3.069,-3.069,-3.069,-3.069,-3.069,-3.0697,-3.0691,-3.0691,-3.072,-3.0739,-3.072,-3.0719,-3.0781,-3.08,-3.08,-3.0804,-3.1215,-3.166,-3.2034,-3.2931,-3.3613,-3.3613,-3.4184,-3.4778,-3.5285,-3.5675,-3.5908,-3.5908,-3.5894,-3.5768,-3.5422,-3.5435,-3.5307,-3.494,-3.4911,-3.4914,-3.4914,-3.4917,-3.5076,-3.5447,-3.5467,-3.5642,-3.5991,-3.5991,-3.5991,-3.5991,-3.5991,-3.5982,-2.3846,-2.4642,-2.5216,-2.6569,-2.7889,-2.9084,-2.9836,-3.0741,-3.182,-3.322,-3.3651,-3.4047,-3.488,-3.5106,-3.5252,-3.5499,-3.6087,-3.6059,-3.4789,-3.4906,-3.4481,-3.2759,-3.2093,-3.1738,-3.1632,-3.2091,-3.216,-3.1572,-3.1535,-3.1174,-3.0338,-3.03,-3.0186,-2.9956,-3.0098,-3.0221,-3.0302,-3.0411,-3.0519,-3.0671,-3.0685,-3.0703,-3.072,-3.0784,-3.0798,-3.0806,-3.0806,-3.079,-3.0798,-3.0798,-3.0804,-3.0794,-3.0794,-3.0796,-3.0799,-3.0796,-3.08,-3.0801,-3.0801,-3.0754,-3.069,-3.069,-3.069,-3.069,-3.069,-3.069,-3.069,-3.069,-3.069,-3.069,-3.069,-3.069,-3.0691,-3.0691,-3.0695,-3.0711,-3.078,-3.08,-3.0801,-3.0794,-3.1503,-3.2182,-3.2416,-3.3704,-3.4776,-3.501,-3.5017,-3.5217,-3.5841,-3.5919,-3.5919,-3.5919,-3.5929,-3.5934,-3.5938,-3.5974,-3.6001,-3.6004,-3.6007,-3.5991,-3.5991,-3.5991,-3.5991,-3.5991,-3.5991,-3.5991,-3.5991,-3.5991,-3.5991,-3.5994,-3.5986,-3.5955,-2.3588,-2.3884,-2.4377,-2.7006,-2.7624,-2.8152,-3.0505,-3.0895,-3.1017,-3.2052,-3.2661,-3.3035,-3.3068,-3.3247,-3.3669,-3.45,-3.4722,-3.473,-3.4622,-3.3777,-3.2862,-3.2039,-3.0318,-2.9193,-2.9116,-3.1112,-3.2387,-3.2368,-3.2368,-3.2045,-3.1298,-3.126,-3.0896,-3.0106,-3.0102,-3.0171,-3.0304,-3.0297,-3.0413,-3.0593,-3.0665,-3.0728,-3.0802,-3.0794,-3.0798,-3.0798,-3.0798,-3.0798,-3.0798,-3.0798,-3.0804,-3.0794,-3.0794,-3.0796,-3.0801,-3.0801,-3.08,-3.0801,-3.0801,-3.0754,-3.069,-3.069,-3.069,-3.069,-3.069,-3.069,-3.069,-3.069,-3.069,-3.069,-3.069,-3.069,-3.0691,-3.0691,-3.0701,-3.0728,-3.0799,-3.08,-3.0797,-3.0799,-3.1507,-3.2377,-3.322,-3.4113,-3.4991,-3.583,-3.5966,-3.5966,-3.5986,-3.6005,-3.6005,-3.6005,-3.6005,-3.6009,-3.5997,-3.6001,-3.6004,-3.5991,-3.5991,-3.5991,-3.5991,-3.5991,-3.5991,-3.5991,-3.5991,-3.5991,-3.5991,-3.5991,-3.5991,-3.5994,-3.5937,-3.589,-2.3028,-2.3807,-2.4655,-2.6178,-2.7384,-2.8417,-2.9378,-3.0321,-3.1168,-3.1919,-3.1815,-3.1699,-3.2017,-3.2193,-3.2604,-3.3529,-3.4215,-3.4635,-3.4662,-3.4364,-3.3608,-3.2074,-3.1327,-3.0472,-2.9193,-2.9213,-2.9484,-2.9965,-3.0007,-3.0155,-3.0491,-3.0491,-3.0392,-3.0122,-3.0098,-3.0147,-3.0304,-3.0389,-3.0491,-3.0593,-3.0714,-3.0784,-3.0802,-3.0794,-3.0801,-3.0807,-3.0807,-3.0791,-3.0794,-3.0794,-3.0796,-3.0799,-3.0799,-3.0799,-3.0801,-3.086,-3.08,-3.0738,-3.078,-3.0754,-3.069,-3.069,-3.069,-3.069,-3.069,-3.069,-3.069,-3.069,-3.069,-3.069,-3.069,-3.069,-3.0697,-3.0704,-3.0695,-3.072,-3.0786,-3.08,-3.0975,-3.1546,-3.2377,-3.3233,-3.4114,-3.4989,-3.5653,-3.5965,-3.5994,-3.6005,-3.6005,-3.6005,-3.6005,-3.6005,-3.599,-3.5997,-3.6001,-3.6004,-3.601,-3.5991,-3.5991,-3.5991,-3.5991,-3.5991,-3.5991,-3.5991,-3.5991,-3.5996,-3.6005,-3.6005,-3.5974,-3.5934,-3.5906,-3.5884,-2.2609,-2.3303,-2.4064,-2.5583,-2.6656,-2.7572,-2.845,-2.9254,-2.9997,-3.0594,-3.0281,-3.0009,-3.0371,-3.0675,-3.1073,-3.1707,-3.2612,-3.3374,-3.3718,-3.3496,-3.3087,-3.2506,-3.189,-3.102,-2.9793,-2.855,-2.8005,-2.8396,-2.9021,-2.9493,-2.9723,-3.0043,-3.0228,-3.0241,-3.0235,-3.0309,-3.0442,-3.0528,-3.061,-3.0681,-3.0759,-3.0794,-3.0798,-3.0804,-3.0791,-3.0796,-3.0796,-3.0796,-3.0801,-3.0841,-3.0841,-3.0841,-3.0841,-3.0841,-3.0841,-3.088,-3.082,-3.0716,-3.0749,-3.0716,-3.0649,-3.0649,-3.0649,-3.0649,-3.0649,-3.0649,-3.0649,-3.0649,-3.0649,-3.0649,-3.0649,-3.0649,-3.0664,-3.0684,-3.0706,-3.0793,-3.1177,-3.1268,-3.1523,-3.2397,-3.3268,-3.4042,-3.4608,-3.5428,-3.5991,-3.5991,-3.6004,-3.5997,-3.5997,-3.5997,-3.5997,-3.5997,-3.6001,-3.6004,-3.6004,-3.601,-3.5991,-3.5991,-3.5991,-3.5999,-3.5972,-3.5986,-3.5986,-3.5953,-3.5956,-3.5957,-3.5956,-3.5934,-3.5906,-3.5857,-3.5841,-3.5807,-2.2312,-2.2381,-2.2725,-2.5139,-2.5457,-2.5691,-2.7742,-2.7826,-2.7653,-2.8174,-2.8147,-2.8034,-2.8137,-2.8641,-2.9084,-2.926,-3.0144,-3.1131,-3.2084,-3.1514,-3.1602,-3.3267,-3.201,-3.0921,-3.0724,-2.9253,-2.817,-2.7846,0.0,-2.995,-2.9207,-2.996,-3.0424,-3.0501,-3.0501,-3.0554,-3.0691,-3.0691,-3.0725,-3.0791,-3.0794,-3.0796,-3.0799,-3.0801,-3.0801,-3.0801,-3.0801,-3.0801,-3.0801,-3.088,-3.0899,-3.0899,-3.0899,-3.0899,-3.0899,-3.0899,-3.082,-3.0699,-3.07,-3.0665,-3.0602,-3.0602,-3.0602,-3.0602,-3.0602,-3.0602,-3.0602,-3.0602,-3.0602,-3.0602,-3.0602,-3.0602,-3.061,-3.0689,-3.0739,-3.1008,-3.1909,-3.2129,-3.2421,-3.3281,-3.4174,-3.4764,-3.4764,-3.5447,-3.5991,-3.5991,-3.5991,-3.5991,-3.5991,-3.5991,-3.5991,-3.5991,-3.5991,-3.5991,-3.5991,-3.5991,-3.5994,-3.5996,-3.5996,-3.5953,-3.5909,-3.5957,-3.5957,-3.5908,-3.5884,-3.5884,-3.5899,-3.5836,-3.58,-3.58,-3.5727,-3.5704,-2.1428,-2.2057,-2.2745,-2.3641,-2.441,-2.5035,-2.56,-2.6539,-2.726,-2.6926,-2.6727,-2.6551,-2.6321,-2.6588,-2.733,-2.8892,-3.0044,-3.1482,-3.3651,-3.3766,-3.3818,-3.4312,-3.3973,-3.2935,-3.0973,-3.0953,-3.0263,-2.8311,-2.8446,-2.9052,-3.0095,-3.0355,-3.049,-3.049,-3.0507,-3.0513,-3.0556,-3.0652,-3.073,-3.0801,-3.081,-3.0794,-3.0794,-3.0858,-3.088,-3.088,-3.088,-3.088,-3.088,-3.0899,-3.0903,-3.0891,-3.0891,-3.0891,-3.0891,-3.0901,-3.082,-3.0713,-3.0762,-3.0707,-3.0602,-3.0602,-3.0602,-3.0602,-3.0602,-3.0602,-3.0602,-3.0602,-3.0602,-3.0602,-3.0602,-3.0602,-3.0599,-3.0625,-3.1126,-3.1668,-3.189,-3.2506,-3.3256,-3.4111,-3.5037,-3.5662,-3.5662,-3.5857,-3.5991,-3.5991,-3.5991,-3.5991,-3.5991,-3.5991,-3.5991,-3.5991,-3.5991,-3.5991,-3.5991,-3.5991,-3.5986,-3.5937,-3.5934,-3.5909,-3.5821,-3.5838,-3.5841,-3.5841,-3.5827,-3.5833,-3.5824,-3.5815,-3.5766,-3.5728,-3.5716,-3.5704,-2.1068,-2.1597,-2.2235,-2.2634,-2.3419,-2.4153,-2.4265,-2.5226,-2.601,-2.569,-2.5376,-2.5207,-2.5328,-2.567,-2.6257,-2.7239,-2.8611,-3.0224,-3.21,-3.2693,-3.3222,-3.4025,-3.4128,-3.3395,-3.1558,-3.1461,-3.0934,-2.9494,-2.9299,-2.946,-3.0037,-3.0419,-3.062,-3.062,-3.0633,-3.0639,-3.0625,-3.074,-3.0806,-3.0849,-3.0833,-3.0836,-3.0855,-3.0877,-3.0901,-3.0907,0.0,-3.0907,-3.0905,-3.0901,-3.0903,-3.0909,-3.0896,-3.0898,-3.0897,-3.083,-3.0759,-3.0706,-3.0711,-3.0637,-3.0549,-3.0586,-3.0595,-3.0595,-3.0595,-3.0595,-3.0595,-3.0595,-3.0595,-3.0595,-3.0595,-3.0595,-3.0613,-3.0595,-3.0967,-3.1545,-3.2299,-3.2881,-3.3624,-3.4872,-3.554,-3.5918,-3.5918,-3.5918,-3.5918,-3.5918,-3.5918,-3.5918,-3.5918,-3.597,-3.5979,-3.5954,-3.5955,-3.5937,-3.5918,-3.5918,-3.5896,-3.5864,-3.5861,-3.5827,-3.5762,-3.5784,-3.5779,-3.5757,-3.5757,-3.5765,-3.5762,-3.5762,-3.5742,-3.5704,-3.5704,-3.5704,-2.0947,-2.1247,-2.1553,-2.1874,-2.2483,-2.3097,-2.3319,-2.3835,-2.4323,-2.4428,-2.4184,-2.4136,-2.4675,-2.5336,-2.5698,-2.5371,-2.6861,-2.843,-2.9518,-3.032,-3.1436,-3.3183,-3.3387,-3.3057,-3.2186,-3.1308,-3.0762,-3.0645,-3.0528,-3.0177,-2.9533,-3.0232,-3.0645,-3.0645,-3.0742,-3.0804,-3.0813,-3.0877,-3.0899,-3.0901,-3.0901,-3.0901,-3.0901,-3.0899,-3.0905,-3.0892,-3.0895,0.0,-3.0897,-3.0891,-3.0907,-3.0907,-3.0879,-3.087,-3.0856,-3.0732,-3.0685,-3.069,-3.0625,-3.0565,-3.0509,-3.0579,-3.0588,-3.0588,-3.0588,-3.0588,-3.0588,-3.0588,-3.0588,-3.0588,-3.0588,-3.0588,-3.0616,-3.0727,-3.0859,-3.1368,-3.3009,-3.3446,-3.3972,-3.5485,-3.5783,-3.5802,-3.5802,-3.5802,-3.5802,-3.5802,-3.5802,-3.5802,-3.5802,-3.5895,-3.5955,-3.589,-3.5884,-3.5854,-3.5806,-3.5792,-3.5792,-3.5795,-3.58,-3.576,-3.5684,-3.5742,-3.5762,-3.5684,-3.5684,-3.5684,-3.5704,-3.5704,-3.5704,-3.5704,-3.5704,-3.5704,-2.0775,-2.1356,-2.1683,-2.1301,-2.1766,-2.2175,-2.1714,-2.2382,-2.301,-2.2638,-2.3164,-2.3665,-2.3602,-2.4545,-2.5444,-2.5801,-2.6987,-2.847,-3.0242,-3.0628,-3.1351,-3.3105,-3.3379,-3.3061,-3.2187,-3.1307,-3.0523,-2.986,-2.9138,-2.8957,-2.9471,-2.9709,-2.9812,-2.9801,-3.0504,-3.0877,-3.0877,-3.0899,-3.0903,-3.0892,-3.0892,-3.0892,-3.0892,-3.0903,-3.0899,-3.0903,-3.0897,0.0,-3.0907,-3.0909,-3.0894,-3.0897,-3.0774,-3.0735,-3.0739,-3.0644,-3.0625,-3.0625,-3.0598,-3.0552,-3.0509,-3.0509,-3.0519,-3.0519,-3.0519,-3.0519,-3.0519,-3.0519,-3.0519,-3.0519,-3.0519,-3.0519,-3.0703,-3.142,-3.2135,-3.2947,-3.3974,-3.4759,-3.5369,-3.566,-3.5757,-3.5796,-3.5796,-3.5796,-3.5796,-3.5796,-3.5796,-3.5796,-3.5796,-3.5819,-3.5832,-3.5818,-3.5812,-3.5805,-3.5794,-3.5799,-3.5776,-3.5708,-3.5728,-3.5687,-3.5612,-3.5631,-3.5631,-3.5612,-3.5612,-3.5643,-3.5704,-3.5704,-3.5704,-3.5704,-3.5704,-3.5704,-2.0016,-2.0578,-2.0976,-2.0838,-2.1008,-2.1162,-2.0703,-2.1152,-2.1657,-2.1467,-2.2042,-2.2739,-2.3091,-2.3898,-2.4635,-2.5048,-2.6244,-2.746,-2.8423,-2.981,-3.0847,-3.1233,-3.2139,-3.2382,-3.1504,-3.0675,-3.0023,-2.9638,-2.8782,-2.8467,-2.8856,-2.8906,-2.9127,-2.9599,-3.0009,-3.0439,-3.0907,-3.0901,-3.0901,-3.0907,-3.0896,-3.0898,-3.0897,-3.0898,-3.0898,-3.0897,-3.0898,0.0,-3.0886,-3.0825,-3.0808,-3.0798,-3.0684,-3.0646,-3.063,-3.0567,-3.055,-3.0539,-3.051,-3.046,-3.0455,-3.0455,-3.0477,-3.0499,-3.0499,-3.0499,-3.0499,-3.0499,-3.0499,-3.0595,-3.102,-3.1116,-3.1347,-3.2207,-3.3087,-3.384,-3.4257,-3.504,-3.5639,-3.5639,-3.5659,-3.5697,-3.5697,-3.5697,-3.5697,-3.5697,-3.5697,-3.5697,-3.5697,-3.5699,-3.5702,-3.5745,-3.5743,-3.5736,-3.5697,-3.5706,-3.5678,-3.5639,-3.5639,-3.5639,-3.5596,-3.5596,-3.5596,-3.5596,-3.5596,-3.5628,-3.5639,-3.5639,-3.5584,-3.5489,-3.5534,-3.5528,-1.9187,-1.9683,-2.0271,-2.0448,-2.0422,-2.0199,-1.9847,-2.0026,-2.0332,-2.0496,-2.1117,-2.1874,-2.2652,-2.3455,-2.3999,-2.41,-2.546,-2.6519,-2.6474,-2.8534,-2.9868,-2.9427,-3.063,-3.1231,-3.0575,-2.9765,-2.9233,-2.906,-2.8242,-2.7812,-2.8012,-2.8193,-2.8609,-2.9294,-2.9685,-3.0213,-3.0898,-3.0895,-3.0891,-3.0909,-3.0898,-3.0896,-3.0903,-3.0899,-3.0903,-3.0891,-3.0864,0.0,0.0,-3.0722,-3.0683,-3.0671,-3.0598,-3.0579,-3.0567,-3.0505,-3.0486,-3.0472,-3.0414,-3.0398,-3.0398,-3.0398,-3.0444,-3.0488,-3.0488,-3.0488,-3.0488,-3.0488,-3.0488,-3.0612,-3.1268,-3.1565,-3.1962,-3.3003,-3.394,-3.4576,-3.4576,-3.5128,-3.5591,-3.5591,-3.5591,-3.5591,-3.5591,-3.5591,-3.5591,-3.5591,-3.5591,-3.5591,-3.5591,-3.5591,-3.5616,-3.5662,-3.5678,-3.5666,-3.5589,-3.5596,-3.5591,-3.5591,-3.5591,-3.5591,-3.5591,-3.5591,-3.5591,-3.5591,-3.5591,-3.5591,-3.5591,-3.5566,-3.5449,-3.5315,-3.53,-3.5296,-1.842,-1.9463,-2.0213,-2.0246,-1.9971,-1.956,-1.9114,-1.8934,-1.9011,-1.9504,-2.0571,-2.1565,-2.2079,-2.3319,-2.4082,-2.3559,-2.524,-2.6463,-2.6108,-2.712,-2.824,-2.9198,-2.946,-2.9557,-2.953,-2.8793,-2.8021,-2.7285,-2.6422,-2.6286,-2.7085,-2.7861,-2.8333,-2.8418,-2.9961,-3.0819,-3.0903,-3.0903,-3.0909,-3.0897,-3.0896,-3.0895,-3.0894,-3.0903,-3.0899,-3.0897,-3.0764,0.0,0.0,-3.063,-3.0614,-3.0605,-3.0546,-3.051,-3.0492,-3.0436,-3.041,-3.0421,-3.041,-3.0398,-3.0398,-3.0398,-3.041,-3.041,-3.041,-3.041,-3.041,-3.041,-3.041,-3.0429,-3.0506,-3.1102,-3.2095,-3.3711,-3.4808,-3.5476,-3.5476,-3.5534,-3.5591,-3.5591,-3.5591,-3.5591,-3.5591,-3.5591,-3.5591,-3.5591,-3.5591,-3.5591,-3.5591,-3.5591,-3.5604,-3.5604,-3.5604,-3.5604,-3.5604,-3.5604,-3.5591,-3.5591,-3.5591,-3.556,-3.5515,-3.5515,-3.5515,-3.5515,-3.5515,-3.5547,-3.5591,-3.5422,-3.533,-3.53,-3.5119,-3.5032,-1.6814,-1.7938,-1.8899,-1.8734,-1.851,-1.8319,-1.8183,-1.8131,-1.8235,-1.8979,-1.9828,-2.0734,-2.1668,-2.2573,-2.3136,-2.3124,-2.4265,-2.5077,-2.4877,-2.592,-2.6911,-2.7489,-2.8019,-2.8399,-2.8546,-2.7837,-2.702,-2.622,-2.5801,-2.5757,-2.6142,-2.7011,-2.7754,-2.828,-2.9471,-3.0367,-3.0889,-3.0901,-3.0901,-3.0905,-3.0905,-3.0858,-3.0774,-3.0782,-3.0769,-3.0725,-3.0665,0.0,0.0,-3.0509,-3.0472,-3.0472,-3.0419,-3.0375,-3.0367,-3.034,-3.0348,-3.0348,-3.0398,-3.0374,-3.033,-3.0336,-3.0343,-3.0349,-3.0398,-3.0398,-3.0379,-3.0348,-3.0348,-3.0463,-3.1001,-3.2167,-3.3506,-3.4693,-3.5264,-3.5547,-3.5547,-3.5547,-3.5547,-3.5547,-3.5547,-3.5547,-3.5547,-3.5547,-3.5547,-3.5547,-3.5547,-3.5547,-3.5547,-3.5547,-3.5547,-3.5547,-3.5534,-3.5547,-3.5547,-3.5541,-3.5547,-3.5547,-3.5547,-3.5528,-3.5515,-3.5501,-3.5501,-3.5501,-3.5379,-3.533,-3.5364,-3.5174,-3.5,-3.4889,-3.4793,-3.4755,-1.5254,-1.6321,-1.7315,-1.7347,-1.7255,-1.7193,-1.7393,-1.7492,-1.7733,-1.8569,-1.9287,-2.0085,-2.1243,-2.1869,-2.2317,-2.266,-2.3607,-2.4205,-2.395,-2.5069,-2.5985,-2.6218,-2.6821,-2.7305,-2.7475,-2.6823,-2.6158,-2.5589,-2.5503,-2.5496,-2.5563,-2.6431,-2.7249,-2.7883,-2.899,-2.9867,-3.0476,-3.0735,-3.0859,-3.0817,-3.0817,-3.075,-3.0646,-3.0646,-3.0614,-3.0579,-3.0552,0.0,0.0,-3.0432,-3.0367,-3.0367,-3.033,-3.0305,-3.0292,-3.0292,-3.0292,-3.0311,-3.0355,-3.0349,-3.0292,-3.0299,-3.0299,-3.0324,-3.0362,-3.0374,-3.0355,-3.0311,-3.0484,-3.0887,-3.1732,-3.3064,-3.4384,-3.5235,-3.5446,-3.5446,-3.546,-3.546,-3.5493,-3.5493,-3.5493,-3.5493,-3.5493,-3.5493,-3.5493,-3.546,-3.546,-3.546,-3.5446,-3.546,-3.546,-3.546,-3.5482,-3.5509,-3.5509,-3.5501,-3.5493,-3.5493,-3.5493,-3.546,-3.5417,-3.5417,-3.5369,-3.5324,-3.5174,-3.5107,-3.5107,-3.4927,-3.4751,-3.4602,-3.4524,-3.4483,-1.3842,-1.4746,-1.569,-1.6355,-1.6454,-1.6477,-1.6745,-1.7048,-1.7476,-1.8187,-1.9014,-1.9869,-2.0747,-2.1337,-2.1836,-2.2237,-2.3528,-2.4254,-2.3613,-2.4664,-2.5615,-2.5869,-2.6027,-2.6165,-2.6297,-2.5771,-2.5415,-2.5395,-2.5402,0.0,-2.5502,-2.6329,-2.6879,-2.7013,-2.8638,-2.9503,-2.9503,-3.037,-3.0728,-3.0607,-3.0607,-3.0581,-3.0502,-3.0502,-3.0502,-3.0494,0.0,0.0,0.0,-3.0336,-3.0292,-3.0292,-3.0292,-3.0292,-3.0292,-3.0292,-3.0292,-3.0292,-3.0292,-3.0292,-3.0292,-3.0292,-3.0292,-3.0292,-3.0292,-3.0292,-3.0292,-3.0292,-3.0925,-3.1774,-3.2593,-3.3437,-3.4299,-3.5105,-3.5315,-3.5315,-3.5398,-3.5412,-3.5412,-3.5493,-3.5493,-3.5493,-3.5493,-3.5493,-3.5493,-3.5412,-3.5412,-3.5379,-3.5315,-3.5364,-3.5412,-3.5412,-3.546,-3.5507,-3.5507,-3.5507,-3.5493,-3.5493,-3.5493,-3.5417,-3.5209,-3.5209,-3.5107,-3.4927,-3.4889,-3.4889,-3.4889,-3.471,-3.4583,-3.4583,-3.4316,-3.4197,-1.3234,-1.4165,-1.4862,-1.4806,-1.5255,-1.5775,-1.5932,-1.6349,-1.6964,-1.7908,-1.8316,-1.8864,-2.0104,-2.0665,-2.1054,-2.143,-2.25,-2.3177,-2.2905,-2.3797,-2.4561,-2.4774,-2.5129,-2.5361,-2.5406,-2.5229,-2.5143,-2.5187,-2.5147,-2.5187,-2.5283,-2.5558,-2.6359,-2.778,-2.8899,-2.9742,-3.0247,-3.0528,-3.0614,-3.0525,-3.0525,-3.0505,-3.0434,-3.0434,-3.0413,0.0,0.0,0.0,0.0,-3.0253,-3.0226,-3.0226,-3.0226,-3.0226,-3.0234,-3.0234,-3.0234,-3.0234,-3.0279,-2.987,-2.9429,-3.0029,-2.9825,-2.9448,-3.0054,-3.0253,-3.0279,-3.0234,-3.0866,-3.1728,-3.2584,-3.3442,-3.4299,-3.5124,-3.5315,-3.5315,-3.533,-3.533,-3.533,-3.5364,-3.5254,-3.5155,-3.5155,-3.5155,-3.5155,-3.5119,-3.5235,-3.5315,-3.5296,-3.5315,-3.533,-3.533,-3.5219,-3.5254,-3.5493,-3.5369,-3.5289,-3.5289,-3.5124,-3.5,-3.4926,-3.487,-3.4851,-3.4831,-3.4691,-3.4647,-3.4689,-3.4431,-3.4316,-3.4316,-3.4245,-3.4197,-1.2607,-1.3342,-1.3932,-1.3793,-1.4428,-1.5126,-1.5369,-1.5901,-1.6607,-1.753,-1.7787,-1.8252,-1.9609,-2.0193,-2.0599,-2.0959,-2.1799,-2.2415,-2.2476,-2.3106,-2.3726,-2.4137,-2.4551,-2.4832,-2.4874,-2.4907,-2.4947,-2.4975,-2.4962,-2.5,-2.5115,-2.5113,-2.5851,-2.7472,-2.8365,-2.9038,-2.9505,-3.0156,-3.0268,-2.9853,-2.9912,-2.9706,-2.932,-2.9627,-2.9743,0.0,0.0,0.0,0.0,-3.0157,-2.9937,-2.9637,-2.9637,-2.9618,-2.9632,-2.9632,-2.9823,-3.009,-3.0138,-2.957,-2.8955,-2.9808,-2.9732,-2.9379,-2.9927,-3.0171,-3.0253,-3.0207,-3.1054,-3.2067,-3.2618,-3.3627,-3.4623,-3.5057,-3.5155,-3.5138,-3.5049,-3.5032,-3.5032,-3.5069,-3.4962,-3.4889,-3.4889,-3.4889,-3.487,-3.4851,-3.4962,-3.5032,-3.4996,-3.5015,-3.5032,-3.5032,-3.4944,-3.4981,-3.519,-3.5088,-3.5018,-3.5018,-3.4851,-3.4733,-3.4632,-3.4572,-3.4529,-3.4483,-3.4386,-3.434,-3.4363,-3.4197,-3.4124,-3.4124,-3.4148,-3.4173,0.0,-1.248,-1.2968,-1.3276,-1.3909,-1.456,-1.496,-1.5603,0.0,-1.716,-1.7366,-1.7854,-1.9163,-1.9808,-2.0277,-2.073,-2.1397,-2.196,-2.2231,-2.2669,-2.3218,-2.3923,-2.4284,-2.4545,-2.4676,-2.4731,-2.4775,-2.4775,-2.4823,-2.4893,-2.4968,-2.4975,-2.5373,-2.6244,-2.7113,-2.7607,-2.7676,-2.9302,-2.9634,-2.8698,-2.8836,-2.8401,-2.7532,-2.8271,-2.8658,0.0,0.0,0.0,0.0,-2.9992,-2.949,-2.8707,-2.8707,-2.8669,-2.8632,-2.8688,-2.9166,-2.9813,-2.9869,-2.9374,-2.8821,-2.9507,-2.9756,-2.9794,-2.9737,-2.9924,-3.0171,-3.0171,-3.1393,-3.2676,-3.2676,-3.3917,-3.5107,-3.4908,-3.487,-3.4831,-3.4632,-3.4593,-3.4593,-3.4674,-3.4674,-3.4653,-3.4653,-3.4653,-3.4632,-3.4591,-3.4572,-3.4572,-3.4508,-3.4551,-3.4593,-3.4593,-3.4632,-3.4653,-3.4653,-3.4674,-3.4674,-3.4674,-3.4653,-3.4529,-3.4288,-3.4265,-3.4189,-3.3998,-3.3998,-3.3998,-3.3998,-3.3998,-3.3998,-3.3998,-3.4074,-3.4099,-1.156,0.0,-1.2627,-1.2715,-1.3515,-1.4294,0.0,-1.5164,-1.6032,-1.7018,-1.7173,-1.7407,-1.8408,-1.9118,-1.9645,-1.9788,-2.0765,-2.1595,-2.1803,-2.2813,-2.3613,-2.3963,-2.4247,-2.4444,-2.4464,-2.4476,-2.4491,-2.4491,-2.4559,-2.461,-2.4623,-2.4673,-2.4813,-2.5013,-2.5819,-2.6687,-2.7612,-2.8033,-2.8095,-2.7804,-2.7837,-2.7728,-2.7513,-2.7702,-2.7793,0.0,0.0,0.0,-2.9042,-2.9042,-2.8894,-2.8707,-2.8707,-2.8328,-2.7854,-2.848,-2.8821,-2.9071,-2.9696,-2.9358,-2.8616,-2.8142,-2.838,-2.8693,-2.8051,-2.8831,-2.9972,-2.9972,-3.1168,-3.2441,-3.2333,-3.3564,-3.4774,-3.4632,-3.4593,-3.4572,-3.4529,-3.4529,-3.4529,-3.4551,-3.4416,-3.4321,-3.4321,-3.4321,-3.4321,-3.4298,-3.442,-3.4529,-3.4508,-3.4508,-3.4529,-3.4529,-3.4394,-3.4321,-3.4321,-3.4353,-3.4401,-3.4401,-3.4189,-3.4055,-3.4005,-3.3954,-3.3902,-3.3921,-3.3972,-3.3998,-3.3998,-3.3998,-3.3998,-3.3998,-3.4023,-3.4023,-1.1469,-1.2107,-1.2706,-1.2666,-1.3478,-1.4269,-1.419,-1.4801,-1.5534,-1.6238,-1.6527,-1.6909,-1.7571,-1.8486,-1.9147,-1.9184,-2.0212,-2.1213,-2.1718,-2.2703,-2.3459,-2.3656,-2.4022,-2.4266,-2.4321,-2.4357,-2.4338,-2.4338,-2.4428,-2.4445,-2.4445,-2.4497,-2.4512,-2.4512,-2.4957,-2.5708,-2.6771,-2.7228,-2.7203,-2.672,-2.6817,-2.6643,-2.6223,-2.6635,-2.6836,0.0,0.0,0.0,-2.8058,-2.8058,-2.7815,-2.75,-2.7862,-2.7749,-2.7466,-2.8277,-2.8825,-2.9221,-2.9674,-2.9471,-2.8874,-2.8045,-2.822,-2.8633,-2.7811,-2.8241,-2.9045,-2.9097,-3.0584,-3.2146,-3.2068,-3.3289,-3.4486,-3.4307,-3.4279,-3.4255,-3.4117,-3.4093,-3.4093,-3.4093,-3.4005,-3.3921,-3.3921,-3.3921,-3.3921,-3.3921,-3.403,-3.4093,-3.4093,-3.4093,-3.4093,-3.4117,-3.403,-3.3972,-3.4023,-3.4037,-3.4068,-3.4068,-3.3928,-3.3842,-3.3842,-3.3815,-3.3834,-3.3842,-3.3743,-3.3743,-3.3895,-3.3743,-3.3743,-3.3895,-3.3947,-3.3947,-1.1267,-1.2049,-1.2783,-1.2657,-1.3372,-1.4025,-1.3884,-1.4398,-1.4994,-1.5389,-1.5876,-1.6398,-1.6993,-1.7974,-1.8707,-1.8822,-1.9879,-2.0975,-2.1823,-2.2556,-2.3087,-2.3277,-2.3753,-2.4075,-2.4154,-2.421,-2.4247,-2.4247,-2.4284,-2.4303,-2.4303,-2.4284,-2.4265,-2.4265,-2.4373,-2.4778,-2.552,-2.642,-2.6472,-2.5626,-2.5791,-2.5449,-2.472,-2.5445,-2.581,-2.5906,0.0,0.0,-2.7078,-2.7094,-2.6666,-2.6075,-2.6754,-2.6942,-2.6942,-2.7845,-2.8651,-2.9308,-2.9533,-2.9472,-2.9202,-2.8403,-2.8447,-2.8706,-2.7951,-2.773,-2.7754,-2.7864,-2.9712,-3.1672,-3.1651,-3.2937,-3.4189,-3.3979,-3.3947,-3.3868,-3.3643,-3.3605,-3.3605,-3.3605,-3.3605,-3.3605,-3.3605,-3.3605,-3.3605,-3.3605,-3.3605,-3.3605,-3.3605,-3.3577,-3.3559,-3.3671,-3.3643,-3.3671,-3.3753,-3.3707,-3.368,-3.368,-3.3762,-3.378,-3.3734,-3.3662,-3.3652,-3.3652,-3.3379,-3.3361,-3.3652,-3.3379,-3.3379,-3.3652,-3.3689,-3.3743,-1.0226,-1.1082,-1.195,-1.1868,-1.2187,-1.2657,-1.3054,-1.3484,-1.4179,-1.5466,-1.5732,-1.6114,-1.7366,-1.7868,-1.8344,-1.8936,-2.0124,-2.1213,-2.1965,-2.2599,-2.3091,-2.3342,-2.3664,-2.3858,-2.3937,-2.4016,-2.4056,-2.4056,-2.3958,-2.3878,-2.3878,-2.378,-2.3717,-2.3717,-2.3959,-2.415,-2.426,-2.4778,-2.4949,-2.4767,-2.4818,-2.4743,-2.4615,-2.4746,-2.4818,-2.4834,0.0,-2.5483,-2.612,-2.6188,-2.6129,-2.6019,-2.6151,-2.5721,-2.5255,-2.6617,-2.7196,-2.7512,-2.8769,-2.9104,-2.8846,-2.8033,-2.7757,-2.7583,-2.6718,-2.6477,-2.6477,-2.6504,-2.8489,-3.059,-3.0494,-3.2164,-3.3842,-3.3698,-3.3643,-3.3643,-3.3605,-3.3605,-3.3605,-3.3605,-3.3605,-3.3605,-3.3605,-3.3605,-3.3605,-3.3605,-3.3605,-3.3605,-3.3605,-3.3339,-3.328,-3.3587,-3.3368,-3.3309,-3.3587,-3.3368,-3.3202,-3.3202,-3.3597,-3.368,-3.3379,-3.3105,-3.2952,-3.2952,-3.289,-3.289,-3.2952,-3.289,-3.289,-3.2952,-3.2952,-3.2983,-1.0744,-1.0956,-1.1267,-1.1519,-1.2197,-1.2716,-1.2647,-1.317,-1.3884,-1.4376,-1.496,-1.5543,-1.617,-1.7146,-1.8291,-1.95,-2.0311,-2.1007,-2.1584,-2.2096,-2.2483,-2.2669,-2.3122,-2.3473,-2.3628,-2.3795,-2.3858,-2.3795,-2.3714,-2.3628,-2.3482,-2.3437,-2.3437,-2.3437,-2.3628,-2.3714,-2.3714,-2.4078,-2.4339,-2.4481,-2.4464,-2.441,-2.4374,-2.4284,-2.4229,-2.4229,0.0,-2.4685,-2.5056,-2.5194,-2.5225,-2.5281,-2.5591,-2.5744,-2.595,-2.7366,-2.7874,-2.7963,-2.8654,-2.8772,-2.8573,-2.8185,-2.799,-2.7713,-2.6896,-2.6332,-2.5883,-2.5452,-2.732,-2.9521,-2.9885,-3.1454,-3.3002,-3.3266,-3.3327,-3.3327,-3.3327,-3.3327,-3.3357,-3.3462,-3.3491,-3.3491,-3.3491,-3.3309,-3.3172,-3.3172,-3.3001,-3.2908,-3.2908,-3.2781,-3.2749,-3.2939,-3.2813,-3.2813,-3.3001,-3.2858,-3.2763,-3.2763,-3.2983,-3.3027,-3.2872,-3.2713,-3.2666,-3.2749,-3.2553,-3.2586,-3.2795,-3.2619,-3.2619,-3.2795,-3.2795,-3.2795,-1.0965,-1.0697,-1.0572,-1.083,-1.1657,-1.2384,-1.2372,-1.2793,-1.3266,-1.3457,-1.4329,-1.5152,-1.5344,-1.6883,-1.8511,-1.9773,-2.0311,-2.0763,-2.1277,-2.1631,-2.1895,-2.2136,-2.2625,-2.3007,-2.3253,-2.3459,-2.3544,-2.3437,-2.341,-2.3318,-2.3129,-2.3129,-2.3129,-2.3153,-2.3294,-2.3387,-2.3405,-2.3732,-2.3998,-2.421,-2.4229,-2.4191,-2.4078,-2.3941,-2.3883,-2.3883,-2.4115,-2.421,-2.4229,-2.4374,-2.4444,-2.4482,-2.4931,-2.5719,-2.6683,-2.7716,-2.8294,-2.8578,-2.8578,-2.8471,-2.8308,-2.8308,-2.8219,-2.8057,-2.7424,-2.665,-2.5867,-2.5237,-2.6504,-2.8254,-2.9178,-3.0757,-3.2234,-3.2906,-3.3055,-3.3055,-3.3055,-3.2993,-3.2975,-3.3135,-3.3117,-3.3086,-3.3086,-3.283,-3.2601,-3.2601,-3.2401,-3.2265,-3.2265,-3.2196,-3.2214,-3.2351,-3.2283,-3.2283,-3.2316,-3.2316,-3.2282,-3.2179,-3.2316,-3.2384,-3.2384,-3.2299,-3.2317,-3.2403,-3.2179,-3.2197,-3.2502,-3.2266,-3.2266,-3.2586,-3.2586,-3.2586,-0.9627,-0.9691,-0.976,-0.9204,-0.9593,-1.0454,-1.2126,-1.194,-1.1855,-1.3426,-1.4446,-1.5241,-1.5966,-1.7706,-1.9049,-1.9244,-2.0019,-2.0795,-2.1324,-2.1507,-2.182,-2.2313,-2.2422,-2.2538,-2.2822,-2.2923,-2.2972,-2.2947,-2.2892,-2.285,-2.2825,-2.2659,-2.2579,-2.2659,-2.2902,-2.3052,-2.3126,-2.3405,-2.3566,-2.3653,-2.3958,-2.3978,-2.3735,-2.3795,-2.3816,-2.3816,-2.3878,-2.3937,-2.3937,-2.3943,-2.3945,-2.3945,-2.3998,-2.4896,-2.6152,-2.6255,-2.713,-2.8228,-2.8228,-2.8146,-2.8025,-2.8025,-2.8025,-2.7996,-2.7943,-2.7257,-2.6521,-2.6468,-2.6416,-2.6667,-2.7994,-3.0034,-3.1934,-3.2719,-3.2916,-3.2916,-3.2916,-3.2687,-3.2453,-3.2453,-3.2283,-3.2109,-3.2109,-3.2074,-3.2074,-3.2074,-3.2074,-3.2092,-3.2092,-3.1914,-3.1896,-3.2283,-3.1967,-3.175,-3.175,-3.175,-3.162,-3.1291,-3.1768,-3.2039,-3.2039,-3.1728,-3.1576,-3.1576,-3.1538,-3.1614,-3.1674,-3.1654,-3.1728,-3.1856,-3.1856,-3.1856,-0.9733,-0.9539,-0.9479,-0.9198,-0.9283,-0.978,-1.1014,-1.1465,-1.1715,-1.2199,-1.3168,-1.4204,-1.5149,-1.7424,-1.897,-1.8398,-1.9662,-2.0745,-2.0763,-2.0878,-2.1118,-2.1538,-2.1895,-2.2164,-2.2341,-2.2565,-2.2669,-2.2591,-2.2643,-2.2588,-2.2432,-2.2432,-2.246,-2.2487,-2.2605,-2.2712,-2.279,-2.3017,-2.3098,-2.3042,-2.3422,-2.3553,-2.3445,-2.3307,-2.3236,-2.3236,-2.3486,-2.3598,-2.3598,-2.3756,-2.384,-2.3873,-2.4212,-2.4605,-2.5052,-2.5488,-2.6304,-2.7204,-2.7204,-2.7476,-2.7806,-2.7806,-2.7719,-2.7617,-2.7617,-2.6909,-2.6001,-2.5547,-2.5665,-2.6333,-2.7962,-2.9417,-3.0753,-3.1882,-3.2144,-3.2144,-3.2144,-3.2039,-3.2003,-3.2144,-3.2074,-3.2003,-3.2003,-3.1806,-3.1623,-3.1623,-3.1452,-3.1355,-3.1355,-3.1295,-3.1334,-3.147,-3.1372,-3.1312,-3.1389,-3.1295,-3.1235,-3.119,-3.1406,-3.1504,-3.1504,-3.1368,-3.1346,-3.1351,-3.1368,-3.1445,-3.1538,-3.1596,-3.1617,-3.1671,-3.1746,-3.18,-1.0286,-0.9882,-0.9626,-0.9802,-0.9542,-0.9712,-1.1434,-1.1592,-1.1507,-1.2003,-1.2822,-1.3996,-1.5536,-1.7303,-1.8517,-1.8384,-1.9768,-2.0745,-2.0426,-2.0545,-2.0745,-2.0925,-2.1308,-2.1675,-2.1911,-2.2108,-2.2186,-2.2091,-2.2209,-2.2169,-2.202,-2.2209,-2.2293,-2.2248,-2.2405,-2.2443,-2.2426,-2.2651,-2.2747,-2.2659,-2.2952,-2.3109,-2.3133,-2.2977,-2.2893,-2.2902,-2.3151,-2.323,-2.3253,-2.3445,-2.3535,-2.3589,-2.3963,-2.4208,-2.4374,-2.4857,-2.5717,-2.6613,-2.6613,-2.7,-2.7487,-2.7504,-2.7338,-2.7085,-2.7085,-2.6516,-2.5746,-2.5255,-2.5427,-2.6068,-2.7539,-2.875,-2.9834,-3.1003,-3.1465,-3.162,-3.162,-3.1545,-3.1507,-3.164,-3.1603,-3.1511,-3.1511,-3.13,-3.1106,-3.1106,-3.0958,-3.0831,-3.0831,-3.0895,-3.0975,-3.0975,-3.0975,-3.1032,-3.1112,-3.1015,-3.1032,-3.1112,-3.1112,-3.1151,-3.119,-3.119,-3.123,-3.1274,-3.1274,-3.1312,-3.1462,-3.1466,-3.1542,-3.1617,-3.1709,-3.1746,-1.1253,-1.0651,-1.0163,-1.0866,-1.0195,-1.03,-1.3806,-1.2433,-1.1007,-1.312,-1.3939,-1.5025,-1.749,-1.7558,-1.7714,-1.9251,-2.033,-2.0812,-2.0357,-2.0595,-2.0745,-2.0597,-2.0763,-2.1071,-2.1559,-2.1464,-2.1386,-2.1386,-2.1462,-2.1507,-2.1582,-2.1961,-2.2094,-2.1899,-2.222,-2.226,-2.1998,-2.2315,-2.2542,-2.2605,-2.2596,-2.2659,-2.2816,-2.2868,-2.2893,-2.2893,-2.2893,-2.2893,-2.2893,-2.2893,-2.2944,-2.302,-2.307,-2.3593,-2.4304,-2.4304,-2.5261,-2.6567,-2.6584,-2.6757,-2.7002,-2.7068,-2.6774,-2.6419,-2.6419,-2.621,-2.5997,-2.5997,-2.5795,-2.5767,-2.6481,-2.7931,-2.9399,-3.0185,-3.0936,-3.1466,-3.1466,-3.1196,-3.0975,-3.0975,-3.0733,-3.0526,-3.0526,-3.0526,-3.0526,-3.0526,-3.0609,-3.0692,-3.0692,-3.0831,-3.0912,-3.0912,-3.0912,-3.0912,-3.0912,-3.0912,-3.0912,-3.0912,-3.0935,-3.1055,-3.119,-3.119,-3.119,-3.119,-3.119,-3.1213,-3.1295,-3.1295,-3.1411,-3.1617,-3.1617,-3.1671,-1.0871,-1.1271,-1.1794,-1.1911,-1.3002,-1.4508,-1.6179,-1.2357,-0.8871,-1.0532,-1.4437,-1.7168,-1.5842,-1.7555,-1.8892,-1.8007,-1.9112,-2.0108,-2.0135,-2.012,-2.0104,-2.0124,-2.0311,-2.0413,-2.0382,-2.0632,-2.078,-2.0828,-2.091,-2.1086,-2.1432,-2.1401,-2.1462,-2.1768,-2.1568,-2.1628,-2.194,-2.1986,-2.2175,-2.2542,-2.2287,-2.2381,-2.2738,-2.2764,-2.2764,-2.2764,-2.2816,-2.2842,-2.2842,-2.2893,-2.2919,-2.2944,-2.2944,-2.3109,-2.3371,-2.3946,-2.4611,-2.5274,-2.5842,-2.6275,-2.6573,-2.6607,-2.6385,-2.6104,-2.6104,-2.5941,-2.5603,-2.5078,-2.5253,-2.554,-2.5227,-2.6302,-2.7745,-2.8959,-2.942,-2.9716,-3.0194,-3.0368,-3.0443,-3.0443,-3.0485,-3.0526,-3.0526,-3.0526,-3.0526,-3.0526,-3.051,-3.0609,-3.0692,-3.0733,-3.079,-3.0871,-3.0831,-3.079,-3.0912,-3.0814,-3.079,-3.0912,-3.0912,-3.0992,-3.1072,-3.1151,-3.119,-3.119,-3.119,-3.123,-3.1213,-3.1274,-3.1334,-3.1372,-3.1483,-3.1576,-1.3236,-1.3918,-1.4639,-1.506,-1.6023,-1.6081,-1.302,-1.2392,-1.267,-1.3563,-1.6412,-1.8412,-1.7276,-1.8191,-1.8979,-1.8451,-1.9023,-1.957,-1.9717,-1.963,-1.9579,-1.9737,-1.9844,-1.9864,-1.9692,-2.0039,-2.0212,-2.0143,-2.033,-2.0614,-2.0942,-2.0975,-2.1039,-2.1214,-2.115,-2.1197,-2.1385,-2.1661,-2.1886,-2.2061,-2.1969,-2.2056,-2.2226,-2.2436,-2.249,-2.249,-2.2436,-2.2381,-2.2426,-2.2598,-2.266,-2.266,-2.2686,-2.2686,-2.2755,-2.3131,-2.3579,-2.4117,-2.4879,-2.5396,-2.5725,-2.604,-2.5905,-2.561,-2.561,-2.5476,-2.5259,-2.4804,-2.5018,-2.5179,-2.4452,-2.5147,-2.643,-2.7971,-2.8579,-2.8968,-2.9664,-2.981,-2.9853,-3.0,-3.0027,-3.0011,-3.0199,-3.0199,-3.0199,-3.0199,-3.0113,-2.9968,-2.9968,-3.0156,-3.0225,-3.0199,-3.0468,-3.0568,-3.0468,-3.0384,-3.0384,-3.0468,-3.0309,-3.0351,-3.0576,-3.0935,-3.1112,-3.1112,-3.119,-3.119,-3.119,-3.1252,-3.1196,-3.1004,-3.11,-3.11,-1.7183,-1.7722,-1.8098,-1.9284,-1.8626,-1.5391,-0.6573,-1.1727,-1.8422,-1.8599,-1.8882,-1.944,-2.0591,-1.9325,-1.8542,-1.9732,-1.9566,-1.92,-1.9103,-1.9022,-1.9082,-1.9354,-1.9339,-1.9259,-1.9156,-1.9513,-1.9636,-1.9353,-1.9687,-2.0035,-2.0246,-2.0581,-2.0648,-2.0514,-2.0813,-2.0862,-2.0597,-2.1339,-2.1601,-2.1386,-2.1675,-2.1705,-2.1524,-2.1936,-2.2136,-2.2136,-2.1882,-2.1797,-2.1811,-2.2124,-2.2231,-2.2275,-2.2313,-2.2341,-2.233,-2.2152,-2.2471,-2.314,-2.3892,-2.4265,-2.4557,-2.5322,-2.5243,-2.4926,-2.4989,-2.5005,-2.5005,-2.5005,-2.5005,-2.4863,-2.4176,-2.4444,-2.5298,-2.7065,-2.8075,-2.8785,-2.9463,-2.9329,-2.9241,-2.9617,-2.9377,-2.9287,-2.9617,-2.9705,-2.9705,-2.9705,-2.9377,-2.9104,-2.8904,-2.9241,-2.9406,-2.912,-2.9853,-3.0215,-2.975,-2.975,-2.975,-2.975,-2.939,-2.939,-2.9881,-3.0535,-3.0878,-3.1015,-3.1015,-3.1095,-3.1151,-3.1095,-3.0861,-3.0543,-3.0543,-3.036,-1.7887,-1.8757,-1.9479,-2.0048,-1.7358,-1.276,-0.5848,-0.5976,-0.7802,-0.8722,-1.7181,-2.3702,-2.1248,-2.0757,-2.0288,-1.8986,-1.9176,-1.9177,-1.8254,-1.7956,-1.8076,-1.864,-1.8104,-1.7799,-1.8066,-1.8383,-1.8616,-1.8755,-1.8612,-1.9014,-2.0085,-1.9732,-1.9767,-2.0395,-2.0189,-2.0258,-2.0597,-2.0763,-2.1007,0.0,-2.1182,-2.1214,-2.1448,-2.1568,-2.1688,-2.1731,-2.1781,-2.1797,-2.1827,-2.1899,-2.1911,-2.1911,-2.1911,-2.194,-2.1978,-2.2501,-2.2615,-2.259,-2.3373,-2.3476,-2.3378,-2.4042,-2.4205,-2.4239,-2.4831,-2.5005,-2.5005,-2.5005,-2.5005,-2.4974,-2.4776,-2.4288,-2.4201,-2.5618,-2.6495,-2.7183,-2.784,-2.8264,-2.8528,-2.8622,-2.8717,-2.881,-2.8826,-2.8904,-2.8919,-2.8919,-2.8873,-2.8779,-2.8748,-2.8826,-2.8919,-2.8951,-2.9136,-2.9273,-2.9257,-2.9257,-2.9257,-2.9257,-2.9166,-2.915,-2.9303,-2.9601,-3.0123,-3.0975,-3.0293,-3.0166,-3.0658,-3.0267,-3.0054,-2.9968,-2.9968,-2.9935,-2.0289,-2.1152,-2.1062,-1.8343,-1.1115,-0.3773,-0.0455,0.0169,-0.0069,-0.0538,-0.9263,-1.6284,-1.4602,-1.5022,-1.5932,-1.6918,-1.6336,-1.6305,-1.7879,-1.6911,-1.6351,-1.7206,-1.6587,-1.6218,-1.6519,-1.7175,-1.7504,-1.73,-1.7545,-1.8011,-1.8783,-1.8712,-1.8991,-1.9666,-1.9747,-1.9854,-1.9914,-2.033,-2.0514,-2.0431,-2.0648,-2.0795,-2.0877,-2.1134,-2.1291,-2.1306,-2.1214,-2.1182,-2.1182,-2.137,-2.1462,-2.1509,-2.1509,-2.154,-2.1606,-2.1793,-2.1763,-2.1679,-2.2433,-2.2773,-2.2991,-2.3686,-2.4144,-2.4492,-2.4894,-2.5005,-2.5005,-2.5005,-2.5005,-2.4887,-2.4383,-2.4115,-2.4033,-2.4225,-2.5017,-2.6044,-2.7072,-2.757,-2.7853,-2.7712,-2.7911,-2.8033,-2.7873,-2.8073,-2.8255,-2.8091,-2.8091,-2.8042,-2.7894,-2.8061,-2.8207,-2.8091,-2.8511,-2.8748,-2.8543,-2.8591,-2.8606,-2.8606,-2.8463,-2.8463,-2.8685,-2.8591,-2.9027,-3.0107,-2.9805,-2.9761,-3.0064,-2.9881,-2.9661,-2.9483,-2.9483,-2.9348,-2.3052,-2.3523,-2.1894,-1.4472,-0.4362,0.4299,0.6379,0.6745,0.6532,0.6352,-0.0804,-0.7128,-0.7402,-0.8552,-1.0522,-1.385,-1.299,-1.3073,-1.6453,-1.5377,-1.4574,-1.5521,-1.4934,-1.4609,-1.4971,-1.591,-1.6298,-1.586,-1.6481,-1.7014,-1.7329,-1.7759,-1.8221,-1.8779,-1.9295,-1.942,-1.9095,-1.9808,-1.9949,-1.9479,-2.0174,-2.041,-2.02,-2.0597,-2.0812,-2.0878,-2.0613,-2.0494,-2.0527,-2.0795,-2.0942,-2.0991,-2.0991,-2.1023,-2.1055,-2.0778,-2.0728,-2.0873,-2.1408,-2.1992,-2.2571,-2.3353,-2.3959,-2.4437,-2.4688,-2.4751,-2.4751,-2.4806,-2.4846,-2.4625,-2.3714,-2.3835,-2.3943,-2.3167,-2.393,-2.5168,-2.6438,-2.7036,-2.7193,-2.6853,-2.6986,-2.7045,-2.6823,-2.7293,-2.7645,-2.7335,-2.7299,-2.7196,-2.7003,-2.7291,-2.7429,-2.7181,-2.7894,-2.8255,-2.7815,-2.7879,-2.7993,-2.7993,-2.776,-2.7745,-2.8158,-2.781,-2.8027,-2.8919,-2.9164,-2.9361,-2.9496,-2.9512,-2.9364,-2.8997,-2.8997,-2.8795,-2.4495,-2.4014,-2.0137,-0.7405,-0.2961,0.0949,1.1259,1.3915,1.3649,1.1659,0.0757,-0.8451,-0.8494,-0.9601,-1.0267,-0.9573,-1.1554,-1.268,-1.1253,-1.2532,-1.3755,-1.4049,-1.332,-1.3209,-1.4231,-1.4597,-1.497,-1.5496,-1.5531,-1.6046,-1.7179,-1.7081,-1.7409,-1.8344,-1.8461,-1.8539,-1.8693,-1.8808,-1.902,-1.9406,-1.9925,-2.003,-1.9797,-1.9854,-2.0115,-2.0475,-2.0494,-2.0494,-2.0494,-2.0545,-2.0379,-2.0074,-2.0074,-2.0139,-2.0239,-2.0204,-2.0444,-2.081,-2.0905,-2.085,-2.0891,-2.191,-2.2154,-2.2275,-2.342,-2.3767,-2.3867,-2.4051,-2.4151,-2.4078,-2.396,-2.3356,-2.285,-2.3255,-2.3688,-2.4315,-2.5381,-2.6262,-2.6695,-2.6061,-2.6002,-2.5981,-2.5958,-2.6484,-2.6922,-2.6884,-2.6884,-2.6884,-2.6832,-2.6884,-2.6937,-2.7003,-2.7144,-2.7233,-2.7269,-2.7437,-2.7488,-2.7488,-2.7575,-2.7625,-2.771,-2.761,-2.766,-2.7795,-2.7959,-2.8334,-2.8982,-2.859,-2.8414,-2.8493,-2.8493,-2.8444,-2.3778,-2.1153,-1.6017,-0.6167,-0.0874,0.4101,1.2532,1.5675,1.6428,1.5125,0.9401,0.3506,-0.0168,-0.2419,-0.4315,-0.6287,-0.6987,-0.8085,-1.0303,-1.0417,-1.0705,-1.1755,-1.1554,-1.1571,-1.2125,-1.3107,-1.3752,-1.3856,-1.4457,-1.5028,-1.5596,-1.5748,-1.6182,-1.6928,-1.7558,-1.7814,-1.7626,-1.8238,-1.8693,-1.8959,-1.9281,-1.9354,-1.9244,-1.9347,-1.9726,-2.0339,-2.015,-2.003,-2.003,-2.003,-1.9839,-1.9522,-1.9522,-1.9558,-1.9666,-1.9666,-1.9773,-1.9969,-1.9969,-2.0172,-2.0488,-2.0948,-2.1614,-2.2293,-2.2763,-2.3195,-2.3595,-2.3551,-2.3653,-2.3696,-2.3348,-2.3039,-2.2834,-2.2727,-2.3174,-2.3695,-2.4113,-2.5566,-2.6692,-2.6402,-2.5749,-2.5487,-2.6213,-2.6591,-2.6779,-2.6779,-2.6779,-2.6779,-2.6779,-2.6779,-2.6832,-2.6899,-2.6899,-2.6884,-2.6989,-2.7093,-2.7159,-2.7159,-2.7284,-2.7437,-2.7488,-2.7488,-2.7539,-2.7625,-2.774,-2.7989,-2.8414,-2.8268,-2.8284,-2.8411,-2.8411,-2.8411,-2.2714,-1.8421,-1.2675,-0.648,0.0388,0.7004,1.2419,1.5628,1.7286,1.6586,1.5738,1.3411,0.7817,0.4542,0.1544,-0.1949,-0.2045,-0.3361,-0.8304,-0.7841,-0.7658,-0.9688,-0.9592,-0.9629,-1.0281,-1.1455,-1.226,-1.2511,-1.3294,-1.3931,-1.4373,-1.4619,-1.5038,-1.5752,-1.6579,-1.6957,-1.676,-1.7787,-1.8266,-1.8133,-1.8588,-1.8779,-1.8688,-1.8793,-1.9258,-1.9925,-1.9747,-1.9654,-1.9545,-1.9654,-1.9406,-1.902,-1.902,-1.9043,-1.9103,-1.9103,-1.9214,-1.931,-1.931,-1.9612,-2.0029,-2.0128,-2.091,-2.1804,-2.1914,-2.241,-2.2937,-2.2951,-2.3098,-2.3157,-2.2709,-2.2709,-2.2768,-2.2324,-2.274,-2.3371,-2.3685,-2.4885,-2.6002,-2.628,-2.5285,-2.4769,-2.595,-2.6158,-2.6258,-2.6258,-2.6258,-2.6326,-2.6553,-2.6568,-2.6621,-2.6779,-2.6779,-2.6779,-2.6779,-2.6899,-2.7003,-2.7003,-2.7144,-2.7284,-2.7401,-2.7401,-2.7437,-2.7625,-2.7675,-2.784,-2.7955,-2.8039,-2.8186,-2.8348,-2.8348,-2.8348,-2.193,-1.7277,-1.1606,-0.6985,-0.0065,0.6802,1.1352,1.4743,1.6588,1.5351,1.5148,1.4293,1.1321,0.7696,0.4964,0.4532,0.2346,-0.0167,-0.2686,-0.3923,-0.5555,-0.8284,-0.7461,-0.7458,-0.9467,-0.943,-1.0175,-1.2258,-1.211,-1.2648,-1.4326,-1.3956,-1.4179,-1.5299,-1.5433,-1.5776,-1.6312,-1.7325,-1.7503,-1.6795,-1.8027,-1.8458,-1.8145,-1.8145,-1.8458,-1.9006,-1.9479,-1.9457,-1.9176,-1.953,-1.9236,-1.8553,-1.8553,-1.8592,-1.8655,-1.8655,-1.893,-1.931,-1.931,-1.9155,-1.9037,-1.9433,-1.9445,-1.9488,-2.064,-2.1,-2.1199,-2.2002,-2.2263,-2.2278,-2.2217,-2.2231,-2.2231,-2.2231,-2.274,-2.3603,-2.4833,-2.4271,-2.3771,-2.4801,-2.4121,-2.356,-2.4217,-2.4502,-2.4641,-2.4797,-2.4797,-2.5092,-2.5825,-2.5948,-2.6179,-2.6727,-2.6779,-2.6779,-2.6779,-2.6899,-2.7003,-2.7003,-2.7144,-2.7284,-2.7401,-2.7401,-2.7437,-2.7625,-2.7625,-2.7675,-2.779,-2.784,-2.794,-2.8186,-2.8186,-2.8299,-2.1816,-2.0043,-1.6349,-0.7326,-0.2417,0.262,1.18,1.6396,1.8428,1.75,1.8108,1.8067,1.563,1.0704,0.6901,0.6577,0.4291,0.1873,-0.0054,-0.2027,-0.3984,-0.5991,-0.6411,-0.6436,-0.6348,-0.7676,-0.8996,-0.9929,0.0,-1.1639,-1.2444,-1.2841,-1.3283,-1.3663,-1.4446,-1.5141,-1.5852,-1.6299,-1.6386,-1.6139,-1.6672,-1.6883,-1.6769,-1.6786,-1.6928,-1.7164,-1.7985,-1.8496,-1.8745,-1.8884,-1.8592,-1.8095,-1.8095,-1.8135,-1.8135,-1.8135,-1.8254,-1.8383,-1.8383,-1.8358,-1.8282,-1.8423,-1.8755,-1.9224,-1.9918,-2.032,-2.0623,-2.1172,-2.1251,-2.1202,-2.1299,-2.1251,-2.1149,-2.1067,-2.1522,-2.2188,-2.3018,-2.3313,-2.3676,-2.4489,-2.4014,-2.3635,-2.4281,-2.445,-2.4526,-2.457,-2.4627,-2.4797,-2.5106,-2.5245,-2.5425,-2.5632,-2.5632,-2.5632,-2.5632,-2.5701,-2.5701,-2.5701,-2.5742,-2.5892,-2.6122,-2.651,-2.6788,-2.6997,-2.7408,-2.7675,-2.779,-2.779,-2.789,-2.8054,-2.8054,-2.8152,-2.1435,-1.9724,-1.6646,-1.0013,-0.5454,-0.0613,0.6995,1.1931,1.4997,1.5201,1.6512,1.729,1.6281,1.1939,0.8507,0.8355,0.5829,0.3189,0.1189,-0.0437,-0.2099,-0.3996,-0.4652,-0.4801,-0.4522,-0.6138,-0.7641,-0.8645,0.0,0.0,-1.1366,-1.1814,-1.2218,-1.257,-1.369,-1.4435,-1.4812,-1.5454,-1.57,-1.5478,-1.58,-1.5932,-1.5932,-1.5996,-1.6039,-1.6126,-1.6857,-1.749,-1.8014,-1.8226,-1.8175,-1.7882,-1.7788,-1.7788,-1.7882,-1.7882,-1.7842,-1.7747,-1.7882,-1.7842,-1.7747,-1.7882,-1.8208,-1.8617,-1.9098,-1.9453,-1.98,-2.0188,-2.0403,-2.0472,-2.056,-2.051,-2.045,-2.0395,-2.0643,-2.1113,-2.1728,-2.2432,-2.3215,-2.4019,-2.355,-2.3228,-2.3871,-2.3846,-2.3728,-2.3787,-2.3904,-2.4066,-2.4355,-2.454,-2.4724,-2.4951,-2.5007,-2.5007,-2.5007,-2.5007,-2.5007,-2.5007,-2.5007,-2.5119,-2.5398,-2.5783,-2.6122,-2.6404,-2.6982,-2.7357,-2.7423,-2.7625,-2.779,-2.7905,-2.7955,-2.8103,0.0,0.0,0.0,-1.4978,-0.8997,-0.2587,-0.3096,0.1264,0.6012,0.801,0.9905,1.1566,1.2824,1.117,0.9715,1.0082,0.7081,0.3841,0.1414,0.0992,0.0056,-0.2289,-0.2128,-0.2514,-0.4316,-0.4827,-0.6072,0.0,-0.8153,-0.8881,-1.1208,-1.0864,-1.1116,-1.2159,-1.329,-1.3643,-1.3218,-1.4869,-1.5433,-1.4903,-1.5478,-1.5744,-1.5744,-1.5744,-1.5844,-1.5944,-1.6194,-1.6527,-1.6993,-1.7707,-1.7935,-1.7842,-1.7529,-1.757,-1.7882,-1.7882,-1.7666,-1.7447,-1.7747,-1.7666,-1.7447,-1.7747,-1.7666,-1.7512,-1.8077,-1.8351,-1.8605,-1.923,-1.9759,-2.0156,-2.0169,-2.0182,-2.0207,-2.0329,-2.0358,-2.0557,-2.1186,-2.1699,-2.2272,-2.3357,-2.272,-2.2179,-2.2749,-2.2482,-2.2235,-2.2359,-2.242,-2.2702,-2.3623,-2.3741,-2.4092,-2.4838,-2.4951,-2.4951,-2.4951,-2.4951,-2.4951,-2.4951,-2.4951,-2.5063,-2.5342,-2.5342,-2.5508,-2.5728,-2.6336,-2.6669,-2.6669,-2.7306,-2.7675,-2.779,-2.7955,-2.8152,-2.074,0.0,0.0,0.0,0.0,0.0,-0.2401,0.1345,0.3966,0.4399,0.6765,0.8551,0.7795,0.8279,0.8824,0.8832,0.6838,0.5155,0.4788,0.2509,0.0677,-0.0,-0.1243,-0.2582,-0.3963,-0.4397,0.0,0.0,-0.7084,-0.8066,-0.971,-1.0643,-1.1401,-1.2049,-1.2851,-1.3198,-1.3064,-1.4025,-1.4455,-1.4408,-1.4582,-1.4674,-1.4777,-1.4777,-1.4823,-1.4869,-1.5355,-1.5744,-1.6064,-1.6892,-1.7199,-1.717,-1.7086,-1.7086,-1.717,-1.717,-1.7128,-1.7044,-1.7128,-1.7128,-1.7044,-1.7128,-1.7128,-1.7148,-1.7691,-1.7696,-1.7693,-1.8706,-1.8846,-1.8865,-1.9258,-1.9565,-1.9693,-1.9434,-1.9655,-2.0019,-2.0222,-2.0955,-2.1776,-2.2433,-2.2043,-2.174,-2.2286,-2.1934,-2.1753,-2.2187,-2.2359,-2.2469,-2.2763,-2.2896,-2.3138,-2.3424,-2.3484,-2.3531,-2.3649,-2.3649,-2.3649,-2.3649,-2.3649,-2.3708,-2.3956,-2.4452,-2.4851,-2.5007,-2.5673,-2.6068,-2.6068,-2.7086,-2.7625,-2.7675,-2.7905,-2.8103,-2.1799,-2.1201,-2.0099,-1.6953,0.0,0.0,-0.9203,-0.6133,-0.3706,-0.2056,0.0558,0.2985,0.4246,0.536,0.6003,0.5764,0.4781,0.4563,0.5937,0.3403,0.1053,-0.0057,-0.1719,-0.3086,-0.3819,-0.4039,-0.465,-0.5767,-0.632,-0.7326,-0.9106,-1.0138,-1.0905,-1.136,-1.199,-1.2433,-1.2579,-1.3314,-1.3658,-1.3695,-1.4025,-1.4129,-1.3988,-1.428,-1.4373,-1.4419,-1.4869,-1.5142,-1.5277,-1.5901,-1.6436,-1.6876,-1.6735,-1.6735,-1.6876,-1.6876,-1.6778,-1.668,-1.6833,-1.6778,-1.6693,-1.6833,-1.6791,-1.6701,-1.7004,-1.7165,-1.7335,-1.8032,-1.8396,-1.8602,-1.8915,-1.9146,-1.9303,-1.904,-1.9227,-1.9516,-1.9732,-2.0273,-2.0947,-2.1716,-2.1789,-2.1825,-2.2137,-2.1945,-2.1837,-2.2149,-2.2247,-2.2359,-2.242,-2.2482,-2.2616,-2.28,-2.2848,-2.2909,-2.3017,-2.3078,-2.3078,-2.3078,-2.3078,-2.3198,-2.3403,-2.3839,-2.4189,-2.4363,-2.509,-2.5577,-2.5783,-2.6496,-2.6864,-2.6953,-2.7408,-2.771,-2.3244,-2.2333,-2.1799,-2.247,-2.1427,0.0,-1.926,-1.6864,-1.375,-0.9866,-0.7051,-0.3821,0.0962,0.197,0.1965,0.1637,0.1217,0.1984,0.5022,0.3359,0.0862,-0.1633,-0.3089,-0.3808,-0.3808,-0.3834,-0.4336,-0.5652,-0.5891,-0.6902,-0.9047,-0.9562,-0.9976,-1.0411,-1.1057,-1.156,-1.1909,-1.2725,-1.3064,-1.2909,-1.3742,-1.3836,-1.342,-1.4035,-1.4384,-1.4419,-1.4605,-1.4662,-1.4651,-1.488,-1.568,-1.6663,-1.6324,-1.6423,-1.6705,-1.6748,-1.6552,-1.6281,-1.665,-1.6552,-1.6281,-1.665,-1.6552,-1.6238,-1.6238,-1.6703,-1.7267,-1.7388,-1.8181,-1.8987,-1.8987,-1.8987,-1.8987,-1.8987,-1.8987,-1.9119,-1.9588,-1.978,-2.0153,-2.1127,-2.1692,-2.2053,-2.2173,-2.2149,-2.2125,-2.2185,-2.2197,-2.2247,-2.2359,-2.242,-2.2482,-2.2678,-2.28,-2.2909,-2.2909,-2.3017,-2.3078,-2.3078,-2.3078,-2.3198,-2.3343,-2.3509,-2.3688,-2.3891,-2.4563,-2.516,-2.5632,-2.5742,-2.5877,-2.6011,-2.6678,-2.7108,-2.3248,-2.2694,-2.2374,-2.2303,-2.1718,0.0,-2.0391,-1.853,-1.646,-1.4829,-1.1498,-0.8311,-0.6364,-0.3659,-0.1701,-0.1633,-0.4244,-0.4353,0.113,0.0475,-0.1244,-0.3255,-0.3802,-0.4061,-0.4061,-0.3873,-0.4207,-0.5159,-0.6509,-0.7753,-0.8679,-0.9406,-0.9814,-0.9925,-1.0854,-1.1368,-1.1418,-1.2384,-1.2716,-1.2365,-1.316,-1.3515,-1.3409,-1.3763,-1.4093,-1.4373,-1.4419,-1.4419,-1.4316,-1.4362,-1.4823,-1.5457,-1.5591,-1.5546,-1.5501,-1.5869,-1.5869,-1.568,-1.5913,-1.5957,-1.5913,-1.6013,-1.5957,-1.5913,-1.5913,-1.6025,-1.6284,-1.7183,-1.8181,-1.8987,-1.8987,-1.8987,-1.8987,-1.8987,-1.8987,-1.9023,-1.9119,-1.9829,-2.0514,-2.073,-2.0851,-2.1199,-2.2041,-2.1837,-2.1704,-2.2125,-2.2197,-2.2197,-2.2247,-2.2297,-2.2482,-2.2678,-2.28,-2.2969,-2.3078,-2.3078,-2.3078,-2.3078,-2.3078,-2.3138,-2.3138,-2.3437,-2.3628,-2.3628,-2.4041,-2.4345,-2.4447,-2.5356,-2.5877,-2.6011,-2.6322,-2.6745,-2.4433,-2.3805,-2.3228,-2.2966,-2.2486,0.0,0.0,-2.0384,-1.909,-1.6607,-1.4119,-1.1567,-0.8958,-0.671,-0.5436,-0.6008,-0.727,-0.6911,-0.3301,-0.3083,-0.3783,-0.5115,-0.4616,-0.4248,-0.4588,-0.4769,-0.5155,-0.5923,-0.6861,-0.7765,-0.8573,-0.8988,-0.9302,-0.951,-0.9976,-1.0498,-1.0939,-1.1475,-1.1724,-1.1742,-1.2618,-1.2871,-1.2638,-1.3218,-1.361,-1.38,-1.38,-1.3742,-1.3695,-1.3695,-1.3884,-1.4212,-1.4801,-1.504,-1.5153,-1.5513,-1.5603,-1.5513,-1.5748,-1.5792,-1.5792,-1.5792,-1.5792,-1.5792,-1.5792,-1.6164,-1.6786,-1.758,-1.8374,-1.8987,-1.8987,-1.8987,-1.8987,-1.8987,-1.8987,-1.8987,-1.8987,-1.942,-1.9877,-2.0153,-2.0201,-2.0622,-2.1969,-2.1969,-2.1885,-2.2149,-2.2197,-2.2197,-2.2197,-2.2309,-2.242,-2.2555,-2.2726,-2.2909,-2.2957,-2.3078,-2.3078,-2.3078,-2.3078,-2.3078,-2.3078,-2.3437,-2.3688,-2.3865,-2.3995,-2.4112,-2.4112,-2.465,-2.4978,-2.5063,-2.5618,-2.604,-2.5631,-2.4948,-2.4195,-2.3971,-2.3439,-2.2807,0.0,0.0,0.0,-1.7844,-1.6308,-1.4519,-1.1015,-0.9629,-0.9325,-1.041,-0.9758,-0.8745,-0.7612,-0.6818,0.0,-0.6384,-0.5115,-0.4515,-0.5194,-0.5506,-0.6039,-0.6815,-0.6912,-0.7348,-0.8415,-0.8573,-0.8732,-0.9054,-0.9159,-0.9562,-1.0312,-1.0517,-1.0728,-1.1006,-1.199,-1.2187,-1.185,-1.2628,-1.3074,-1.3218,-1.3218,-1.317,-1.3074,-1.3074,-1.3074,-1.317,-1.4097,-1.4617,-1.488,-1.5289,-1.5379,-1.5334,-1.5513,-1.5558,-1.5513,-1.5614,-1.5659,-1.5659,-1.5659,-1.6338,-1.7189,-1.7615,-1.8287,-1.8827,-1.8827,-1.8934,-1.8987,-1.8987,-1.8987,-1.8987,-1.8881,-1.9018,-1.9275,-1.9586,-1.9809,-2.0394,-2.1801,-2.2041,-2.2077,-2.2173,-2.2101,-2.2077,-2.2173,-2.2274,-2.2372,-2.2482,-2.2726,-2.2969,-2.2969,-2.3017,-2.3078,-2.3078,-2.3078,-2.3138,-2.3138,-2.3509,-2.3819,-2.4112,-2.4112,-2.4112,-2.4112,-2.4112,-2.4112,-2.4112,-2.4865,-2.5355,-2.5691,-2.543,-2.5123,-2.5043,-2.4516,-2.3989,-2.384,0.0,-2.2095,-2.0867,0.0,-1.7956,-1.6341,0.0,0.0,-1.3686,-1.3173,-1.2341,-1.1107,-1.0211,-0.8661,-0.5958,-0.4865,-0.4755,-0.5741,-0.5342,-0.5517,-0.6799,-0.6416,-0.6691,-0.7895,-0.8368,-0.8626,-0.8679,-0.8995,-0.9256,-0.9361,-1.0167,-1.0364,-0.9969,-1.12,-1.181,-1.1801,-1.2147,-1.2638,-1.3218,-1.3218,-1.3035,-1.2774,-1.2774,-1.2774,-1.2871,-1.3847,-1.4129,-1.4046,-1.4834,-1.488,-1.4558,-1.4766,-1.4663,-1.4536,-1.5006,-1.5198,-1.5198,-1.5198,-1.557,-1.5997,-1.6063,-1.7108,-1.8201,-1.8201,-1.8602,-1.8987,-1.8987,-1.8987,-1.8881,-1.8321,-1.9022,-1.9586,-1.9064,-1.9826,-2.073,-2.138,-2.1488,-2.1656,-2.2125,-2.1789,-2.1668,-2.2125,-2.2079,-2.2149,-2.2628,-2.2909,-2.3078,-2.3078,-2.3078,-2.3078,-2.3078,-2.3078,-2.3198,-2.3343,-2.3713,-2.3949,-2.4112,-2.4112,-2.4112,-2.4112,-2.4112,-2.4112,-2.4112,-2.4505,-2.5206,-2.5655,-2.5522,-2.5372,-2.5235,-2.4841,-2.44,-2.4045,-2.3548,-2.2867,-2.1966,0.0,0.0,0.0,0.0,0.0,0.0,-1.4898,-1.3936,-1.2968,-1.1389,-0.982,-0.8453,0.0,0.0,-0.7688,0.0,0.0,0.0,-0.6966,-0.7025,-0.7848,-0.8109,-0.8209,-0.8209,-0.8374,-0.858,-0.8837,-0.9451,-0.9666,-0.9465,-1.0379,-1.083,-1.088,-1.1334,-1.1792,-1.2353,-1.2501,-1.2461,-1.2323,-1.2323,-1.2323,-1.2421,-1.3045,-1.3382,-1.3515,-1.4035,-1.4165,-1.4071,-1.4351,-1.4351,-1.4351,-1.4536,-1.4628,-1.4628,-1.4628,-1.5174,-1.5793,-1.5793,-1.6682,-1.7589,-1.7589,-1.8038,-1.8375,-1.8038,-1.8201,-1.8321,-1.7699,-1.7923,-1.8292,-1.8414,-1.8821,-1.9315,-1.9888,-2.0241,-2.0463,-2.0746,-2.0534,-2.0463,-2.0746,-2.1067,-2.1492,-2.2161,-2.2377,-2.268,-2.3053,-2.3078,-2.3078,-2.3078,-2.3078,-2.3258,-2.3509,-2.3641,-2.3819,-2.4112,-2.4112,-2.4112,-2.4112,-2.4112,-2.4157,-2.4203,-2.4792,-2.5306,-2.564,-2.5563,-2.546,-2.5329,-2.5038,-2.471,-2.4256,-2.4007,-2.3642,-2.276,-2.2074,0.0,0.0,0.0,-1.8229,-1.7785,0.0,-1.5669,-1.4762,-1.3065,-1.1657,-1.0974,0.0,0.0,0.0,0.0,0.0,0.0,0.0,-0.73,-0.7848,-0.7901,-0.7901,-0.7901,-0.7901,-0.8055,-0.8421,-0.8837,-0.9047,-0.9054,-0.9658,-0.9969,-1.0064,-1.0618,-1.1133,-1.151,-1.1918,-1.2076,-1.2076,-1.2076,-1.2076,-1.2126,-1.2431,-1.2657,-1.2929,-1.3372,-1.3552,-1.3627,-1.3836,-1.4025,-1.4118,-1.4118,-1.4118,-1.414,-1.4221,-1.4782,-1.5351,-1.5478,-1.6202,-1.6978,-1.6978,-1.7424,-1.7754,-1.7313,-1.7534,-1.7699,-1.709,-1.709,-1.7257,-1.7534,-1.7754,-1.7988,-1.8351,-1.9023,-1.947,-1.9442,-1.9458,-1.954,-1.9678,-2.0225,-2.0978,-2.1805,-2.2043,-2.243,-2.3027,-2.3078,-2.3078,-2.3078,-2.3138,-2.3318,-2.3569,-2.3628,-2.3819,-2.4112,-2.4112,-2.4112,-2.4112,-2.4112,-2.4157,-2.4261,-2.5031,-2.5522,0.0,0.0,0.0,-2.5495,0.0,0.0,0.0,0.0,-2.4371,-2.3699,-2.3419,-2.3058,-2.2102,-2.1464,-2.0845,-2.011,-1.9235,0.0,0.0,-1.6205,-1.4965,-1.2616,-1.1413,0.0,0.0,-0.829,0.0,0.0,0.0,0.0,-0.7848,-0.7901,-0.7901,-0.7901,-0.7901,-0.7901,-0.7901,-0.8368,-0.8626,-0.8626,-0.9047,-0.9361,-0.9666,-1.032,-1.0762,-1.1065,-1.181,-1.2076,-1.2076,-1.2076,-1.2076,-1.2076,-1.2126,-1.2126,-1.2215,-1.3084,-1.3266,-1.3064,-1.316,-1.3409,-1.361,-1.361,-1.361,-1.3693,-1.4078,-1.4184,-1.4272,-1.4694,-1.5568,-1.6301,-1.6301,-1.6754,-1.7202,-1.7202,-1.7202,-1.709,-1.6472,-1.681,-1.7034,-1.6472,-1.681,-1.7202,-1.7279,-1.8194,-1.8931,-1.884,-1.8905,-1.9114,-1.9632,-2.0005,-2.0674,-2.1768,-2.2147,-2.2535,-2.3027,-2.3078,-2.3078,-2.3078,-2.3271,-2.345,-2.3569,-2.3772,-2.3949,-2.4112,-2.4112,-2.4112,-2.4112,-2.4112,-2.4112,-2.4125,-2.4985,-2.5808,0.0,0.0,-2.5504,-2.5499,0.0,0.0,0.0,0.0,0.0,0.0,-2.4304,-2.4172,-2.3063,-2.2853,-2.255,-2.1642,-2.0605,-1.9717,0.0,-1.8182,-1.6574,-1.3961,-1.2771,-1.1926,0.0,0.0,0.0,0.0,-0.8249,0.0,0.0,-0.7901,-0.7735,-0.7354,-0.7741,-0.7735,-0.7354,-0.8203,-0.8421,-0.8162,-0.858,-0.8837,-0.8988,-0.9806,-1.0415,-1.0771,-1.1309,-1.1769,-1.2076,-1.1728,-1.1778,-1.2076,-1.2076,-1.1877,-1.1669,-1.2314,-1.2559,-1.2559,-1.2803,-1.291,-1.3007,-1.3113,-1.3162,-1.3133,-1.3283,-1.3677,-1.4107,-1.4307,-1.4975,-1.569,-1.569,-1.614,-1.6528,-1.6083,-1.6301,-1.6415,-1.5853,-1.5853,-1.6083,-1.6255,-1.6472,-1.6585,-1.6585,-1.6938,-1.7156,-1.7154,-1.7288,-1.7586,-1.8092,-1.9051,-2.0169,-2.1366,-2.1878,-2.243,-2.3027,-2.3078,-2.3078,-2.3078,-2.3138,-2.3318,-2.3569,-2.37,-2.3819,-2.4112,-2.4112,-2.4112,-2.4112,-2.4112,-2.4157,-2.4261,-2.5031,-2.5748,-2.5609,-2.5559,0.0,-2.551,-2.5401,0.0,-2.5254,0.0,-2.5192,0.0,0.0,-2.4935,-2.3939,-2.3653,-2.3284,-2.2426,-2.1393,-2.0489,0.0,-1.8804,-1.7421,-1.5635,-1.4318,-1.3234,-1.2369,-1.1017,0.0,0.0,0.0,0.0,0.0,0.0,-0.7895,-0.7408,-0.7521,-0.7521,-0.7413,-0.783,-0.7996,-0.7901,-0.8215,-0.8368,-0.8368,-0.9242,-0.9806,-1.0115,-1.0685,-1.115,-1.151,-1.1368,-1.1528,-1.1828,-1.1828,-1.1628,-1.1368,-1.1977,-1.2274,-1.2382,-1.2578,-1.2676,-1.2725,-1.2783,-1.2881,-1.291,-1.3057,-1.3584,-1.4107,-1.4326,-1.4873,-1.541,-1.541,-1.569,-1.5853,-1.5468,-1.569,-1.5853,-1.5468,-1.541,-1.5517,-1.5911,-1.5968,-1.5979,-1.6093,-1.6104,-1.6104,-1.6104,-1.656,-1.7067,-1.7446,-1.8829,-2.0164,-2.1163,-2.1823,-2.243,-2.3027,-2.3078,-2.3138,-2.3198,-2.321,-2.339,-2.3688,-2.37,-2.3909,-2.4413,-2.4217,-2.4217,-2.4426,-2.4217,-2.4157,-2.4274,-2.4985,-2.5688]}]]